Date StartTime U_cm/s V_cm/s W_cm/s Ustd_cm/s Vstd_cm/s Wstd_cm/s Uvar_(cm/s)^2 Vvar_(cm/s)^2 Wvar_(cm/s)^2 KE_(m/s)^2 TurbulentKE_(m/s)^2 HorizWindSpeed_cm/s FrictionSpeec_cm/s DragCoef SpeedOfSound_m/s SonicTemperature_C Pressure_mb 
07/18/2013  00:00:00     -111.447      -55.987       -2.102       45.374       45.664       26.267     2058.837     2085.202      689.933        1.020        0.242      124.719       23.633        0.036      346.006       23.943      865.151
07/18/2013  00:01:00     -205.134      -62.147      -13.116       65.330       41.709       31.603     4267.994     1739.670      998.766        2.656        0.350      214.341       28.919        0.018      346.027       23.976      865.140
07/18/2013  00:02:00     -179.593      -12.595      -10.685       74.145       68.730       30.275     5497.448     4723.872      916.578        2.183        0.557      180.034       25.519        0.020      345.893       23.746      865.148
07/18/2013  00:03:00      -86.465      -38.039        6.955       65.140       45.567       27.277     4243.231     2076.346      744.057        0.802        0.353       94.463       35.051        0.138      345.752       23.506      865.145
07/18/2013  00:04:00     -133.667      -29.922        7.755       87.175       47.032       33.665     7599.555     2211.969     1133.329        1.488        0.547      136.976       42.125        0.095      345.807       23.600      865.141
07/18/2013  00:05:00     -146.784      -84.615       -2.279       90.088       58.896       42.903     8115.889     3468.709     1840.639        2.107        0.671      169.426       50.677        0.089      345.811       23.607      865.142
07/18/2013  00:06:00     -133.521      -62.421        3.626       61.836       52.132       27.677     3823.744     2717.703      766.035        1.452        0.365      147.392       23.634        0.026      345.757       23.514      865.143
07/18/2013  00:07:00     -115.582      -57.922        0.149       57.936       44.414       25.328     3356.616     1972.567      641.506        1.134        0.299      129.283       28.466        0.048      345.741       23.489      865.161
07/18/2013  00:08:00     -162.002      -45.308      -10.332       55.211       40.415       24.924     3048.223     1633.369      621.197        1.685        0.265      168.218       25.430        0.023      345.745       23.494      865.166
07/18/2013  00:09:00     -140.956      -38.504       -8.455       96.585       54.079       34.589     9328.710     2924.528     1196.418        1.743        0.672      146.121       29.719        0.041      345.776       23.547      865.159
07/18/2013  00:10:00     -179.810      -83.933      -12.411       71.020       48.392       34.348     5043.839     2341.767     1179.806        2.405        0.428      198.434       31.921        0.026      345.752       23.504      865.174
07/18/2013  00:11:00      -42.318        4.787       -1.679       28.153       29.576       22.625      792.576      874.755      511.893        0.200        0.109       42.588       11.315        0.071      345.602       23.249      865.180
07/18/2013  00:12:00      -64.561      -37.774        2.628       29.943       25.533       16.866      896.558      651.919      284.465        0.372        0.092       74.800       10.445        0.020      345.539       23.141      865.189
07/18/2013  00:13:00      -92.299      -40.778       -9.437       36.366       31.877       16.961     1322.500     1016.152      287.688        0.645        0.131      100.905        5.720        0.003      345.552       23.165      865.195
07/18/2013  00:14:00      -95.181      -25.891       -8.973       38.807       35.382       18.487     1505.995     1251.905      341.783        0.645        0.155       98.640       15.752        0.026      345.253       22.650      865.209
07/18/2013  00:15:00      -90.476       -3.438       -6.549       33.032       30.158       15.405     1091.112      909.505      237.325        0.524        0.112       90.541       16.108        0.032      345.210       22.575      865.211
07/18/2013  00:16:00     -111.984       34.538       -4.907       42.253       31.856       16.665     1785.287     1014.786      277.717        0.842        0.154      117.189       16.224        0.019      345.049       22.304      865.219
07/18/2013  00:17:00     -125.459       45.758      -23.863       37.545       52.165       19.065     1409.640     2721.180      363.492        1.145        0.225      133.543       11.163        0.007      344.970       22.168      865.252
07/18/2013  00:18:00     -128.501       53.784      -18.901       36.750       40.978       21.615     1350.579     1679.173      467.211        1.163        0.175      139.303       15.534        0.012      345.025       22.261      865.254
07/18/2013  00:19:00      -70.904       33.477       -8.193       33.865       60.499       20.763     1146.851     3660.107      431.094        0.573        0.262       78.410       20.436        0.068      345.014       22.242      865.238
07/18/2013  00:20:00     -128.940      -34.026       -7.718       44.457       27.037       24.271     1976.416      730.973      589.086        1.057        0.165      133.354       26.674        0.040      344.954       22.140      865.229
07/18/2013  00:21:00     -115.477      -32.027       -5.666       29.985       26.215       17.046      899.077      687.225      290.580        0.813        0.094      119.836       13.642        0.013      344.923       22.088      865.234
07/18/2013  00:22:00     -121.043      -22.467      -11.045       37.110       24.121       20.344     1377.117      581.835      413.858        0.882        0.119      123.110       13.422        0.012      344.885       22.023      865.219
07/18/2013  00:23:00     -150.024      -50.061       -7.424       49.777       40.251       25.311     2477.796     1620.129      640.643        1.490        0.237      158.156       18.244        0.013      345.163       22.496      865.212
07/18/2013  00:24:00     -122.374      -50.371        0.969       55.941       33.815       23.157     3129.410     1143.454      536.251        1.116        0.240      132.336       20.777        0.025      345.260       22.663      865.216
07/18/2013  00:25:00     -108.423      -41.689       -6.734       30.942       33.766       21.409      957.391     1140.123      458.335        0.805        0.128      116.161       18.322        0.025      345.257       22.657      865.216
07/18/2013  00:26:00      -68.946       19.357       -3.506       26.369       28.128       14.097      695.338      791.208      198.725        0.341        0.084       71.611       12.753        0.032      345.043       22.291      865.216
07/18/2013  00:27:00      -71.105       50.108      -13.867       15.108       22.326       11.097      228.240      498.434      123.137        0.430        0.042       86.987        4.165        0.002      345.089       22.370      865.219
07/18/2013  00:28:00      -99.691       21.888      -11.571       18.846       21.824       14.279      355.184      476.303      203.886        0.579        0.052      102.066       11.888        0.014      345.020       22.252      865.210
07/18/2013  00:29:00     -106.008      -11.991      -11.794       19.259       22.730       15.237      370.910      516.643      232.170        0.632        0.056      106.684       11.273        0.011      345.080       22.356      865.193
07/18/2013  00:30:00      -92.239      -34.587       -5.001       28.047       32.173       19.304      786.661     1035.119      372.643        0.596        0.110       98.510       16.079        0.027      344.943       22.122      865.185
07/18/2013  00:31:00     -100.944      -48.671        4.054       38.976       32.142       18.755     1519.123     1033.121      351.760        0.774        0.145      112.065       18.304        0.027      345.022       22.257      865.169
07/18/2013  00:32:00      -93.085       -3.735       -1.365       39.112       43.770       19.144     1529.734     1915.833      366.508        0.625        0.191       93.160       21.883        0.055      344.981       22.187      865.155
07/18/2013  00:33:00     -165.139      -32.411      -14.605       40.971       39.234       27.373     1678.600     1539.287      749.283        1.625        0.198      168.290       19.242        0.013      345.270       22.681      865.159
07/18/2013  00:34:00      -45.185      -20.386        3.342       67.322       32.457       26.347     4532.226     1053.442      694.186        0.437        0.314       49.571       32.785        0.437      345.088       22.369      865.144
07/18/2013  00:35:00      -86.881      -43.696       -1.188       38.069       35.147       24.326     1449.275     1235.297      591.753        0.637        0.164       97.250       17.520        0.032      345.082       22.359      865.138
07/18/2013  00:36:00     -112.070      -76.862        4.825       67.247       43.211       26.958     4522.141     1867.196      726.754        1.280        0.356      135.895       33.530        0.061      345.199       22.557      865.137
07/18/2013  00:37:00      -92.765      -71.350        9.881       50.454       39.247       27.908     2545.628     1540.318      778.834        0.933        0.243      117.031       27.581        0.056      345.261       22.664      865.131
07/18/2013  00:38:00      -75.967      -56.589       -2.417       45.304       31.093       19.778     2052.457      966.793      391.178        0.619        0.171       94.727       23.374        0.061      345.294       22.721      865.133
07/18/2013  00:39:00      -32.894       -5.195        5.578       30.892       35.688       22.684      954.305     1273.639      514.554        0.194        0.137       33.302       21.393        0.413      345.102       22.391      865.130
07/18/2013  00:40:00     -110.206       21.541      -10.687       28.073       16.509       10.580      788.102      272.550      111.928        0.695        0.059      112.291        2.157        0.000      345.028       22.267      865.121
07/18/2013  00:41:00     -138.205      -22.889       -5.608       16.391       37.749       13.757      268.661     1425.011      189.247        1.077        0.094      140.088        8.851        0.004      344.987       22.196      865.113
07/18/2013  00:42:00     -105.648      -31.610       -9.390       30.063       30.114       19.685      903.768      906.881      387.518        0.722        0.110      110.275       14.216        0.017      344.910       22.064      865.098
07/18/2013  00:43:00     -125.323      -28.402       -6.107       35.593       23.261       17.223     1266.896      541.070      296.636        0.933        0.105      128.501       15.025        0.014      344.884       22.020      865.082
07/18/2013  00:44:00     -106.572       -1.616       -4.201       40.950       27.919       19.097     1676.929      779.473      364.708        0.710        0.141      106.584       20.160        0.036      344.748       21.786      865.086
07/18/2013  00:45:00      -84.428      -27.626       -2.295       38.790       20.678       17.718     1504.643      427.583      313.911        0.507        0.112       88.833       22.776        0.066      344.842       21.948      865.073
07/18/2013  00:46:00      -86.453      -25.202        4.313       30.344       23.888       15.628      920.753      570.643      244.225        0.493        0.087       90.051       14.980        0.028      344.823       21.915      865.061
07/18/2013  00:47:00     -155.817        0.929      -17.226       40.935       27.837       19.101     1675.664      774.920      364.857        1.370        0.141      155.820       17.947        0.013      344.561       21.466      865.068
07/18/2013  00:48:00     -173.470        9.768      -17.115       58.510       57.852       27.268     3423.402     3346.838      743.537        1.900        0.376      173.744       20.574        0.014      344.468       21.306      865.079
07/18/2013  00:49:00     -121.666       19.472      -15.225       59.183       32.974       19.707     3502.665     1087.252      388.374        1.019        0.249      123.215       18.512        0.023      344.392       21.179      865.062
07/18/2013  00:50:00      -75.901      -44.628        5.436       58.808       58.104       28.695     3458.402     3376.090      823.413        0.772        0.383       88.049       16.985        0.037      344.346       21.098      865.060
07/18/2013  00:51:00      -67.636      -34.152        6.057       55.008       25.046       20.927     3025.929      627.310      437.944        0.493        0.205       75.769       17.911        0.056      344.292       21.006      865.058
07/18/2013  00:52:00     -128.923       -9.032       -7.455       50.255       39.514       24.176     2525.608     1561.353      584.490        1.071        0.234      129.239       20.027        0.024      344.336       21.082      865.059
07/18/2013  00:53:00     -146.413       17.160      -12.760       47.058       28.281       18.339     2214.466      799.839      336.316        1.262        0.168      147.416       15.703        0.011      344.353       21.112      865.071
07/18/2013  00:54:00     -196.110       14.492      -23.002       21.057       19.720       13.942      443.388      388.864      194.366        2.011        0.051      196.645        7.230        0.001      344.443       21.265      865.090
07/18/2013  00:55:00     -159.938       -7.696      -15.130       17.034       28.554       14.545      290.148      815.325      211.545        1.359        0.066      160.123       11.822        0.005      344.355       21.115      865.082
07/18/2013  00:56:00     -101.665       -9.320       -6.542       21.260       25.780       14.572      451.969      664.610      212.349        0.590        0.066      102.092       12.130        0.014      344.409       21.207      865.090
07/18/2013  00:57:00      -70.343        5.473        2.456       42.924       37.834       21.090     1842.467     1431.402      444.791        0.435        0.186       70.556       20.890        0.088      344.473       21.318      865.093
07/18/2013  00:58:00      -93.114       -3.728       -6.996       37.008       33.492       19.965     1369.566     1121.681      398.620        0.581        0.144       93.188       16.850        0.033      344.407       21.204      865.094
07/18/2013  00:59:00      -88.956       26.922       -0.353       54.798       37.491       24.778     3002.860     1405.541      613.971        0.683        0.251       92.941       18.073        0.038      344.452       21.281      865.088
07/18/2013  01:00:00     -126.634       28.752       -9.810       46.799       34.318       27.257     2190.138     1177.735      742.967        1.053        0.206      129.857       26.783        0.043      344.939       22.113      865.075
07/18/2013  01:01:00     -119.001       -0.353       -9.039       27.299       31.062       17.687      745.242      964.848      312.824        0.813        0.101      119.002       14.667        0.015      344.651       21.621      865.072
07/18/2013  01:02:00     -102.715      -20.277       -6.149       30.282       27.602       15.387      917.014      761.851      236.745        0.646        0.096      104.698       10.907        0.011      344.598       21.532      865.084
07/18/2013  01:03:00     -103.730       19.017       -8.601       41.006       19.659       15.603     1681.512      386.482      243.446        0.675        0.116      105.459       14.079        0.018      344.365       21.132      865.089
07/18/2013  01:04:00      -21.148      -16.452        0.022       25.839       21.000       11.187      667.637      441.013      125.138        0.098        0.062       26.794        9.713        0.131      344.303       21.026      865.084
07/18/2013  01:05:00      -78.719      -34.686       -0.460       43.172       31.479       19.393     1863.800      990.925      376.079        0.531        0.162       86.022       17.377        0.041      344.623       21.573      865.088
07/18/2013  01:06:00      -70.897      -24.913       -3.203       26.776       24.486       12.671      716.972      599.574      160.555        0.357        0.074       75.147        9.840        0.017      344.334       21.079      865.089
07/18/2013  01:07:00      -91.842      -23.084      -10.842       19.697       13.033       10.206      387.959      169.857      104.172        0.487        0.033       94.699       10.314        0.012      344.338       21.085      865.093
07/18/2013  01:08:00      -75.858      -19.060      -12.130       17.568       12.474        9.406      308.629      155.602       88.470        0.341        0.028       78.216        6.900        0.008      344.313       21.044      865.088
07/18/2013  01:09:00      -59.779      -32.372       -7.902       19.179       21.174        6.852      367.849      448.321       46.946        0.277        0.043       67.982        8.827        0.017      344.384       21.164      865.079
07/18/2013  01:10:00      -44.291       -0.045        2.231       23.364       19.236       12.443      545.883      370.008      154.821        0.152        0.054       44.291       13.250        0.089      344.314       21.044      865.092
07/18/2013  01:11:00      -48.500        8.082       -2.897        9.266       11.739        6.636       85.865      137.804       44.041        0.135        0.013       49.169        4.425        0.008      344.305       21.027      865.086
07/18/2013  01:12:00      -19.076       -9.849       -1.471        7.593        6.539        3.640       57.648       42.762       13.252        0.029        0.006       21.468        2.119        0.010      344.375       21.148      865.094
07/18/2013  01:13:00        8.654       -5.618       -3.172        7.877        8.389        6.199       62.050       70.380       38.423        0.014        0.009       10.317        2.866        0.077      344.428       21.240      865.103
07/18/2013  01:14:00       20.795        6.591        7.248        6.427        9.020        6.140       41.306       81.354       37.694        0.034        0.008       21.815        5.327        0.060      344.493       21.349      865.097
07/18/2013  01:15:00        5.647       -1.029       -0.172       10.222        7.970        5.047      104.494       63.518       25.475        0.011        0.010        5.740        4.275        0.555      344.706       21.715      865.109
07/18/2013  01:16:00        3.560        4.710        4.292       10.677        5.815        8.330      113.999       33.812       69.383        0.014        0.011        5.904        8.588        2.116      344.622       21.571      865.105
07/18/2013  01:17:00      -20.263      -11.169       -3.347        8.041        8.495        4.482       64.659       72.170       20.091        0.035        0.008       23.137        3.102        0.018      344.600       21.535      865.093
07/18/2013  01:18:00      -33.581       -8.903       -5.117        4.974        5.786        3.996       24.742       33.473       15.966        0.065        0.004       34.742        2.676        0.006      344.565       21.472      865.081
07/18/2013  01:19:00      -55.649      -36.161       -3.689       12.353       10.402        4.942      152.597      108.198       24.420        0.235        0.014       66.366        2.911        0.002      344.672       21.656      865.085
07/18/2013  01:20:00      -47.301      -17.039       -5.815       17.175       13.686       10.442      294.975      187.296      109.031        0.158        0.030       50.277       10.145        0.041      344.445       21.269      865.077
07/18/2013  01:21:00      -30.440      -11.757        0.973       23.842       16.360       13.192      568.465      267.666      174.033        0.104        0.051       32.632       15.806        0.235      344.208       20.865      865.080
07/18/2013  01:22:00      -57.051      -22.095       -1.383       20.538       16.454       15.235      421.826      270.749      232.093        0.233        0.046       61.180       11.910        0.038      344.307       21.032      865.100
07/18/2013  01:23:00      -60.063        0.481       -1.904       22.090       15.048       12.632      487.979      226.429      159.578        0.224        0.044       60.065       13.068        0.047      344.366       21.132      865.129
07/18/2013  01:24:00      -73.121       44.035       -9.800       26.976       24.645       17.641      727.679      607.365      311.208        0.451        0.082       85.357       17.102        0.040      344.727       21.751      865.156
07/18/2013  01:25:00      -33.966       15.565       -3.482       25.179       25.282        7.279      633.974      639.177       52.985        0.137        0.066       37.362        9.275        0.062      344.712       21.723      865.173
07/18/2013  01:26:00       11.617       11.794        6.678       10.237        7.482        6.279      104.795       55.985       39.427        0.026        0.010       16.555        6.526        0.155      344.656       21.629      865.190
07/18/2013  01:27:00       24.229        5.967        5.154        6.481        9.772        8.186       42.007       95.496       67.010        0.043        0.010       24.953        6.130        0.060      344.181       20.817      865.215
07/18/2013  01:28:00       29.453       -1.363        4.116        6.474        7.173        5.672       41.917       51.457       32.173        0.051        0.006       29.484        2.448        0.007      344.265       20.963      865.227
07/18/2013  01:29:00       52.435       47.295       -3.262       14.925       23.982       22.963      222.752      575.139      527.297        0.316        0.066       70.614       19.265        0.074      343.952       20.426      865.227
07/18/2013  01:30:00       32.880       34.286       -1.643       27.440       22.352       12.301      752.972      499.603      151.324        0.183        0.070       47.505       13.258        0.078      343.701       19.997      865.232
07/18/2013  01:31:00       33.057       22.845       -5.179        7.821       11.258        4.842       61.174      126.737       23.444        0.093        0.011       40.183        5.611        0.019      343.995       20.500      865.229
07/18/2013  01:32:00        6.640      -25.794       -4.515       21.575       17.102       10.131      465.487      292.465      102.640        0.080        0.043       26.635        6.917        0.067      344.032       20.562      865.207
07/18/2013  01:33:00       10.345      -39.181       -4.600       35.830       18.003       15.755     1283.813      324.108      248.234        0.176        0.093       40.523       10.575        0.068      344.206       20.860      865.179
07/18/2013  01:34:00      -17.324      -41.140       -1.275       39.331       34.136       16.067     1546.933     1165.295      258.159        0.248        0.149       44.639       10.458        0.055      344.467       21.306      865.144
07/18/2013  01:35:00      -39.445       -1.611        1.793       22.984       21.395       17.192      528.272      457.732      295.553        0.142        0.064       39.478       11.315        0.082      343.881       20.305      865.151
07/18/2013  01:36:00      -39.509      -11.835        4.049       15.746       19.522        8.214      247.952      381.104       67.463        0.121        0.035       41.243        6.692        0.026      343.986       20.485      865.148
07/18/2013  01:37:00      -46.746       26.861       -6.000       10.119       15.144        7.549      102.400      229.339       56.993        0.167        0.019       53.914        2.862        0.003      344.086       20.655      865.153
07/18/2013  01:38:00      -31.100       71.782       -5.717       15.945       31.371       13.173      254.236      984.129      173.523        0.378        0.071       78.229       15.228        0.038      344.108       20.693      865.174
07/18/2013  01:39:00      -22.636       72.145       -7.539        9.597       11.618        5.974       92.099      134.982       35.684        0.302        0.013       75.613        4.521        0.004      344.296       21.015      865.193
07/18/2013  01:40:00        4.708       70.903       -7.943        8.671       12.891        5.258       75.178      166.179       27.646        0.269        0.013       71.059        3.407        0.002      344.176       20.809      865.198
07/18/2013  01:41:00       19.656       62.280       -9.669       17.209       13.101       10.124      296.154      171.628      102.489        0.246        0.029       65.308        7.541        0.013      344.220       20.884      865.203
07/18/2013  01:42:00       43.021       15.804        6.890       21.487       16.622       10.891      461.671      276.298      118.610        0.150        0.043       45.832       10.412        0.052      344.198       20.846      865.225
07/18/2013  01:43:00       21.187        8.319        7.166       13.962       10.367        9.275      194.927      107.468       86.020        0.048        0.019       22.762        5.899        0.067      344.034       20.567      865.250
07/18/2013  01:44:00       23.690       12.075        9.610       11.697        8.470       12.217      136.810       71.741      149.248        0.058        0.018       26.590        5.322        0.040      343.884       20.310      865.260
07/18/2013  01:45:00       24.470       33.525       -1.624       12.194       12.866        8.438      148.696      165.528       71.208        0.106        0.019       41.506        6.884        0.028      343.774       20.123      865.274
07/18/2013  01:46:00        5.117       13.958       -3.486       11.723       11.268        5.788      137.436      126.960       33.497        0.027        0.015       14.866        4.574        0.095      343.714       20.018      865.301
07/18/2013  01:47:00        5.947        7.931      -12.770       12.826       11.433        6.623      164.515      130.705       43.870        0.030        0.017        9.913        4.958        0.250      343.781       20.135      865.310
07/18/2013  01:48:00       -9.967       16.380       -3.242        8.641       15.762        7.047       74.660      248.427       49.653        0.038        0.019       19.174        6.196        0.104      343.790       20.150      865.313
07/18/2013  01:49:00      -24.166       21.882       -7.461       14.672       16.048        4.984      215.268      257.539       24.836        0.081        0.025       32.601        6.734        0.043      343.772       20.119      865.336
07/18/2013  01:50:00      -29.905       15.722       -4.060        9.958        9.886        6.040       99.169       97.734       36.483        0.070        0.012       33.786        3.667        0.012      343.698       19.995      865.348
07/18/2013  01:51:00      -11.144       55.723       -8.840       18.774       16.380        7.291      352.468      268.290       53.166        0.199        0.034       56.827        6.624        0.014      344.040       20.577      865.357
07/18/2013  01:52:00      -48.475       -4.190       -9.472       15.539       14.913        8.023      241.476      222.393       64.371        0.149        0.026       48.655        3.098        0.004      343.867       20.283      865.362
07/18/2013  01:53:00      -30.981       -4.187       -7.892        9.322        6.112        4.726       86.903       37.353       22.336        0.059        0.007       31.263        3.377        0.012      343.692       19.984      865.366
07/18/2013  01:54:00      -14.448       58.384      -11.146       12.987       46.640       10.695      168.662     2175.256      114.379        0.310        0.123       60.145       18.156        0.091      344.007       20.521      865.365
07/18/2013  01:55:00       -4.380       71.973      -12.109       19.372       14.206        8.544      375.287      201.803       72.992        0.300        0.033       72.106        7.558        0.011      344.277       20.983      865.368
07/18/2013  01:56:00        9.471       44.500       -7.444       14.640       12.199        6.276      214.330      148.807       39.385        0.126        0.020       45.496        4.473        0.010      344.494       21.352      865.349
07/18/2013  01:57:00       -6.517       47.918       -5.812       15.990       14.019        9.536      255.687      196.519       90.938        0.146        0.027       48.359        9.054        0.035      344.429       21.241      865.329
07/18/2013  01:58:00        2.347       44.384       -7.283       13.014       18.972        7.643      169.362      359.953       58.420        0.131        0.029       44.446        9.784        0.048      344.436       21.254      865.327
07/18/2013  01:59:00      -31.847       -8.284        0.077       26.760       19.581        9.016      716.073      383.403       81.295        0.113        0.059       32.907        9.161        0.078      344.143       20.752      865.319
07/18/2013  02:00:00      -35.668      -19.941       -4.725       14.818       17.824        6.539      219.569      317.690       42.756        0.114        0.029       40.864        5.002        0.015      343.630       19.878      865.312
07/18/2013  02:01:00      -26.401      -33.798       -4.994       11.408       13.996       10.622      130.148      195.899      112.833        0.115        0.022       42.887        7.484        0.030      343.965       20.448      865.302
07/18/2013  02:02:00       -4.502       21.204        3.476       27.795       19.547        8.417      772.557      382.089       70.853        0.085        0.061       21.676        6.215        0.082      344.320       21.056      865.309
07/18/2013  02:03:00       -5.134       31.035       -0.805       36.148       18.288       17.933     1306.702      334.441      321.585        0.148        0.098       31.457       14.702        0.218      344.333       21.078      865.293
07/18/2013  02:04:00      -16.124       25.335       -0.858       15.967       11.686        8.962      254.950      136.561       80.311        0.069        0.024       30.030        5.963        0.039      344.380       21.157      865.265
07/18/2013  02:05:00       34.669       40.356        7.363       16.163       14.044       16.737      261.230      197.233      280.121        0.181        0.037       53.203       11.542        0.047      344.272       20.972      865.261
07/18/2013  02:06:00       47.428       37.523        3.691       11.205       14.232        9.090      125.561      202.553       82.634        0.204        0.021       60.477        6.612        0.012      344.417       21.219      865.256
07/18/2013  02:07:00       30.267        6.940        4.543       12.931       20.044        7.224      167.208      401.756       52.190        0.080        0.031       31.053        9.073        0.085      344.237       20.914      865.253
07/18/2013  02:08:00       13.588        4.034        0.965       12.520       13.779        7.896      156.743      189.857       62.345        0.031        0.020       14.174        6.692        0.223      344.185       20.825      865.253
07/18/2013  02:09:00       13.110        8.478        2.085       16.048       11.871        9.177      257.537      140.929       84.222        0.037        0.024       15.613        6.505        0.174      344.275       20.979      865.261
07/18/2013  02:10:00       -9.996        7.112        2.286       12.801       13.202        8.739      163.867      174.292       76.371        0.029        0.021       12.268        7.962        0.421      344.272       20.974      865.259
07/18/2013  02:11:00      -23.690      -31.042        2.129       12.367       17.171       12.576      152.948      294.839      158.147        0.107        0.030       39.049        8.054        0.043      344.053       20.599      865.245
07/18/2013  02:12:00        3.368      -30.047       -0.525        6.535       12.948        9.466       42.709      167.656       89.606        0.061        0.015       30.236        6.977        0.053      344.244       20.924      865.246
07/18/2013  02:13:00      -50.860      -11.649        1.131       23.744       13.725       14.832      563.783      188.378      219.980        0.185        0.049       52.177       14.521        0.077      343.908       20.353      865.250
07/18/2013  02:14:00      -67.547      -39.055       -9.422       13.523       15.425       12.774      182.861      237.930      163.186        0.338        0.029       78.026        4.622        0.004      343.893       20.325      865.253
07/18/2013  02:15:00      -43.036      -36.432        0.073       36.352       17.315       13.424     1321.494      299.826      180.197        0.249        0.090       56.386        5.158        0.008      343.678       19.958      865.252
07/18/2013  02:16:00      -12.856      -29.688        9.354       33.454       27.819       22.208     1119.147      773.886      493.191        0.176        0.119       32.352       19.317        0.357      343.694       19.985      865.260
07/18/2013  02:17:00      -28.974      -55.740       -8.149       47.043       26.043       16.505     2213.037      678.258      272.408        0.359        0.158       62.821       10.725        0.029      343.871       20.288      865.254
07/18/2013  02:18:00       12.333      -28.535       -5.487       19.086       23.026       19.925      364.293      530.220      397.021        0.114        0.065       31.086       19.322        0.386      343.906       20.347      865.248
07/18/2013  02:19:00       17.758      -13.400        6.966       16.812       16.378       12.467      282.631      268.228      155.435        0.062        0.035       22.246        9.994        0.202      344.038       20.574      865.257
07/18/2013  02:20:00      -32.467       24.153       -5.135       23.113       13.372        9.066      534.228      178.810       82.190        0.123        0.040       40.465        9.263        0.052      344.035       20.567      865.281
07/18/2013  02:21:00      -94.126        4.463       -4.916       25.898       24.147       10.849      670.689      583.073      117.702        0.514        0.069       94.232        6.452        0.005      343.802       20.171      865.291
07/18/2013  02:22:00     -111.213      -50.424       -6.153       32.542       28.855       14.451     1058.992      832.583      208.846        0.852        0.105      122.111       15.056        0.015      343.702       19.999      865.287
07/18/2013  02:23:00      -77.652      -62.455        6.513       42.713       31.917       21.413     1824.432     1018.698      458.521        0.664        0.165       99.652       18.835        0.036      343.552       19.745      865.277
07/18/2013  02:24:00      -88.125      -85.015        4.864       32.580       30.499       23.861     1061.488      930.166      569.368        0.879        0.128      122.448       21.256        0.030      343.828       20.214      865.268
07/18/2013  02:25:00      -83.855      -57.914        5.084       53.512       28.235       23.442     2863.518      797.238      549.532        0.731        0.211      101.910       24.982        0.060      343.814       20.191      865.253
07/18/2013  02:26:00      -87.370      -61.682        1.247       42.393       34.798       17.893     1797.198     1210.930      320.172        0.738        0.166      106.950       16.288        0.023      343.778       20.129      865.238
07/18/2013  02:27:00      -85.972      -44.063        5.093       41.811       28.938       22.463     1748.133      837.383      504.596        0.622        0.155       96.606       21.904        0.051      343.715       20.023      865.235
07/18/2013  02:28:00      -82.745      -49.089        6.578       61.624       29.296       23.372     3797.542      858.278      546.254        0.725        0.260       96.210       25.638        0.071      343.672       19.949      865.235
07/18/2013  02:29:00      -55.928      -39.863        9.376       42.604       30.520       21.370     1815.092      931.459      456.695        0.400        0.160       68.681       17.937        0.068      343.691       19.980      865.229
07/18/2013  02:30:00      -84.780      -99.236       -9.035       29.738       26.051       20.925      884.373      678.650      437.850        0.956        0.100      130.520       15.424        0.014      343.843       20.241      865.225
07/18/2013  02:31:00      -79.020     -112.453       -7.077       61.752       55.467       33.105     3813.285     3076.636     1095.922        1.346        0.399      137.440       37.297        0.074      343.846       20.245      865.226
07/18/2013  02:32:00      -59.520      -70.655       11.622       56.085       36.185       26.437     3145.483     1309.364      698.936        0.691        0.258       92.384       22.014        0.057      343.787       20.144      865.237
07/18/2013  02:33:00     -114.027      -89.817        8.434       54.955       41.086       32.316     3020.106     1688.075     1044.331        1.345        0.288      145.153       30.907        0.045      343.646       19.904      865.243
07/18/2013  02:34:00     -107.057      -72.287       -4.829       48.908       38.496       28.195     2391.964     1481.946      794.978        1.069        0.233      129.176       30.409        0.055      343.626       19.869      865.255
07/18/2013  02:35:00      -74.874       -5.553       -1.749       42.223       22.999       21.776     1782.744      528.957      474.194        0.421        0.139       75.079       24.754        0.109      343.361       19.419      865.267
07/18/2013  02:36:00      -61.074      -25.806        2.751       36.020       26.673       14.239     1297.431      711.424      202.757        0.331        0.111       66.302       16.606        0.063      343.334       19.373      865.279
07/18/2013  02:37:00      -35.630        8.650        1.396       22.302       17.258       11.033      497.386      297.823      121.734        0.113        0.046       36.665       10.233        0.078      343.130       19.025      865.275
07/18/2013  02:38:00      -79.622       -6.498       -7.081       21.656       16.217       10.439      468.975      262.984      108.978        0.364        0.042       79.887        9.726        0.015      343.151       19.062      865.276
07/18/2013  02:39:00     -100.042      -18.730       -3.800       23.692       18.470       15.406      561.334      341.129      237.349        0.576        0.057      101.781       13.368        0.017      343.071       18.924      865.268
07/18/2013  02:40:00     -129.073      -33.944       -0.976       32.862       20.540       14.677     1079.917      421.887      215.408        0.976        0.086      133.462       13.067        0.010      343.094       18.963      865.257
07/18/2013  02:41:00     -122.553      -75.999        3.793       49.045       33.843       24.691     2405.456     1145.331      609.649        1.248        0.208      144.205       22.226        0.024      343.117       19.002      865.229
07/18/2013  02:42:00      -95.372      -50.455        5.863       56.144       40.030       27.106     3152.200     1602.363      734.710        0.858        0.274      107.896       24.008        0.050      343.110       18.992      865.200
07/18/2013  02:43:00     -107.164      -45.446        3.342       54.383       33.310       27.767     2957.499     1109.523      771.001        0.920        0.242      116.402       29.131        0.063      343.096       18.967      865.176
07/18/2013  02:44:00     -150.625      -36.671       -4.364       37.341       36.359       25.592     1394.380     1321.956      654.951        1.371        0.169      155.025       24.604        0.025      343.035       18.863      865.183
07/18/2013  02:45:00     -138.546      -13.813        0.202       51.817       37.249       30.111     2685.013     1387.454      906.692        1.218        0.249      139.233       30.070        0.047      342.824       18.503      865.187
07/18/2013  02:46:00     -110.281      -45.406       -3.399       43.827       35.753       23.764     1920.771     1278.262      564.737        0.900        0.188      119.262       23.913        0.040      342.842       18.534      865.183
07/18/2013  02:47:00     -119.901      -43.064       -8.588       33.675       31.256       19.805     1133.978      976.951      392.244        0.940        0.125      127.400       16.745        0.017      342.921       18.670      865.188
07/18/2013  02:48:00     -153.301      -36.632       -9.292       44.993       39.310       23.787     2024.372     1545.289      565.828        1.453        0.207      157.617       16.329        0.011      343.028       18.852      865.202
07/18/2013  02:49:00      -76.249      -23.584        2.881       39.009       38.655       21.704     1521.673     1494.202      471.063        0.493        0.174       79.813       20.761        0.068      342.928       18.682      865.226
07/18/2013  02:50:00      -65.257       -0.891       -6.012       21.359       19.546       15.786      456.223      382.029      249.210        0.269        0.054       65.263       13.581        0.043      342.960       18.734      865.235
07/18/2013  02:51:00      -46.824        3.675      -10.829       38.087       27.422       13.019     1450.623      751.970      169.493        0.235        0.119       46.968       19.617        0.174      342.996       18.798      865.243
07/18/2013  02:52:00      -93.708        3.187      -15.150       28.212       16.183       14.409      795.940      261.903      207.620        0.514        0.063       93.763       15.047        0.026      343.048       18.886      865.255
07/18/2013  02:53:00      -48.926      -31.008       -2.501       22.832       29.079       14.912      521.322      845.591      222.378        0.248        0.079       57.924        8.499        0.022      342.999       18.801      865.255
07/18/2013  02:54:00      -79.462      -31.574       -0.360       18.613       25.853       14.009      346.426      668.389      196.251        0.426        0.061       85.505       12.390        0.021      342.972       18.758      865.257
07/18/2013  02:55:00     -133.733      -16.581      -19.952       25.758       18.370       13.754      663.456      337.456      189.171        0.987        0.060      134.757        6.767        0.003      342.879       18.598      865.276
07/18/2013  02:56:00     -116.005      -31.310       -6.754       23.990       26.349       15.647      575.502      694.277      244.822        0.800        0.076      120.156       10.656        0.008      342.801       18.464      865.278
07/18/2013  02:57:00      -65.161      -24.171       -0.284       26.123       19.645       15.329      682.405      385.915      234.981        0.307        0.065       69.500       16.109        0.054      342.734       18.350      865.251
07/18/2013  02:58:00      -17.985      -44.956        0.634       18.593       26.014       13.351      345.716      676.734      178.253        0.177        0.060       48.421        9.022        0.035      342.832       18.516      865.239
07/18/2013  02:59:00      -45.015      -47.355        2.902       40.949       31.185       21.201     1676.821      972.532      449.468        0.369        0.155       65.337       21.395        0.107      343.003       18.807      865.216
07/18/2013  03:00:00      -34.875      -29.849        6.738       34.102       29.213       17.230     1162.917      853.405      296.885        0.223        0.116       45.904       11.496        0.063      343.026       18.848      865.213
07/18/2013  03:01:00      -81.412      -20.123       -9.546       18.836       26.486       13.590      354.811      701.493      184.696        0.418        0.062       83.862       10.580        0.016      342.902       18.636      865.203
07/18/2013  03:02:00      -79.257       18.832       -1.408       23.609       16.923       15.178      557.377      286.391      230.382        0.386        0.054       81.464       12.754        0.025      342.707       18.305      865.189
07/18/2013  03:03:00      -82.136        6.121       -5.221       25.833       18.595       15.136      667.356      345.784      229.087        0.403        0.062       82.364       12.553        0.023      342.761       18.395      865.186
07/18/2013  03:04:00      -85.048      -28.943       -1.461       23.841       23.585       15.866      568.398      556.243      251.720        0.472        0.069       89.838       13.697        0.023      342.889       18.615      865.186
07/18/2013  03:05:00      -58.349      -50.563        2.492       18.532       13.304       12.137      343.451      177.001      147.297        0.332        0.033       77.209        7.136        0.009      343.005       18.812      865.193
07/18/2013  03:06:00      -14.391      -25.965       10.473       25.613       21.807       15.826      656.031      475.550      250.468        0.119        0.069       29.687       12.703        0.183      342.952       18.721      865.196
07/18/2013  03:07:00      -29.465      -21.135        0.961       23.289       15.475       11.789      542.391      239.463      138.989        0.112        0.046       36.261        8.799        0.059      343.001       18.806      865.206
07/18/2013  03:08:00      -90.234        6.785      -11.930       21.569       18.703       12.217      465.220      349.818      149.264        0.465        0.048       90.488        8.704        0.009      342.902       18.637      865.224
07/18/2013  03:09:00     -120.914       -9.499       -8.372       33.819       20.919       15.969     1143.722      437.620      255.009        0.831        0.092      121.287       16.682        0.019      342.835       18.523      865.212
07/18/2013  03:10:00     -134.614      -21.866       -7.698       27.757       30.399       15.948      770.451      924.120      254.334        1.030        0.097      136.378       12.543        0.008      342.866       18.575      865.198
07/18/2013  03:11:00     -100.229       -4.712        0.462       53.681       23.587       22.317     2881.628      556.332      498.064        0.700        0.197      100.339       26.387        0.069      342.735       18.351      865.201
07/18/2013  03:12:00      -67.481      -12.211        4.749       42.700       23.425       17.464     1823.324      548.734      304.994        0.370        0.134       68.577       18.574        0.073      342.658       18.221      865.176
07/18/2013  03:13:00     -116.502      -15.919       -5.438       36.902       37.013       18.672     1361.763     1369.932      348.660        0.847        0.154      117.585       16.562        0.020      342.833       18.519      865.155
07/18/2013  03:14:00     -114.760      -64.436       -0.389       28.613       26.949       19.082      818.683      726.268      364.117        0.962        0.095      131.613       15.289        0.013      342.731       18.345      865.149
07/18/2013  03:15:00     -114.177      -47.427       -2.938       23.735       24.056       15.515      563.355      578.704      240.725        0.834        0.069      123.636        9.981        0.007      342.684       18.265      865.141
07/18/2013  03:16:00     -117.686       -3.749      -13.367       33.708       30.080       18.713     1136.259      904.819      350.159        0.822        0.120      117.746       14.403        0.015      342.603       18.127      865.130
07/18/2013  03:17:00     -152.843       30.839      -18.752       36.349       37.353       22.015     1321.248     1395.257      484.673        1.393        0.160      155.924       14.561        0.009      342.710       18.310      865.117
07/18/2013  03:18:00     -108.863       -0.249       -7.611       30.459       26.307       18.047      927.770      692.047      325.683        0.693        0.097      108.863       14.461        0.018      342.723       18.332      865.111
07/18/2013  03:19:00     -114.298      -17.519      -17.990       20.073       23.934       11.226      402.922      572.839      126.022        0.740        0.055      115.633        8.314        0.005      342.699       18.290      865.097
07/18/2013  03:20:00     -133.296      -28.254      -15.419       26.364       29.229       15.575      695.073      854.346      242.576        1.030        0.090      136.258       11.426        0.007      342.636       18.183      865.091
07/18/2013  03:21:00     -143.996      -44.514      -16.692       25.020       20.616       15.411      626.016      425.006      237.506        1.214        0.064      150.720        7.803        0.003      342.663       18.230      865.086
07/18/2013  03:22:00     -118.598      -22.930       -9.664       34.102       20.472       13.662     1162.921      419.087      186.642        0.823        0.088      120.794       16.504        0.019      342.601       18.123      865.073
07/18/2013  03:23:00      -97.142       -4.644       -8.352       24.734       17.620       11.258      611.772      310.479      126.746        0.529        0.052       97.253        6.549        0.005      342.601       18.125      865.073
07/18/2013  03:24:00      -91.337      -22.609       -1.681       28.270       21.651       15.550      799.195      468.756      241.803        0.518        0.075       94.093       12.276        0.017      342.610       18.140      865.072
07/18/2013  03:25:00      -85.463      -43.036       -5.800       30.549       19.959       11.592      933.253      398.361      134.374        0.533        0.073       95.687        8.916        0.009      342.816       18.490      865.068
07/18/2013  03:26:00      -62.671      -39.646        2.594       50.506       24.057       20.103     2550.900      578.732      404.119        0.452        0.177       74.158       24.006        0.105      342.732       18.349      865.085
07/18/2013  03:27:00      -43.384      -40.349        3.364       22.695       20.345       17.263      515.072      413.925      298.022        0.237        0.061       59.247       13.552        0.052      342.932       18.686      865.093
07/18/2013  03:28:00      -56.333      -49.081        3.980       29.132       23.850       15.972      848.646      568.817      255.109        0.364        0.084       74.715       13.701        0.034      342.832       18.518      865.100
07/18/2013  03:29:00      -39.063      -43.889        0.780       32.809       16.507       14.689     1076.414      272.491      215.754        0.251        0.078       58.755       12.194        0.043      342.773       18.418      865.108
07/18/2013  03:30:00      -52.290      -52.629        7.754       37.164       31.386       21.072     1381.156      985.093      444.023        0.419        0.141       74.189       22.927        0.095      342.776       18.422      865.094
07/18/2013  03:31:00     -117.253      -51.674        1.071       35.902       28.184       23.460     1288.948      794.314      550.387        0.953        0.132      128.134       18.577        0.021      342.799       18.461      865.071
07/18/2013  03:32:00     -129.660      -23.820       -2.921       33.294       31.630       26.558     1108.515     1000.460      705.310        1.010        0.141      131.830       23.340        0.031      342.659       18.224      865.054
07/18/2013  03:33:00     -126.891      -51.894       -2.550       28.621       17.665       13.389      819.155      312.038      179.266        1.006        0.066      137.092       11.981        0.008      342.664       18.232      865.045
07/18/2013  03:34:00       -4.722      -27.133       17.601       22.633       18.306       15.448      512.243      335.095      238.651        0.108        0.054       27.541       10.752        0.152      342.661       18.227      865.032
07/18/2013  03:35:00      -32.236      -23.768        5.908       32.034       19.504       19.080     1026.180      380.395      364.047        0.170        0.089       40.051       18.971        0.224      342.760       18.394      865.041
07/18/2013  03:36:00      -75.513       -5.867       -8.272       20.280       26.810       11.479      411.283      718.793      131.775        0.353        0.063       75.741        6.533        0.007      342.603       18.128      865.063
07/18/2013  03:37:00      -70.914       29.030       -7.229       34.813       16.895       13.641     1211.980      285.424      186.080        0.380        0.084       76.626       11.964        0.024      342.366       17.724      865.078
07/18/2013  03:38:00      -82.371       19.032       -2.237       21.529       13.312       10.362      463.506      177.206      107.373        0.395        0.037       84.541       10.714        0.016      342.503       17.958      865.104
07/18/2013  03:39:00      -74.660       -1.132       -0.754       20.451       18.448       14.397      418.242      340.329      207.262        0.327        0.048       74.669       13.502        0.033      342.499       17.951      865.124
07/18/2013  03:40:00      -50.936      -22.030        1.155       20.877       14.062       14.685      435.846      197.742      215.639        0.197        0.042       55.496       13.305        0.057      342.479       17.919      865.126
07/18/2013  03:41:00      -35.628      -38.475        5.452       34.117       35.655       20.477     1163.961     1271.287      419.326        0.282        0.143       52.437       22.797        0.189      342.560       18.056      865.126
07/18/2013  03:42:00      -65.855      -68.756        6.346       49.755       28.968       21.396     2475.587      839.117      457.790        0.644        0.189       95.207       17.095        0.032      342.516       17.980      865.124
07/18/2013  03:43:00     -111.239     -107.707        0.489       54.542       32.723       30.976     2974.856     1070.794      959.487        1.449        0.250      154.838       32.105        0.043      342.456       17.878      865.107
07/18/2013  03:44:00      -99.184      -90.424        1.569       55.463       38.723       32.908     3076.172     1499.448     1082.954        1.184        0.283      134.216       30.818        0.053      342.411       17.801      865.086
07/18/2013  03:45:00      -87.045      -95.743        0.689       48.940       44.335       32.096     2395.132     1965.566     1030.146        1.107        0.270      129.397       28.029        0.047      342.461       17.885      865.067
07/18/2013  03:46:00      -57.250      -60.246        3.355       45.755       55.775       27.710     2093.515     3110.842      767.831        0.644        0.299       83.109       26.943        0.105      342.443       17.855      865.060
07/18/2013  03:47:00      -74.759      -55.036        4.673       38.935       24.476       16.618     1515.920      599.065      276.159        0.551        0.120       92.833       19.304        0.043      342.464       17.894      865.042
07/18/2013  03:48:00      -98.200      -42.231       -2.742       28.149       26.721       19.261      792.392      714.017      370.993        0.666        0.094      106.896       13.239        0.015      342.452       17.871      865.033
07/18/2013  03:49:00     -119.115      -20.172       -7.023       33.038       37.575       18.113     1091.511     1411.851      328.075        0.874        0.142      120.811       13.984        0.013      342.334       17.669      865.048
07/18/2013  03:50:00     -125.556       -4.230       -5.639       35.813       21.756       23.230     1282.602      473.304      539.622        0.905        0.115      125.627       19.952        0.025      342.247       17.522      865.049
07/18/2013  03:51:00     -113.089      -39.045       -0.880       34.435       36.565       21.504     1185.746     1336.977      462.412        0.865        0.149      119.640       24.635        0.042      342.302       17.617      865.037
07/18/2013  03:52:00      -83.484      -55.075        1.361       39.465       35.280       21.220     1557.461     1244.711      450.291        0.663        0.163      100.014       16.420        0.027      342.362       17.718      865.043
07/18/2013  03:53:00      -29.091      -22.090        7.944       38.602       25.007       20.197     1490.127      625.358      407.936        0.196        0.126       36.527       15.862        0.189      342.307       17.624      865.053
07/18/2013  03:54:00      -91.627      -17.010       -8.207       28.919       16.933       16.002      836.332      286.715      256.060        0.507        0.069       93.193       13.830        0.022      342.390       17.764      865.077
07/18/2013  03:55:00      -87.865      -24.372      -12.481       16.613       16.152       13.410      275.976      260.873      179.824        0.459        0.036       91.183        7.566        0.007      342.358       17.711      865.088
07/18/2013  03:56:00      -65.575      -54.344        0.701       25.114       29.191       19.681      630.706      852.133      387.328        0.456        0.094       85.167       17.491        0.042      342.340       17.682      865.090
07/18/2013  03:57:00      -76.626      -70.783      -14.328       16.143       27.380       14.325      260.584      749.653      205.192        0.615        0.061      104.316       10.821        0.011      342.403       17.787      865.079
07/18/2013  03:58:00     -103.321      -53.379       -3.052       51.853       21.585       12.664     2688.720      465.915      160.364        0.842        0.166      116.294       11.427        0.010      342.389       17.765      865.061
07/18/2013  03:59:00      -62.365      -52.584        8.353       45.231       31.233       23.953     2045.865      975.515      573.737        0.516        0.180       81.575       20.937        0.066      342.277       17.575      865.065
07/18/2013  04:00:00      -71.597      -37.784        4.302       44.873       29.506       23.730     2013.624      870.622      563.131        0.501        0.172       80.955       24.862        0.094      342.214       17.467      865.054
07/18/2013  04:01:00      -39.906      -46.790        6.429       32.995       23.700       18.284     1088.655      561.708      334.312        0.290        0.099       61.497       18.111        0.087      342.296       17.605      865.049
07/18/2013  04:02:00      -15.055      -29.798       18.251       30.554       25.145       23.775      933.571      632.246      565.235        0.179        0.107       33.385       21.675        0.422      342.232       17.498      865.059
07/18/2013  04:03:00      -45.480      -55.365       -4.044       37.182       20.181       19.353     1382.530      407.287      374.529        0.366        0.108       71.650       22.895        0.102      342.318       17.642      865.076
07/18/2013  04:04:00      -33.224      -37.304        3.073       36.373       17.431       19.108     1322.971      303.850      365.111        0.225        0.100       49.954       19.810        0.157      342.340       17.680      865.085
07/18/2013  04:05:00      -59.435      -46.739       -3.920       30.393       20.888       15.852      923.754      436.308      251.289        0.367        0.081       75.611       18.167        0.058      342.356       17.707      865.111
07/18/2013  04:06:00      -98.015      -68.491       -4.705       31.639       25.156       11.667     1001.003      632.829      136.119        0.804        0.088      119.574        7.528        0.004      342.336       17.673      865.122
07/18/2013  04:07:00      -54.595      -35.954        2.753       38.113       25.121       15.211     1452.600      631.076      231.380        0.330        0.116       65.371       13.333        0.042      342.257       17.541      865.129
07/18/2013  04:08:00      -28.746      -36.224        4.487       27.868       14.316       13.770      776.628      204.954      189.607        0.166        0.059       46.244        9.451        0.042      342.269       17.560      865.130
07/18/2013  04:09:00       -2.796      -22.513        9.326       18.237       17.626       11.837      332.590      310.667      140.118        0.069        0.039       22.686        6.611        0.085      342.211       17.461      865.120
07/18/2013  04:10:00       -8.838      -32.972        9.418       32.141       19.861       19.735     1033.054      394.443      389.483        0.154        0.091       34.136       18.966        0.309      342.247       17.522      865.108
07/18/2013  04:11:00      -23.008      -53.369        7.347       24.568       22.708       16.531      603.573      515.663      273.261        0.241        0.070       58.117       11.785        0.041      342.198       17.439      865.120
07/18/2013  04:12:00      -20.937      -38.925        1.944       30.983       15.500       14.315      959.928      240.255      204.916        0.168        0.070       44.198       10.802        0.060      342.281       17.580      865.133
07/18/2013  04:13:00       -7.442      -29.594       -0.640       11.175       20.880        9.688      124.889      435.978       93.849        0.079        0.033       30.516        6.450        0.045      342.328       17.661      865.151
07/18/2013  04:14:00      -33.131      -83.831       -0.472       31.266       37.099       16.970      977.541     1376.312      287.986        0.538        0.132       90.141       11.742        0.017      342.398       17.779      865.166
07/18/2013  04:15:00      -64.292      -91.819       -3.723       33.124       31.595       17.238     1097.183      998.254      297.143        0.748        0.120      112.090       14.941        0.018      342.360       17.716      865.184
07/18/2013  04:16:00      -70.764      -50.782        6.466       56.371       37.403       26.694     3177.720     1399.014      712.545        0.646        0.264       87.099       29.217        0.113      342.290       17.596      865.186
07/18/2013  04:17:00     -105.969      -68.508        3.806       45.935       31.308       25.932     2110.014      980.160      672.481        0.985        0.188      126.185       26.034        0.043      342.238       17.509      865.167
07/18/2013  04:18:00     -106.613      -68.831        6.806       55.282       42.970       32.556     3056.152     1846.400     1059.862        1.106        0.298      126.902       29.873        0.055      342.170       17.391      865.147
07/18/2013  04:19:00      -95.681      -65.591        0.443       53.498       39.215       23.083     2862.045     1537.836      532.817        0.919        0.247      116.004       21.076        0.033      342.121       17.308      865.141
07/18/2013  04:20:00      -90.932      -87.835        0.720       50.058       41.390       28.853     2505.836     1713.125      832.505        1.052        0.253      126.426       27.005        0.046      342.111       17.292      865.125
07/18/2013  04:21:00      -95.213      -57.633       -1.024       60.403       22.434       19.165     3648.479      503.297      367.306        0.845        0.226      111.297        8.868        0.006      342.059       17.205      865.115
07/18/2013  04:22:00      -93.909     -110.063       -6.753       48.387       44.681       28.161     2341.270     1996.420      793.014        1.305        0.257      144.682       24.404        0.028      342.212       17.464      865.130
07/18/2013  04:23:00      -27.682      -57.929        0.166       45.499       28.110       21.950     2070.121      790.191      481.808        0.373        0.167       64.204       18.902        0.087      342.227       17.488      865.162
07/18/2013  04:24:00      -28.964      -52.537        5.274       39.565       31.505       16.529     1565.357      992.537      273.217        0.323        0.142       59.992       14.211        0.056      342.212       17.463      865.199
07/18/2013  04:25:00      -40.035      -86.197        1.732       33.697       38.110       24.630     1135.507     1452.376      606.628        0.611        0.160       95.040       17.710        0.035      342.196       17.436      865.214
07/18/2013  04:26:00      -96.318     -108.101       -4.168       42.868       42.885       22.331     1837.638     1839.134      498.668        1.258        0.209      144.786       10.371        0.005      342.229       17.493      865.218
07/18/2013  04:27:00     -114.109      -70.611       -4.584       45.067       45.826       26.112     2030.998     2100.000      681.832        1.142        0.241      134.189       23.998        0.032      342.134       17.332      865.209
07/18/2013  04:28:00     -126.990      -87.218        6.393       55.807       48.569       31.744     3114.377     2358.985     1007.699        1.513        0.324      154.056       29.062        0.036      342.087       17.251      865.190
07/18/2013  04:29:00     -106.206     -101.307        0.830       59.858       67.668       28.490     3582.925     4578.994      811.687        1.526        0.449      146.775       31.941        0.047      342.073       17.227      865.157
07/18/2013  04:30:00     -127.197      -49.853       -1.252       44.022       46.672       23.533     1937.941     2178.283      553.808        1.167        0.234      136.618       22.879        0.028      342.053       17.194      865.148
07/18/2013  04:31:00     -129.506      -71.226       -8.837       39.023       33.654       22.335     1522.788     1132.609      498.867        1.254        0.158      147.801       18.089        0.015      342.080       17.239      865.156
07/18/2013  04:32:00     -112.556      -49.960       -2.157       30.630       27.513       21.254      938.188      756.950      451.749        0.866        0.107      123.146       17.045        0.019      342.023       17.143      865.159
07/18/2013  04:33:00      -88.025      -77.298       -3.156       33.296       27.700       18.857     1108.637      767.273      355.578        0.798        0.112      117.146       15.998        0.019      342.070       17.221      865.171
07/18/2013  04:34:00      -99.187      -90.985        4.088       43.454       39.643       26.558     1888.262     1571.560      705.326        1.115        0.208      134.597       20.439        0.023      342.071       17.225      865.186
07/18/2013  04:35:00     -109.046      -99.214       -1.549       71.411       52.528       36.026     5099.480     2759.151     1297.903        1.544        0.458      147.426       36.535        0.061      342.016       17.128      865.188
07/18/2013  04:36:00     -131.325     -105.002      -13.426       56.609       42.870       31.328     3204.588     1837.869      981.457        1.724        0.301      168.142       29.749        0.031      342.031       17.154      865.198
07/18/2013  04:37:00     -115.540      -58.760       -9.563       37.568       40.690       20.945     1411.373     1655.715      438.690        1.020        0.175      129.623       17.199        0.018      341.973       17.058      865.213
07/18/2013  04:38:00     -128.017      -30.031       -3.301       43.470       38.191       25.012     1889.612     1458.530      625.602        1.064        0.199      131.492       17.426        0.018      341.892       16.920      865.231
07/18/2013  04:39:00     -135.747      -53.794       -9.248       28.150       23.290       13.429      792.440      542.416      180.346        1.146        0.076      146.017       10.055        0.005      341.886       16.909      865.232
07/18/2013  04:40:00     -111.000      -65.640       -6.565       44.166       27.320       18.552     1950.667      746.400      344.179        0.986        0.152      128.956       18.589        0.021      341.990       17.086      865.242
07/18/2013  04:41:00     -115.871      -18.424        0.439       31.133       22.623       21.025      969.241      511.821      442.040        0.784        0.096      117.327       18.003        0.024      341.940       17.003      865.258
07/18/2013  04:42:00     -100.478      -66.149       -5.126       60.160       38.038       25.049     3619.264     1446.927      627.458        1.009        0.285      120.298       28.293        0.055      341.910       16.949      865.253
07/18/2013  04:43:00     -134.316      -48.565       -9.504       38.439       27.950       24.493     1477.593      781.185      599.894        1.167        0.143      142.826       18.834        0.017      341.802       16.768      865.234
07/18/2013  04:44:00     -127.853      -40.650        0.539       38.089       31.575       23.849     1450.808      996.995      568.762        1.051        0.151      134.159       15.586        0.013      341.796       16.757      865.229
07/18/2013  04:45:00     -138.955      -49.960       -1.187       51.492       39.336       22.894     2651.400     1547.309      524.144        1.326        0.236      147.663       26.633        0.033      341.803       16.768      865.212
07/18/2013  04:46:00     -150.047      -60.935       -4.381       43.580       35.020       22.834     1899.241     1226.410      521.369        1.495        0.182      161.948       24.773        0.023      341.800       16.765      865.186
07/18/2013  04:47:00     -137.712      -46.476       -7.779       30.506       23.881       17.933      930.634      570.296      321.601        1.150        0.091      145.343       13.736        0.009      341.773       16.717      865.180
07/18/2013  04:48:00     -127.434      -26.938       -5.082       34.873       39.459       27.786     1216.156     1557.048      772.061        1.027        0.177      130.250       19.973        0.024      341.634       16.483      865.170
07/18/2013  04:49:00     -124.894       -7.400       -1.961       42.384       31.307       25.039     1796.414      980.125      626.932        0.953        0.170      125.113       25.800        0.043      341.521       16.290      865.165
07/18/2013  04:50:00     -127.014      -21.229       -7.403       43.437       29.636       25.129     1886.803      878.284      631.481        1.002        0.170      128.776       18.536        0.021      341.484       16.228      865.175
07/18/2013  04:51:00     -121.409      -28.642       -3.648       36.216       31.069       19.815     1311.608      965.289      392.617        0.912        0.133      124.742       18.626        0.022      341.527       16.302      865.196
07/18/2013  04:52:00     -149.536      -61.893       -1.540       42.544       27.290       16.618     1810.016      744.743      276.154        1.451        0.142      161.839       12.853        0.006      341.669       16.543      865.199
07/18/2013  04:53:00     -188.484      -60.752       -1.526       32.143       31.729       21.739     1033.153     1006.717      472.570        2.087        0.126      198.033       19.195        0.009      341.837       16.826      865.209
07/18/2013  04:54:00     -144.366     -100.108        0.544       57.595       43.157       28.206     3317.206     1862.547      795.580        1.842        0.299      175.679       29.517        0.028      341.820       16.797      865.203
07/18/2013  04:55:00     -116.624      -84.221       -4.266       48.864       41.598       28.170     2387.674     1730.401      793.543        1.281        0.246      143.855       23.207        0.026      341.861       16.868      865.186
07/18/2013  04:56:00     -116.674      -18.654        3.294       52.318       40.881       26.142     2737.200     1671.223      683.416        0.953        0.255      118.156       27.539        0.054      341.740       16.663      865.191
07/18/2013  04:57:00     -140.130      -64.381        1.847       34.409       34.223       23.936     1183.969     1171.247      572.947        1.336        0.146      154.212       21.201        0.019      341.685       16.569      865.198
07/18/2013  04:58:00     -122.537      -60.299        5.300       71.154       44.433       32.580     5062.863     1974.252     1061.443        1.339        0.405      136.569       35.467        0.067      341.640       16.493      865.199
07/18/2013  04:59:00     -117.359      -45.994        2.596       58.566       30.821       28.451     3430.012      949.954      809.446        1.054        0.259      126.050       28.286        0.050      341.635       16.485      865.224
07/18/2013  05:00:00     -130.141      -59.884       -1.582       37.817       33.115       19.522     1430.093     1096.587      381.119        1.172        0.145      143.258       19.378        0.018      341.657       16.523      865.242
07/18/2013  05:01:00     -136.960      -69.925       -1.592       44.301       26.118       20.054     1962.587      682.144      402.160        1.335        0.152      153.778       19.940        0.017      341.680       16.560      865.255
07/18/2013  05:02:00     -128.930      -69.931       -2.547       47.078       34.895       23.259     2216.300     1217.630      540.960        1.275        0.199      146.674       21.725        0.022      341.720       16.630      865.247
07/18/2013  05:03:00     -157.816      -30.381       -3.229       44.996       37.468       26.594     2024.622     1403.853      707.264        1.499        0.207      160.714       24.387        0.023      341.620       16.459      865.233
07/18/2013  05:04:00     -143.776      -45.363       -0.741       39.201       38.089       22.525     1536.688     1450.775      507.395        1.311        0.175      150.762       20.907        0.019      341.597       16.420      865.233
07/18/2013  05:05:00     -118.866      -41.198        2.423       50.566       44.328       24.488     2556.922     1964.981      599.654        1.048        0.256      125.803       27.186        0.047      341.615       16.451      865.241
07/18/2013  05:06:00     -108.957      -34.325        0.696       46.493       33.221       23.259     2161.557     1103.640      540.995        0.843        0.190      114.236       25.174        0.049      341.557       16.352      865.259
07/18/2013  05:07:00      -90.921      -23.999        1.177       40.419       29.117       18.545     1633.657      847.818      343.921        0.583        0.141       94.035       20.377        0.047      341.488       16.234      865.277
07/18/2013  05:08:00     -138.426      -50.755       -1.131       41.345       31.592       19.382     1709.450      998.023      375.678        1.241        0.154      147.437       18.517        0.016      341.477       16.217      865.287
07/18/2013  05:09:00     -151.059      -62.185        1.025       39.540       28.566       21.101     1563.412      815.993      445.263        1.476        0.141      163.358       21.581        0.017      341.530       16.307      865.294
07/18/2013  05:10:00     -141.945      -61.444       -3.239       27.621       28.497       18.561      762.897      812.086      344.521        1.293        0.096      154.673       18.880        0.015      341.524       16.295      865.303
07/18/2013  05:11:00      -90.994      -55.185        3.058       53.107       29.227       19.279     2820.329      854.206      371.685        0.769        0.202      106.420       24.025        0.051      341.543       16.329      865.298
07/18/2013  05:12:00      -96.896      -38.761       -0.797       52.835       27.095       15.889     2791.519      734.146      252.472        0.733        0.189      104.362       18.002        0.030      341.477       16.215      865.290
07/18/2013  05:13:00      -87.815      -69.966        0.762       40.026       34.493       21.975     1602.094     1189.793      482.896        0.794        0.164      112.280       17.329        0.024      341.492       16.242      865.281
07/18/2013  05:14:00      -81.839      -72.406        2.370       41.703       33.238       29.019     1739.111     1104.760      842.081        0.782        0.184      109.272       21.123        0.037      341.534       16.313      865.284
07/18/2013  05:15:00      -76.740      -59.889       -3.710       50.202       37.389       23.885     2520.215     1397.926      570.508        0.699        0.224       97.343       24.407        0.063      341.530       16.306      865.285
07/18/2013  05:16:00      -95.954      -48.569       -4.257       41.758       30.789       19.668     1743.762      947.989      386.849        0.733        0.154      107.546       14.239        0.018      341.474       16.211      865.281
07/18/2013  05:17:00     -101.447      -58.784       -3.464       32.730       30.134       21.183     1071.231      908.077      448.717        0.809        0.121      117.248       13.775        0.014      341.434       16.144      865.297
07/18/2013  05:18:00     -114.566      -24.151       -5.458       34.742       24.281       19.787     1207.006      589.585      391.524        0.796        0.109      117.084       20.050        0.029      341.451       16.173      865.304
07/18/2013  05:19:00      -82.346      -28.906        0.229       35.065       23.351       18.750     1229.585      545.275      351.576        0.487        0.106       87.272       17.648        0.041      341.440       16.154      865.323
07/18/2013  05:20:00      -81.183      -42.190       -3.279       35.307       21.802       16.768     1246.552      475.320      281.170        0.519        0.100       91.492       15.377        0.028      341.503       16.262      865.334
07/18/2013  05:21:00      -51.428      -44.079        6.975       41.105       22.698       20.270     1689.649      515.221      410.887        0.363        0.131       67.733       18.217        0.072      341.619       16.457      865.348
07/18/2013  05:22:00      -44.166      -36.757       12.048       41.804       31.696       17.472     1747.563     1004.649      305.271        0.325        0.153       57.461       17.619        0.094      341.563       16.361      865.364
07/18/2013  05:23:00      -77.341      -65.368       -3.189       25.735       20.413       15.617      662.305      416.688      243.876        0.579        0.066      101.265        8.143        0.006      341.586       16.400      865.357
07/18/2013  05:24:00      -91.546      -47.886        0.878       28.575       17.019       17.152      816.526      289.646      294.177        0.604        0.070      103.314       15.478        0.022      341.554       16.346      865.362
07/18/2013  05:25:00      -66.932      -45.575        3.498       23.588       22.791       13.466      556.411      519.445      181.325        0.391        0.063       80.975       11.625        0.021      341.476       16.215      865.370
07/18/2013  05:26:00      -56.393      -34.086        6.338       43.887       23.483       20.136     1926.052      551.455      405.444        0.363        0.144       65.894       23.463        0.127      341.496       16.248      865.377
07/18/2013  05:27:00      -68.505      -36.073        6.286       34.112       22.902       18.522     1163.656      524.503      343.070        0.403        0.102       77.422       15.480        0.040      341.490       16.237      865.391
07/18/2013  05:28:00      -48.584      -34.291        7.342       33.896       27.440       19.192     1148.955      752.967      368.342        0.293        0.114       59.467       18.687        0.099      341.673       16.550      865.400
07/18/2013  05:29:00      -35.078      -40.007        6.912       34.437       24.859       15.672     1185.875      617.977      245.605        0.246        0.102       53.207       17.029        0.102      341.684       16.569      865.403
07/18/2013  05:30:00      -37.017      -25.392        5.154       33.666       24.933       21.853     1133.404      621.634      477.548        0.214        0.112       44.889       20.937        0.218      341.547       16.337      865.419
07/18/2013  05:31:00      -88.454      -35.790        0.391       36.318       18.506       13.258     1319.003      342.478      175.782        0.547        0.092       95.421        8.383        0.008      341.495       16.246      865.433
07/18/2013  05:32:00      -95.902      -47.819       -0.311       24.482       24.783       15.844      599.347      614.188      251.034        0.647        0.073      107.163       12.048        0.013      341.513       16.276      865.436
07/18/2013  05:33:00     -111.603      -43.554       -6.432       14.169       17.405       11.418      200.768      302.929      130.364        0.751        0.032      119.801        5.580        0.002      341.525       16.297      865.429
07/18/2013  05:34:00     -100.457      -54.659       -6.015       26.050       17.212       15.420      678.627      296.246      237.787        0.716        0.061      114.364       12.129        0.011      341.544       16.330      865.435
07/18/2013  05:35:00      -86.304      -46.994        0.296       39.277       22.066       15.190     1542.699      486.915      230.725        0.596        0.113       98.269       16.526        0.028      341.533       16.311      865.450
07/18/2013  05:36:00     -103.052      -51.392        2.641       38.738       22.453       18.000     1500.640      504.139      323.988        0.780        0.116      115.156       17.136        0.022      341.523       16.293      865.447
07/18/2013  05:37:00     -114.263      -47.890       -2.828       31.767       17.746       16.495     1009.157      314.928      272.098        0.848        0.080      123.893        9.569        0.006      341.436       16.147      865.441
07/18/2013  05:38:00     -124.476      -59.349       -4.412       22.991       17.785       15.829      528.598      316.323      250.551        1.007        0.055      137.901       11.122        0.007      341.485       16.230      865.429
07/18/2013  05:39:00     -127.897      -38.315       -4.914       31.064       21.193       17.668      964.971      449.150      312.147        0.979        0.086      133.513       15.836        0.014      341.413       16.108      865.425
07/18/2013  05:40:00     -136.320      -44.344       -2.936       30.963       20.947       15.221      958.720      438.796      231.676        1.109        0.081      143.351        8.301        0.003      341.346       15.995      865.416
07/18/2013  05:41:00     -122.427      -60.537       -7.063       21.401       20.996       17.605      458.023      440.849      309.953        0.996        0.060      136.577       12.035        0.008      341.325       15.960      865.419
07/18/2013  05:42:00     -124.632      -41.002       -6.133       29.004       21.012       14.243      841.260      441.488      202.873        0.937        0.074      131.203       16.058        0.015      341.341       15.985      865.423
07/18/2013  05:43:00     -111.091      -47.781       -2.047       23.178       21.503       20.102      537.227      462.388      404.109        0.802        0.070      120.931       15.683        0.017      341.343       15.989      865.429
07/18/2013  05:44:00     -133.543      -34.362       -5.050       42.566       34.314       18.852     1811.875     1177.472      355.383        1.119        0.167      137.893       15.575        0.013      341.341       15.986      865.435
07/18/2013  05:45:00     -152.098      -27.471       -3.585       38.956       30.449       21.867     1517.599      927.167      478.183        1.341        0.146      154.559       21.709        0.020      341.317       15.945      865.444
07/18/2013  05:46:00     -167.649      -56.108       -6.559       41.077       32.254       20.997     1687.287     1040.334      440.883        1.723        0.158      176.789       17.753        0.010      341.257       15.845      865.461
07/18/2013  05:47:00     -112.384      -51.749        0.038       49.311       29.987       23.160     2431.600      899.232      536.388        0.959        0.193      123.726       24.385        0.039      341.272       15.870      865.466
07/18/2013  05:48:00     -119.282      -41.611      -21.939       23.709       17.958       14.399      562.104      322.498      207.332        0.877        0.055      126.332       13.433        0.011      341.249       15.830      865.471
07/18/2013  05:49:00     -109.559      -37.067       -9.194       27.560       26.261       17.185      759.564      689.657      295.320        0.760        0.087      115.659       16.871        0.021      341.156       15.674      865.464
07/18/2013  05:50:00     -116.257      -44.912      -11.546       14.757       12.557       10.211      217.761      157.674      104.261        0.807        0.024      124.630        6.860        0.003      341.209       15.764      865.463
07/18/2013  05:51:00     -105.069      -45.469       -9.211       21.538       17.592       15.041      463.895      309.492      226.239        0.710        0.050      114.486       12.860        0.013      341.252       15.836      865.454
07/18/2013  05:52:00     -107.486      -41.431       -8.519       16.085       24.257       10.872      258.736      588.407      118.204        0.715        0.048      115.194        5.509        0.002      341.326       15.962      865.456
07/18/2013  05:53:00      -87.104      -70.057       -2.884       30.796       25.653       17.917      948.422      658.059      321.035        0.722        0.096      111.782       10.922        0.010      341.323       15.955      865.466
07/18/2013  05:54:00     -100.937      -49.063        1.276       29.815       23.608       13.533      888.920      557.354      183.151        0.711        0.081      112.230       10.956        0.010      341.259       15.847      865.473
07/18/2013  05:55:00     -109.971      -30.090       -4.397       33.041       24.262       13.085     1091.703      588.624      171.223        0.743        0.093      114.014       12.868        0.013      341.285       15.891      865.479
07/18/2013  05:56:00     -102.160      -29.150       -9.225       14.830       11.809       10.024      219.935      139.463      100.488        0.592        0.023      106.237        5.108        0.002      341.336       15.979      865.479
07/18/2013  05:57:00      -69.068      -57.551       -3.574       28.165       17.430       14.589      793.273      303.799      212.832        0.470        0.065       89.903       11.828        0.017      341.394       16.076      865.490
07/18/2013  05:58:00      -72.716      -63.566       -3.472       43.565       29.396       22.106     1897.940      864.140      488.691        0.629        0.163       96.582       24.917        0.067      341.385       16.059      865.490
07/18/2013  05:59:00      -72.545      -54.497        2.281       51.883       29.578       21.500     2691.857      874.846      462.258        0.613        0.201       90.735       23.220        0.065      341.383       16.056      865.500
07/18/2013  06:00:00      -88.581      -53.789       -2.000       27.000       21.245       17.245      729.016      451.330      297.401        0.611        0.074      103.633       14.268        0.019      341.417       16.115      865.521
07/18/2013  06:01:00      -68.247      -39.837        2.915       32.646       26.073       18.114     1065.788      679.786      328.110        0.416        0.104       79.023       13.474        0.029      341.361       16.020      865.538
07/18/2013  06:02:00      -34.456      -34.487        4.768       33.692       21.939       19.433     1135.157      481.308      377.654        0.220        0.100       48.750       21.909        0.202      341.398       16.083      865.539
07/18/2013  06:03:00      -19.408      -30.319       -1.402       39.365       32.411       19.151     1549.600     1050.446      366.776        0.213        0.148       35.999       14.072        0.153      341.467       16.199      865.544
07/18/2013  06:04:00      -46.787      -35.440        4.983       44.126       24.211       23.250     1947.067      586.160      540.554        0.327        0.154       58.694       28.622        0.238      341.491       16.240      865.554
07/18/2013  06:05:00      -74.544      -32.149        0.444       26.290       20.166       18.281      691.169      406.660      334.208        0.401        0.072       81.181       16.567        0.042      341.382       16.056      865.559
07/18/2013  06:06:00      -78.627      -44.625       -0.889       21.779       19.561       12.179      474.346      382.622      148.326        0.459        0.050       90.408        7.149        0.006      341.414       16.111      865.576
07/18/2013  06:07:00      -26.742      -31.068       -0.863       34.736       27.371       21.084     1206.598      749.150      444.530        0.204        0.120       40.992       22.456        0.300      341.454       16.177      865.583
07/18/2013  06:08:00     -103.919      -81.425       -0.469       48.815       35.712       25.676     2382.909     1275.338      659.275        1.087        0.216      132.019       21.432        0.026      341.453       16.176      865.585
07/18/2013  06:09:00     -129.795     -121.955      -10.271       44.655       31.250       20.965     1994.090      976.536      439.532        1.762        0.171      178.100       13.948        0.006      341.583       16.394      865.577
07/18/2013  06:10:00     -116.538     -106.441       -7.002       58.994       56.659       27.204     3480.296     3210.204      740.076        1.619        0.372      157.832       28.139        0.032      341.533       16.310      865.577
07/18/2013  06:11:00     -136.901     -104.189       -7.266       49.866       52.610       28.411     2486.586     2767.788      807.208        1.785        0.303      172.039       31.669        0.034      341.572       16.376      865.570
07/18/2013  06:12:00      -87.238      -54.056       10.377       65.159       43.759       28.018     4245.681     1914.825      785.013        0.879        0.347      102.628       32.323        0.099      341.491       16.240      865.565
07/18/2013  06:13:00     -143.703     -106.090       -8.230       59.082       37.629       32.257     3490.631     1415.951     1040.513        1.896        0.297      178.622       27.775        0.024      341.447       16.164      865.558
07/18/2013  06:14:00     -166.318     -116.368       -5.436       36.795       37.383       25.668     1353.865     1397.487      658.868        2.232        0.171      202.986       17.107        0.007      341.374       16.038      865.559
07/18/2013  06:15:00     -128.484      -63.895       -1.074       39.000       40.511       24.053     1521.036     1641.166      578.534        1.217        0.187      143.495       20.767        0.021      341.347       15.997      865.562
07/18/2013  06:16:00      -87.618      -54.169       -5.023       43.102       34.855       21.149     1857.806     1214.893      447.283        0.708        0.176      103.011       21.583        0.044      341.392       16.072      865.561
07/18/2013  06:17:00     -100.488      -55.804       -8.882       28.758       29.274       15.394      827.020      856.984      236.975        0.761        0.096      114.943       11.000        0.009      341.421       16.121      865.558
07/18/2013  06:18:00     -116.373      -44.492       -2.322       27.370       23.074       16.421      749.127      532.403      269.648        0.854        0.078      124.588       11.454        0.008      341.398       16.082      865.561
07/18/2013  06:19:00      -81.177      -49.072       -3.547       30.478       23.621       16.448      928.927      557.968      270.528        0.538        0.088       94.856       12.918        0.019      341.395       16.077      865.563
07/18/2013  06:20:00     -153.167      -36.066      -16.460       32.266       25.542       15.981     1041.085      652.386      255.406        1.349        0.097      157.356        4.933        0.001      341.385       16.061      865.571
07/18/2013  06:21:00     -167.941      -29.336       -9.488       23.135       21.908       15.621      535.225      479.963      244.031        1.521        0.063      170.484       11.570        0.005      341.330       15.967      865.568
07/18/2013  06:22:00     -130.583      -38.388       -1.842       46.387       27.186       20.819     2151.732      739.095      433.442        1.093        0.166      136.109       17.683        0.017      341.370       16.035      865.561
07/18/2013  06:23:00     -109.028      -28.259        4.079       37.391       24.124       23.548     1398.092      581.943      554.520        0.762        0.127      112.631       22.376        0.039      341.342       15.986      865.566
07/18/2013  06:24:00     -110.650      -42.498       -6.305       32.870       27.386       17.873     1080.429      749.983      319.440        0.812        0.107      118.530       17.818        0.023      341.346       15.996      865.585
07/18/2013  06:25:00      -66.953      -43.763        1.044       49.439       50.426       23.130     2444.238     2542.736      535.015        0.596        0.276       79.986       24.070        0.091      341.443       16.159      865.592
07/18/2013  06:26:00     -107.461      -22.841       -8.377       24.740       26.270       18.892      612.079      690.103      356.909        0.690        0.083      109.861       15.689        0.020      341.401       16.087      865.596
07/18/2013  06:27:00     -117.730      -32.015       -9.882       32.636       30.302       15.142     1065.138      918.181      229.271        0.860        0.111      122.005       15.441        0.016      341.499       16.253      865.611
07/18/2013  06:28:00      -82.748      -45.479       -0.577       33.889       29.382       15.774     1148.470      863.294      248.819        0.559        0.113       94.423       13.308        0.020      341.429       16.134      865.622
07/18/2013  06:29:00      -76.715      -54.266       -1.357       24.853       20.671       14.191      617.680      427.289      201.373        0.504        0.062       93.968       14.391        0.023      341.448       16.166      865.620
07/18/2013  06:30:00      -79.291      -49.613       -3.437       26.025       18.883       17.845      677.315      356.552      318.449        0.506        0.068       93.534       16.695        0.032      341.484       16.228      865.624
07/18/2013  06:31:00      -66.100      -54.275       -2.423       26.417       24.325       16.039      697.854      591.708      257.252        0.443        0.077       85.528       11.829        0.019      341.542       16.327      865.620
07/18/2013  06:32:00      -21.891      -26.312        0.503       30.441       24.571       16.543      926.675      603.712      273.664        0.149        0.090       34.227       17.470        0.261      341.611       16.443      865.605
07/18/2013  06:33:00      -40.597      -55.336        1.916       31.690       22.597       19.723     1004.261      510.620      388.989        0.331        0.095       68.631       16.304        0.056      341.564       16.364      865.607
07/18/2013  06:34:00       -5.806      -34.831       13.635       45.134       32.257       30.980     2037.104     1040.531      959.783        0.273        0.202       35.312       28.977        0.673      341.584       16.397      865.602
07/18/2013  06:35:00      -32.052      -42.447        8.872       38.568       27.942       22.884     1487.488      780.758      523.697        0.285        0.140       53.189       20.790        0.153      341.514       16.278      865.599
07/18/2013  06:36:00      -48.537      -57.768       -1.240       40.715       30.617       23.857     1657.679      937.412      569.165        0.443        0.158       75.452       22.680        0.090      341.560       16.359      865.602
07/18/2013  06:37:00      -73.746      -55.262       -2.891       36.035       28.389       22.769     1298.543      805.941      518.425        0.556        0.131       92.154       21.234        0.053      341.579       16.389      865.590
07/18/2013  06:38:00      -54.443      -45.228        4.811       30.576       28.028       23.098      934.862      785.564      533.504        0.364        0.113       70.779       18.323        0.067      341.561       16.360      865.592
07/18/2013  06:39:00      -66.766      -61.311       -0.224       32.798       27.672       20.464     1075.701      765.764      418.756        0.524        0.113       90.646       19.518        0.046      341.608       16.440      865.590
07/18/2013  06:40:00      -70.823      -41.429       -4.599       39.508       20.805       18.891     1560.844      432.864      356.881        0.455        0.118       82.051       20.116        0.060      341.627       16.470      865.586
07/18/2013  06:41:00      -37.736      -29.945        8.487       40.695       24.425       18.778     1656.109      596.583      352.600        0.250        0.130       48.174       22.618        0.220      341.875       16.892      865.593
07/18/2013  06:42:00      -16.162      -28.801       13.360       27.092       25.806       22.244      733.968      665.969      494.776        0.158        0.095       33.026       18.866        0.326      341.808       16.780      865.594
07/18/2013  06:43:00      -52.101      -74.827        5.220       37.546       31.686       18.232     1409.720     1004.031      332.411        0.554        0.137       91.179       17.990        0.039      341.627       16.471      865.600
07/18/2013  06:44:00      -25.842      -45.909       12.997       34.866       34.130       23.417     1215.613     1164.886      548.362        0.294        0.146       52.682       19.904        0.143      341.693       16.584      865.601
07/18/2013  06:45:00      -55.885      -67.586       -0.076       40.935       34.875       21.453     1675.675     1216.266      460.232        0.552        0.168       87.699       24.358        0.077      341.621       16.459      865.611
07/18/2013  06:46:00      -60.541      -59.553        2.644       43.927       30.774       20.384     1929.549      947.066      415.519        0.525        0.165       84.922       24.182        0.081      341.685       16.570      865.607
07/18/2013  06:47:00      -49.024      -62.528        8.056       40.398       34.936       24.310     1631.979     1220.500      590.988        0.491        0.172       79.455       26.524        0.111      341.757       16.691      865.613
07/18/2013  06:48:00      -56.587      -54.418        6.101       41.435       32.228       26.115     1716.858     1038.623      681.982        0.482        0.172       78.507       29.656        0.143      341.770       16.713      865.618
07/18/2013  06:49:00      -60.755      -78.659        4.730       37.621       30.540       26.585     1415.354      932.681      706.771        0.648        0.153       99.390       24.822        0.062      341.725       16.636      865.620
07/18/2013  06:50:00      -62.642      -56.292       -1.271       44.646       32.674       17.384     1993.247     1067.567      302.212        0.523        0.168       84.219       18.120        0.046      341.774       16.720      865.622
07/18/2013  06:51:00      -60.609      -69.726        4.619       29.331       34.172       22.512      860.286     1167.723      506.780        0.555        0.127       92.386       19.963        0.047      341.785       16.738      865.630
07/18/2013  06:52:00      -68.784      -76.520        0.771       41.402       34.940       21.680     1714.153     1220.815      470.004        0.700        0.170      102.891       25.836        0.063      341.801       16.766      865.637
07/18/2013  06:53:00      -55.666      -60.296        2.910       43.180       28.017       21.086     1864.477      784.931      444.638        0.492        0.155       82.063       22.661        0.076      341.909       16.950      865.650
07/18/2013  06:54:00      -43.544      -51.251        0.024       30.337       25.829       22.806      920.363      667.139      520.102        0.331        0.105       67.252       18.724        0.078      341.949       17.016      865.660
07/18/2013  06:55:00      -53.144      -85.377       -6.863       20.458       17.819       12.665      418.513      317.533      160.408        0.553        0.045      100.566        8.534        0.007      341.867       16.877      865.667
07/18/2013  06:56:00      -46.885      -67.044       -2.285       16.161       25.504       13.096      261.191      650.465      171.510        0.389        0.054       81.811       12.996        0.025      341.908       16.948      865.669
07/18/2013  06:57:00      -19.791      -43.688        5.456       19.339       24.452       13.426      374.007      597.914      180.267        0.174        0.058       47.962       14.093        0.086      342.130       17.325      865.681
07/18/2013  06:58:00      -17.794      -32.583        4.523       25.147       16.991       12.581      632.389      288.682      158.275        0.124        0.054       37.126       14.725        0.157      342.120       17.308      865.677
07/18/2013  06:59:00      -36.217      -40.396       -8.802       22.415       15.013       12.761      502.452      225.399      162.843        0.196        0.045       54.254       10.981        0.041      342.135       17.333      865.676
07/18/2013  07:00:00      -11.036      -47.133        0.365       16.858       19.369       15.227      284.188      375.149      231.868        0.162        0.045       48.408        8.295        0.029      342.152       17.361      865.682
07/18/2013  07:01:00      -28.348      -33.965        1.301       16.660       17.855       15.661      277.568      318.818      245.275        0.140        0.042       44.241        9.505        0.046      342.062       17.208      865.687
07/18/2013  07:02:00      -41.685      -45.512       -7.526       18.237       21.139       10.197      332.573      446.871      103.986        0.237        0.044       61.717        9.120        0.022      342.047       17.182      865.700
07/18/2013  07:03:00      -18.843      -41.534       -4.450       25.852       15.740       12.795      668.314      247.750      163.715        0.159        0.054       45.609        7.430        0.027      342.080       17.241      865.700
07/18/2013  07:04:00      -27.041      -22.797       -7.275       25.162       15.852       14.316      633.103      251.286      204.955        0.120        0.054       35.368        9.589        0.073      341.972       17.056      865.707
07/18/2013  07:05:00       10.577      -18.934       -3.660       17.967       16.637       19.425      322.809      276.784      377.316        0.073        0.049       21.689       13.261        0.374      342.026       17.148      865.711
07/18/2013  07:06:00        1.232      -23.046      -11.578       32.421       24.142       24.372     1051.104      582.837      593.976        0.145        0.111       23.078       10.712        0.215      341.949       17.018      865.706
07/18/2013  07:07:00       14.205      -28.164        6.906       21.065       18.418       20.639      443.753      339.224      425.984        0.113        0.060       31.543        7.308        0.054      342.025       17.147      865.718
07/18/2013  07:08:00       10.036      -14.350        5.105       16.116       18.914       19.819      259.736      357.723      392.784        0.067        0.051       17.511       10.866        0.385      342.185       17.417      865.718
07/18/2013  07:09:00        5.188        8.986       24.939       21.916       17.456       17.332      480.327      304.705      300.405        0.091        0.054       10.376       13.507        1.695      342.485       17.928      865.717
07/18/2013  07:10:00      -23.179      -14.009        7.524       18.855       17.724       14.730      355.499      314.124      216.970        0.084        0.044       27.083       10.422        0.148      342.614       18.148      865.705
07/18/2013  07:11:00      -51.769      -47.432        0.357       34.478       36.825       21.541     1188.754     1356.108      464.025        0.397        0.150       70.213       22.079        0.099      342.431       17.836      865.702
07/18/2013  07:12:00      -29.380      -34.681        4.038       18.862       31.162       17.754      355.792      971.054      315.189        0.186        0.082       45.452       16.477        0.131      342.673       18.248      865.704
07/18/2013  07:13:00      -63.290      -64.360       -3.192       25.355       22.212       15.265      642.880      493.370      233.030        0.476        0.068       90.266       13.689        0.023      342.368       17.730      865.700
07/18/2013  07:14:00      -54.022      -79.761       -0.451       21.884       32.271       10.005      478.915     1041.439      100.098        0.545        0.081       96.334        8.785        0.008      342.364       17.721      865.700
07/18/2013  07:15:00      -50.440      -35.989        5.575       28.031       21.179       16.638      785.735      448.546      276.831        0.269        0.076       61.963        4.796        0.006      342.469       17.900      865.700
07/18/2013  07:16:00      -80.359      -57.067       -6.396       22.572       21.720       16.087      509.508      471.748      258.777        0.550        0.062       98.560        8.878        0.008      342.425       17.827      865.695
07/18/2013  07:17:00      -50.800      -73.259        0.953       30.966       28.204       18.296      958.900      795.471      334.759        0.502        0.104       89.149       18.820        0.045      342.517       17.983      865.693
07/18/2013  07:18:00      -64.281      -48.520       -6.061       37.690       28.667       20.066     1420.515      821.773      402.631        0.458        0.132       80.537       22.144        0.076      342.609       18.140      865.687
07/18/2013  07:19:00      -40.203      -43.185        2.963       18.864       29.277       14.934      355.868      857.155      223.023        0.246        0.072       59.001       13.285        0.051      342.581       18.092      865.679
07/18/2013  07:20:00      -40.852      -34.179        8.875       37.868       24.959       18.920     1434.003      622.967      357.973        0.266        0.121       53.264       21.285        0.160      342.704       18.301      865.677
07/18/2013  07:21:00     -102.471      -79.440       -6.832       31.819       37.836       22.606     1012.451     1431.578      511.033        0.991        0.148      129.658       20.244        0.024      342.528       18.000      865.666
07/18/2013  07:22:00      -97.896      -82.612        0.087       28.817       29.755       16.871      830.430      885.340      284.617        0.920        0.100      128.095       12.615        0.010      342.524       17.993      865.653
07/18/2013  07:23:00      -84.663      -54.332       -0.853       33.255       25.965       21.879     1105.867      674.169      478.711        0.619        0.113      100.597       16.181        0.026      342.535       18.013      865.641
07/18/2013  07:24:00      -96.063      -89.796       -1.733       32.697       27.351       21.099     1069.112      748.082      445.150        0.978        0.113      131.497       18.123        0.019      342.551       18.040      865.630
07/18/2013  07:25:00      -89.358      -81.052       -4.891       27.009       29.594       20.667      729.501      875.818      427.117        0.830        0.102      120.641       20.198        0.028      342.595       18.116      865.617
07/18/2013  07:26:00      -59.050      -47.589        3.117       40.984       30.563       21.056     1679.674      934.079      443.372        0.441        0.153       75.839       22.553        0.088      342.735       18.353      865.612
07/18/2013  07:27:00      -65.884      -79.002       -1.321       24.281       22.771       18.003      589.547      518.531      324.115        0.601        0.072      102.868       17.622        0.029      342.698       18.288      865.612
07/18/2013  07:28:00      -22.839      -69.806       -3.061       29.390       27.665       17.098      863.772      765.364      292.356        0.366        0.096       73.447       13.445        0.034      342.797       18.458      865.612
07/18/2013  07:29:00      -23.684      -48.329        6.527       30.522       39.446       23.268      931.620     1555.965      541.389        0.298        0.151       53.820       23.618        0.193      342.888       18.614      865.608
07/18/2013  07:30:00      -47.213      -51.719        0.173       20.586       23.650       13.613      423.796      559.340      185.316        0.304        0.058       70.028       10.355        0.022      342.786       18.439      865.605
07/18/2013  07:31:00      -46.261      -43.087        3.059       37.860       26.048       21.407     1433.381      678.518      458.278        0.329        0.129       63.218       20.497        0.105      342.866       18.576      865.606
07/18/2013  07:32:00      -29.960      -42.960       -1.942       20.097       16.687       11.223      403.900      278.459      125.957        0.178        0.040       52.375        9.490        0.033      342.827       18.508      865.617
07/18/2013  07:33:00      -12.164      -43.061        4.599       19.911       22.852       12.798      396.442      522.215      163.779        0.155        0.054       44.746       13.811        0.095      342.864       18.574      865.614
07/18/2013  07:34:00      -24.342      -10.087       -0.306       17.098        7.533        8.015      292.343       56.748       64.233        0.055        0.021       26.349        3.099        0.014      342.948       18.714      865.619
07/18/2013  07:35:00        2.931       -6.885        8.432       16.400       14.234       19.688      268.959      202.616      387.632        0.049        0.043        7.483       10.060        1.808      343.628       19.873      865.630
07/18/2013  07:36:00      -18.272       -7.264        5.092       22.420       27.351       20.121      502.655      748.055      404.858        0.103        0.083       19.663       13.378        0.463      343.266       19.257      865.633
07/18/2013  07:37:00      -21.165      -21.804        3.838       24.213       22.091       19.444      586.276      488.007      378.082        0.119        0.073       30.387       13.714        0.204      343.183       19.115      865.644
07/18/2013  07:38:00      -30.382      -37.791       -5.584       11.837       15.115       10.959      140.117      228.460      120.092        0.144        0.024       48.489        4.263        0.008      342.937       18.695      865.652
07/18/2013  07:39:00      -26.195      -14.020        0.761       10.555       17.575       10.229      111.408      308.894      104.624        0.070        0.026       29.711        8.856        0.089      343.031       18.858      865.652
07/18/2013  07:40:00        4.304       10.668       24.261       20.970       21.037       23.995      439.750      442.549      575.776        0.109        0.073       11.504       10.449        0.825      343.708       20.011      865.651
07/18/2013  07:41:00       32.786      -23.463        5.077       28.723       18.809       21.786      825.021      353.765      474.611        0.165        0.083       40.317       13.416        0.111      342.820       18.497      865.662
07/18/2013  07:42:00       15.613       -2.589        0.911       31.608       27.067       24.527      999.069      732.639      601.580        0.129        0.117       15.826        5.016        0.100      343.042       18.876      865.670
07/18/2013  07:43:00      -15.383       -2.461        5.766       12.548        9.755       14.003      157.446       95.165      196.079        0.036        0.022       15.579        9.578        0.378      343.431       19.538      865.674
07/18/2013  07:44:00      -10.161        4.901       -1.503       18.000       19.159       22.969      323.985      367.075      527.575        0.067        0.061       11.281        9.746        0.746      343.394       19.475      865.678
07/18/2013  07:45:00       10.269       -6.269       16.256       22.505       14.711       22.882      506.497      216.428      523.576        0.083        0.062       12.031       10.879        0.818      343.501       19.658      865.687
07/18/2013  07:46:00       32.316      -31.528        9.329       25.079       33.742       31.219      628.940     1138.550      974.627        0.243        0.137       45.148       20.917        0.215      343.152       19.063      865.681
07/18/2013  07:47:00       32.312       -4.501       23.527       33.128       26.606       28.390     1097.438      707.870      805.988        0.211        0.131       32.624       24.533        0.566      343.304       19.322      865.686
07/18/2013  07:48:00       47.715      -38.537       15.920       30.345       28.157       24.376      920.823      792.812      594.204        0.316        0.115       61.333       19.834        0.105      343.140       19.043      865.686
07/18/2013  07:49:00       49.322      -11.957       24.448       37.050       38.135       32.115     1372.711     1454.306     1031.392        0.352        0.193       50.750       21.770        0.184      343.170       19.095      865.695
07/18/2013  07:50:00       53.035      -33.745        6.186       24.781       28.391       22.039      614.094      806.061      485.711        0.295        0.095       62.860       11.816        0.035      342.874       18.588      865.709
07/18/2013  07:51:00       26.251      -11.937        9.863       32.929       32.286       28.111     1084.336     1042.393      790.205        0.192        0.146       28.838       25.490        0.781      343.427       19.533      865.718
07/18/2013  07:52:00       33.865      -16.215       12.161       33.946       26.890       23.310     1152.336      723.066      543.335        0.199        0.121       37.547       23.101        0.379      343.424       19.527      865.717
07/18/2013  07:53:00       26.389       -0.125       28.783       35.625       23.469       21.194     1269.133      550.796      449.204        0.190        0.113       26.389       16.641        0.398      343.401       19.487      865.713
07/18/2013  07:54:00       19.050        9.191       33.580       29.188       23.413       25.124      851.919      548.171      631.218        0.180        0.102       21.151       21.971        1.079      343.435       19.543      865.718
07/18/2013  07:55:00       19.010        5.840       11.780       28.278       19.744       26.702      799.654      389.843      712.982        0.122        0.095       19.887       16.623        0.699      343.743       20.070      865.716
07/18/2013  07:56:00       23.343      -17.751       30.752       28.002       43.534       25.524      784.106     1895.205      651.459        0.257        0.167       29.325       19.449        0.440      343.793       20.154      865.721
07/18/2013  07:57:00       20.155      -31.777       22.150       20.904       36.986       22.308      436.963     1367.928      497.629        0.210        0.115       37.629       12.468        0.110      343.517       19.684      865.731
07/18/2013  07:58:00       -3.084       11.765       25.374       20.554       18.617       14.506      422.481      346.590      210.429        0.089        0.049       12.162       11.052        0.826      344.184       20.824      865.739
07/18/2013  07:59:00      -10.330        8.464       23.402       17.239       15.831       15.483      297.191      250.615      239.717        0.076        0.039       13.354        8.566        0.411      344.165       20.791      865.739
07/18/2013  08:00:00       41.776      -37.190        9.957       32.162       34.015       31.610     1034.391     1157.047      999.200        0.321        0.160       55.931       23.704        0.180      343.345       19.393      865.747
07/18/2013  08:01:00       34.975      -16.975       15.577       34.345       30.125       35.124     1179.554      907.515     1233.725        0.254        0.166       38.877       26.677        0.471      343.591       19.813      865.741
07/18/2013  08:02:00       26.546        6.337       26.796       40.381       23.630       21.892     1630.660      558.367      479.276        0.207        0.133       27.292       18.842        0.477      343.960       20.440      865.737
07/18/2013  08:03:00       57.267       -8.825       18.292       49.397       39.204       28.282     2440.105     1536.916      799.866        0.423        0.239       57.943       28.301        0.239      343.454       19.578      865.745
07/18/2013  08:04:00       29.852       -3.460       -1.612       31.034       25.628       19.615      963.128      656.807      384.765        0.145        0.100       30.052        6.208        0.043      343.489       19.637      865.742
07/18/2013  08:05:00       -2.150       -9.168       11.559       15.537       17.046       17.028      241.388      290.557      289.963        0.052        0.041        9.417        9.976        1.122      343.833       20.224      865.750
07/18/2013  08:06:00       35.583      -21.600       13.298       30.876       35.505       26.923      953.309     1260.576      724.856        0.242        0.147       41.626       25.548        0.377      343.716       20.023      865.754
07/18/2013  08:07:00       16.136      -22.741        4.673       21.592       18.446       24.364      466.236      340.238      593.599        0.110        0.070       27.884       13.935        0.250      343.801       20.171      865.751
07/18/2013  08:08:00        3.950       -7.063       15.250       21.249       17.076       19.788      451.504      291.585      391.547        0.072        0.057        8.092       16.842        4.332      343.976       20.468      865.753
07/18/2013  08:09:00        7.661        8.409      -12.151       18.292       19.546       26.350      334.600      382.059      694.303        0.084        0.071       11.375       15.514        1.860      343.918       20.370      865.746
07/18/2013  08:10:00       -9.110       -0.497        2.106       30.676       24.129       22.722      941.011      582.190      516.310        0.106        0.102        9.123       13.500        2.190      343.776       20.127      865.753
07/18/2013  08:11:00      -32.909      -18.136       11.472       22.458       15.784       19.817      504.362      249.120      392.712        0.134        0.057       37.575       11.535        0.094      343.782       20.136      865.754
07/18/2013  08:12:00        0.093      -15.698       25.033       31.225       24.704       31.052      974.978      610.303      964.248        0.171        0.127       15.698       18.810        1.436      344.157       20.777      865.762
07/18/2013  08:13:00       19.584       15.288       24.998       28.226       21.585       20.426      796.689      465.904      417.218        0.146        0.084       24.845       15.569        0.393      344.687       21.683      865.773
07/18/2013  08:14:00       -2.009      -12.020        8.179       19.637       31.739       20.640      385.617     1007.353      426.023        0.102        0.091       12.187       11.719        0.925      344.066       20.621      865.777
07/18/2013  08:15:00       22.659       29.276       -1.510       19.080       36.710       26.158      364.045     1347.654      684.216        0.188        0.120       37.020       26.548        0.514      344.109       20.696      865.787
07/18/2013  08:16:00       29.196      -11.964       18.173       27.914       36.132       21.265      779.207     1305.503      452.193        0.193        0.127       31.553       20.082        0.405      343.892       20.324      865.796
07/18/2013  08:17:00       21.031      -16.151       10.192       22.100       25.188       28.819      488.389      634.411      830.527        0.138        0.098       26.517       18.604        0.492      344.184       20.826      865.799
07/18/2013  08:18:00      -12.395       -0.767       28.521       17.508       22.268       19.542      306.545      495.849      381.900        0.108        0.059       12.419       17.532        1.993      344.582       21.502      865.810
07/18/2013  08:19:00       31.417       -3.221        1.172       24.018       22.907       23.616      576.877      524.731      557.727        0.133        0.083       31.582       10.923        0.120      343.775       20.125      865.805
07/18/2013  08:20:00       27.915       -3.725        2.429       29.229       16.600       24.907      854.333      275.563      620.353        0.127        0.088       28.163       11.387        0.163      343.879       20.303      865.817
07/18/2013  08:21:00        3.222        5.127        7.029       41.315       23.701       27.690     1706.929      561.751      766.759        0.156        0.152        6.055       25.746       18.079      344.177       20.811      865.811
07/18/2013  08:22:00       -6.149       26.557       39.336       24.235       19.058       19.505      587.346      363.192      380.433        0.181        0.067       27.260       14.887        0.298      344.589       21.515      865.816
07/18/2013  08:23:00       -5.226        8.382       28.606       21.483       14.342       21.847      461.511      205.699      477.300        0.103        0.057        9.878       12.592        1.625      344.855       21.974      865.819
07/18/2013  08:24:00      -61.750      -22.395       -0.829       23.247       26.055       15.324      540.406      678.852      234.832        0.288        0.073       65.685        8.867        0.018      344.068       20.624      865.825
07/18/2013  08:25:00      -35.508       16.107       10.605       29.415       21.687       25.098      865.217      470.319      629.906        0.180        0.098       38.991       18.531        0.226      344.512       21.384      865.827
07/18/2013  08:26:00      -15.372       -5.374       20.209       15.604       20.550       19.769      243.492      422.316      390.827        0.086        0.053       16.284        4.685        0.083      344.813       21.898      865.842
07/18/2013  08:27:00      -15.611      -13.562       10.447       23.982       16.494       13.888      575.159      272.048      192.888        0.079        0.052       20.679       12.968        0.393      344.519       21.395      865.853
07/18/2013  08:28:00      -60.137      -36.296       -1.313       26.379       24.459       15.229      695.833      598.227      231.925        0.323        0.076       70.241        6.715        0.009      344.190       20.831      865.856
07/18/2013  08:29:00      -26.252      -35.480        8.159       34.778       38.654       24.438     1209.516     1494.160      597.191        0.266        0.165       44.136       23.143        0.275      344.445       21.269      865.857
07/18/2013  08:30:00      -71.492      -30.427        2.500       40.795       24.802       20.695     1664.270      615.144      428.269        0.437        0.135       77.697       17.156        0.049      344.337       21.086      865.854
07/18/2013  08:31:00      -55.669      -36.337       14.003       34.684       35.732       22.061     1202.969     1276.785      486.683        0.379        0.148       66.479       18.725        0.079      344.231       20.904      865.852
07/18/2013  08:32:00      -50.772      -12.851        8.526       40.636       17.095       15.713     1651.323      292.244      246.911        0.250        0.110       52.373       19.436        0.138      344.415       21.217      865.857
07/18/2013  08:33:00      -56.290        0.872        2.554       18.839       32.432       12.156      354.922     1051.835      147.775        0.236        0.078       56.297       14.233        0.064      344.265       20.961      865.856
07/18/2013  08:34:00      -32.639       -2.954       12.071       29.289       34.093       19.983      857.837     1162.319      399.315        0.182        0.121       32.772       18.423        0.316      344.580       21.500      865.852
07/18/2013  08:35:00      -50.289      -47.580        2.258       23.846       25.163       15.094      568.619      633.164      227.843        0.311        0.071       69.230       10.122        0.021      344.369       21.140      865.863
07/18/2013  08:36:00      -41.323        0.703        4.932       23.537       23.661       16.622      554.003      559.843      276.283        0.156        0.070       41.329       12.734        0.095      344.579       21.499      865.864
07/18/2013  08:37:00      -16.992       12.940        2.467       27.294       20.781       18.916      744.948      431.837      357.817        0.100        0.077       21.358       14.230        0.444      344.705       21.714      865.870
07/18/2013  08:38:00       -9.902       11.722       24.358       26.876       41.743       30.962      722.316     1742.460      958.646        0.213        0.171       15.344       17.345        1.278      344.787       21.854      865.868
07/18/2013  08:39:00      -23.605       17.926       23.912       21.195       34.462       25.193      449.228     1187.595      634.681        0.186        0.114       29.640       10.586        0.128      344.734       21.764      865.861
07/18/2013  08:40:00      -11.410       -9.542       31.003       21.806       30.239       28.021      475.515      914.377      785.183        0.168        0.109       14.874       22.448        2.277      344.993       22.208      865.863
07/18/2013  08:41:00      -49.254       -2.153       15.186       36.419       26.699       22.088     1326.339      712.840      487.879        0.259        0.126       49.301       19.443        0.156      344.823       21.917      865.869
07/18/2013  08:42:00       -6.485       30.869       57.549       14.730       34.898       23.739      216.988     1217.839      563.548        0.315        0.100       31.543       18.151        0.331      345.393       22.894      865.860
07/18/2013  08:43:00       -0.049       41.992       63.190       31.316       30.719       28.157      980.721      943.639      792.793        0.424        0.136       41.992       10.280        0.060      345.041       22.288      865.858
07/18/2013  08:44:00       60.528        3.960       31.525       47.831       36.061       35.671     2287.787     1300.424     1272.427        0.477        0.243       60.658       32.838        0.293      344.386       21.167      865.851
07/18/2013  08:45:00       77.778      -34.357        5.117       30.092       34.755       23.312      905.516     1207.896      543.428        0.496        0.133       85.028        5.512        0.004      344.309       21.038      865.851
07/18/2013  08:46:00       24.508       31.559       13.024       35.151       45.957       28.637     1235.590     2112.018      820.060        0.297        0.208       39.958       19.607        0.241      344.763       21.812      865.839
07/18/2013  08:47:00       55.536       10.447       11.028       28.161       42.032       24.686      793.021     1766.673      609.409        0.324        0.158       56.510       16.159        0.082      344.416       21.220      865.840
07/18/2013  08:48:00       52.899      -19.874        4.946       34.229       26.029       22.881     1171.641      677.496      523.545        0.279        0.119       56.509       19.397        0.118      344.500       21.363      865.837
07/18/2013  08:49:00        5.958       13.863       -9.392       24.736       41.765       25.480      611.877     1744.339      649.222        0.166        0.150       15.090       13.189        0.764      344.720       21.741      865.828
07/18/2013  08:50:00       28.174       45.231       13.025       26.035       29.159       32.469      677.799      850.238     1054.238        0.280        0.129       53.288       14.323        0.072      344.834       21.935      865.816
07/18/2013  08:51:00       33.191        2.075       19.858       24.397       27.272       21.991      595.223      743.751      483.587        0.166        0.091       33.256       15.566        0.219      344.868       21.992      865.810
07/18/2013  08:52:00       16.331       -7.256      -13.219       23.904       19.054       15.551      571.393      363.039      241.829        0.083        0.059       17.871        3.014        0.028      344.781       21.844      865.807
07/18/2013  08:53:00      -29.253       -1.661        3.574       20.886       12.183       13.997      436.208      148.431      195.903        0.083        0.039       29.300        9.558        0.106      345.054       22.311      865.792
07/18/2013  08:54:00      -11.693       -4.309       13.539       10.720       13.993       19.548      114.921      195.807      382.137        0.052        0.035       12.462        7.970        0.409      345.567       23.192      865.780
07/18/2013  08:55:00      -19.436      -19.424        4.083       11.415       15.450       13.287      130.301      238.690      176.548        0.066        0.027       27.478        9.126        0.110      345.047       22.301      865.791
07/18/2013  08:56:00        5.443      -33.267        3.104       28.586       34.530       27.754      817.172     1192.344      770.294        0.196        0.139       33.710       15.291        0.206      344.525       21.405      865.794
07/18/2013  08:57:00       13.141      -48.308       10.828       25.026       36.791       33.632      626.317     1353.603     1131.095        0.287        0.156       50.064       21.679        0.188      344.553       21.454      865.799
07/18/2013  08:58:00       -2.163      -10.133       21.364       28.732       38.531       34.911      825.512     1484.655     1218.745        0.205        0.176       10.362       14.982        2.091      345.269       22.681      865.798
07/18/2013  08:59:00       -0.502       13.746       24.267       28.305       32.607       44.884      801.157     1063.213     2014.591        0.233        0.194       13.755       25.665        3.482      345.396       22.898      865.790
07/18/2013  09:00:00       42.304        3.397       32.926       32.569       50.644       25.479     1060.768     2564.856      649.196        0.358        0.214       42.441       24.805        0.342      345.136       22.453      865.778
07/18/2013  09:01:00       26.161        0.271       22.391       20.821       41.944       19.662      433.518     1759.314      386.608        0.188        0.129       26.162       14.214        0.295      345.008       22.232      865.761
07/18/2013  09:02:00       53.402       63.177        1.760       19.983       23.223       20.757      399.335      539.311      430.866        0.411        0.068       82.723       13.003        0.025      345.090       22.372      865.750
07/18/2013  09:03:00       42.884       28.158        8.424       30.140       29.547       21.218      908.446      873.003      450.208        0.247        0.112       51.303       16.401        0.102      345.313       22.754      865.735
07/18/2013  09:04:00        3.051        0.328       28.790       20.883       20.254       18.481      436.087      410.231      341.555        0.101        0.059        3.069       15.494       25.488      346.318       24.482      865.736
07/18/2013  09:05:00      -17.870        5.679       17.700       13.127       13.617       17.024      172.315      185.412      289.824        0.066        0.032       18.751        6.550        0.122      345.898       23.758      865.726
07/18/2013  09:06:00      -27.851      -14.382       10.586       30.669       19.693       14.783      940.565      387.830      218.544        0.132        0.077       31.345       14.005        0.200      345.514       23.100      865.716
07/18/2013  09:07:00      -47.734      -53.365       -4.158       32.952       20.952       13.180     1085.815      439.007      173.708        0.342        0.085       71.599        6.588        0.008      344.991       22.202      865.717
07/18/2013  09:08:00      -71.418      -12.965        2.812       17.977       16.031       13.296      323.158      257.000      176.772        0.302        0.038       72.586       11.416        0.025      345.076       22.348      865.706
07/18/2013  09:09:00      -69.848      -23.750       -4.306       22.023       21.132       12.586      485.018      446.580      158.407        0.328        0.055       73.775       10.461        0.020      345.007       22.231      865.695
07/18/2013  09:10:00      -54.682      -33.754       -7.122       20.995       20.339       13.536      440.804      413.684      183.224        0.261        0.052       64.261       13.658        0.045      345.183       22.533      865.695
07/18/2013  09:11:00      -33.947       -6.832       -4.156       14.596        7.398        6.130      213.035       54.726       37.574        0.076        0.015       34.627        5.637        0.027      345.139       22.457      865.690
07/18/2013  09:12:00      -50.545        4.034       -3.325       19.633        8.587        7.455      385.456       73.744       55.570        0.155        0.026       50.706        7.914        0.024      345.082       22.358      865.689
07/18/2013  09:13:00      -79.390       -2.147       -1.810       19.389       25.227       17.076      375.952      636.418      291.602        0.381        0.065       79.419       12.047        0.023      345.116       22.419      865.686
07/18/2013  09:14:00      -59.675      -40.778        4.869       35.877       17.730       15.786     1287.187      314.350      249.199        0.355        0.093       72.277       14.900        0.043      345.292       22.717      865.679
07/18/2013  09:15:00       -6.311      -17.752       18.185       19.752       19.344       15.112      390.133      374.186      228.378        0.084        0.050       18.841       13.343        0.502      345.992       23.920      865.673
07/18/2013  09:16:00      -11.301        9.402       27.596       16.565       20.065       13.423      274.400      402.593      180.183        0.092        0.043       14.700        4.417        0.090      346.515       24.819      865.670
07/18/2013  09:17:00        5.148       11.623       18.130       43.336       37.819       23.428     1878.039     1430.276      548.849        0.217        0.193       12.712       11.831        0.866      346.059       24.036      865.651
07/18/2013  09:18:00       -3.047      -39.683       40.371       57.338       61.042       40.621     3287.638     3726.169     1650.071        0.594        0.433       39.800       26.769        0.452      345.823       23.629      865.640
07/18/2013  09:19:00       28.223       59.366       70.939       48.469       45.096       34.317     2349.212     2033.654     1177.664        0.746        0.278       65.733       20.129        0.094      345.958       23.862      865.624
07/18/2013  09:20:00      116.796       67.438       26.132       27.203       27.609       32.451      740.014      762.234     1053.089        1.071        0.128      134.867       18.621        0.019      345.431       22.957      865.607
07/18/2013  09:21:00       96.076       81.366        6.861       19.332       20.735       22.538      373.739      429.928      507.969        0.860        0.066      125.901       12.666        0.010      345.268       22.674      865.595
07/18/2013  09:22:00       71.013       61.421       -4.176       28.133       22.821       17.818      791.488      520.805      317.486        0.523        0.081       93.890       11.180        0.014      345.604       23.252      865.573
07/18/2013  09:23:00       75.240       79.949       16.963       45.843       27.613       42.382     2101.598      762.475     1796.215        0.850        0.233      109.785       31.465        0.082      345.820       23.624      865.558
07/18/2013  09:24:00       56.839       80.911        1.260       27.729       32.363       40.163      768.895     1047.358     1613.092        0.660        0.171       98.880       28.302        0.082      345.925       23.804      865.556
07/18/2013  09:25:00       46.183       48.078        3.445       26.910       33.407       28.950      724.159     1116.007      838.119        0.357        0.134       66.666       24.878        0.139      345.868       23.705      865.565
07/18/2013  09:26:00       63.037       45.506       20.877       18.769       18.483       29.440      352.273      341.605      866.741        0.402        0.078       77.746        6.638        0.007      345.667       23.360      865.560
07/18/2013  09:27:00       64.915       40.773       11.087       35.436       29.280       32.013     1255.723      857.306     1024.853        0.457        0.157       76.657       13.156        0.029      345.845       23.666      865.568
07/18/2013  09:28:00       60.663       54.520       10.342       44.013       34.638       36.349     1937.148     1199.780     1321.275        0.561        0.223       81.563       19.286        0.056      346.157       24.203      865.571
07/18/2013  09:29:00       50.370       86.978       17.775       32.239       27.783       30.621     1039.353      771.893      937.622        0.658        0.137      100.511       21.846        0.047      345.871       23.711      865.562
07/18/2013  09:30:00       26.162       34.963        4.652       56.206       29.165       32.234     3159.126      850.618     1039.009        0.349        0.252       43.668       16.428        0.142      345.956       23.858      865.567
07/18/2013  09:31:00       -4.467       -0.177       17.714       27.122       15.654       15.929      735.601      245.060      253.730        0.078        0.062        4.470        6.974        2.434      346.640       25.032      865.565
07/18/2013  09:32:00        2.232       19.628       39.732       25.755       34.223       19.259      663.298     1171.202      370.898        0.209        0.110       19.754       16.744        0.718      346.969       25.600      865.544
07/18/2013  09:33:00        3.959       35.319       37.029       24.822       47.227       28.851      616.144     2230.399      832.398        0.316        0.184       35.540       26.432        0.553      346.621       25.001      865.530
07/18/2013  09:34:00       -5.853       27.694       64.541       17.680       29.378       18.664      312.593      863.090      348.334        0.325        0.076       28.306       17.225        0.370      346.938       25.546      865.521
07/18/2013  09:35:00       -8.587       15.085       44.168       18.281       26.378       23.939      334.207      695.786      573.098        0.193        0.080       17.357       16.798        0.937      347.026       25.699      865.505
07/18/2013  09:36:00       -8.244       45.887       69.980       20.341       38.813       24.252      413.753     1506.440      588.165        0.479        0.125       46.622       18.254        0.153      346.731       25.190      865.497
07/18/2013  09:37:00       36.316       22.028       50.396       33.337       37.817       31.171     1111.346     1430.143      971.612        0.393        0.176       42.475       18.452        0.189      346.302       24.452      865.499
07/18/2013  09:38:00       10.530      -17.760        8.142       27.361       59.616       28.945      748.601     3554.014      837.830        0.282        0.257       20.647       32.665        2.503      346.156       24.200      865.491
07/18/2013  09:39:00       42.091       -2.002       19.302       53.803       82.037       40.414     2894.746     6730.129     1633.263        0.670        0.563       42.138       46.029        1.193      346.080       24.071      865.485
07/18/2013  09:40:00       23.842       78.004       16.750       38.912       38.646       39.453     1514.142     1493.534     1556.563        0.575        0.228       81.567       29.008        0.126      346.530       24.846      865.485
07/18/2013  09:41:00       51.528       55.092       -1.528       37.279       37.370       30.691     1389.711     1396.517      941.930        0.471        0.186       75.434       16.164        0.046      346.563       24.902      865.471
07/18/2013  09:42:00        3.617       68.134        8.064       31.294       39.229       26.165      979.290     1538.883      684.602        0.396        0.160       68.230       25.459        0.139      346.848       25.392      865.463
07/18/2013  09:43:00        3.872       10.573       14.662       26.533       30.259       19.781      704.011      915.636      391.294        0.118        0.101       11.260       13.348        1.405      347.152       25.915      865.451
07/18/2013  09:44:00       30.451       45.847        7.906       42.323       44.780       23.870     1791.271     2005.292      569.798        0.373        0.218       55.038       18.631        0.115      346.627       25.011      865.436
07/18/2013  09:45:00       43.886       25.123       18.977       24.395       46.994       25.967      595.115     2208.411      674.304        0.320        0.174       50.568       18.268        0.131      346.518       24.823      865.427
07/18/2013  09:46:00       34.382       25.471       13.349       28.796       18.480       21.567      829.214      341.501      465.116        0.182        0.082       42.789       13.780        0.104      346.598       24.959      865.424
07/18/2013  09:47:00       40.801       22.050       27.759       34.814       26.021       26.401     1212.033      677.094      697.005        0.275        0.129       46.378       24.212        0.273      347.009       25.671      865.411
07/18/2013  09:48:00       33.875       44.974        6.879       43.874       32.397       28.919     1924.905     1049.548      836.324        0.351        0.191       56.304       11.107        0.039      346.699       25.135      865.405
07/18/2013  09:49:00       47.906       20.812        8.206       47.295       41.628       34.006     2236.863     1732.902     1156.393        0.396        0.256       52.231       29.477        0.318      346.927       25.528      865.406
07/18/2013  09:50:00       47.445       38.672        6.318       38.578       25.744       28.254     1488.250      662.757      798.294        0.337        0.147       61.209       17.201        0.079      346.464       24.730      865.393
07/18/2013  09:51:00       21.363       39.473       12.755       29.050       28.857       23.145      843.891      832.701      535.670        0.219        0.111       44.883       16.797        0.140      346.912       25.500      865.382
07/18/2013  09:52:00       -7.581       54.435       17.031       22.918       38.143       29.600      525.212     1454.885      876.178        0.308        0.143       54.960       22.557        0.168      347.300       26.170      865.380
07/18/2013  09:53:00        4.054       19.686       24.161       28.430       30.848       24.925      808.266      951.614      621.236        0.168        0.119       20.099       16.374        0.664      347.238       26.064      865.371
07/18/2013  09:54:00       -6.269       49.688       20.057       22.269       46.718       26.044      495.895     2182.610      678.297        0.313        0.168       50.082       25.025        0.250      347.165       25.939      865.364
07/18/2013  09:55:00        4.575       54.244       10.691       31.566       54.347       33.063      996.401     2953.604     1093.166        0.406        0.252       54.437       34.407        0.399      347.086       25.801      865.353
07/18/2013  09:56:00       50.867       37.017       25.397       42.214       36.980       33.081     1782.042     1367.547     1094.323        0.442        0.212       62.910       22.083        0.123      347.074       25.780      865.342
07/18/2013  09:57:00      -16.474      -25.062       12.900       35.967       26.252       20.165     1293.657      689.178      406.613        0.173        0.119       29.991        9.268        0.095      346.971       25.604      865.328
07/18/2013  09:58:00        5.306      -35.570       38.710       38.702       35.403       32.666     1497.837     1253.406     1067.066        0.330        0.191       35.963       26.349        0.537      346.669       25.084      865.312
07/18/2013  09:59:00       52.675      -24.023       21.526       32.937       24.960       32.192     1084.854      623.019     1036.322        0.328        0.137       57.894       24.718        0.182      346.489       24.774      865.297
07/18/2013  10:00:00       45.917      -30.729        9.481       24.918       35.112       23.682      620.893     1232.822      560.832        0.278        0.121       55.251       16.059        0.084      346.458       24.719      865.289
07/18/2013  10:01:00        0.965       -0.740       25.056       18.926       18.953       21.267      358.194      359.208      452.272        0.090        0.058        1.216       11.225       85.170      347.528       26.564      865.274
07/18/2013  10:02:00       31.799       11.507       36.621       45.036       20.658       21.404     2028.277      426.764      458.128        0.270        0.146       33.817       23.159        0.469      347.411       26.362      865.270
07/18/2013  10:03:00       64.789       55.276       12.431       36.274       30.343       31.648     1315.839      920.711     1001.588        0.532        0.162       85.165       19.928        0.055      346.844       25.384      865.263
07/18/2013  10:04:00       63.254       85.255       23.994       30.485       52.272       46.089      929.337     2732.336     2124.188        0.881        0.289      106.158       33.181        0.098      346.627       25.011      865.257
07/18/2013  10:05:00       39.512       49.004        5.767       32.313       27.108       32.261     1044.120      734.844     1040.752        0.341        0.141       62.950       22.487        0.128      346.429       24.672      865.255
07/18/2013  10:06:00      -16.151       14.137        7.143       28.566       20.539       23.704      816.000      421.844      561.890        0.116        0.090       21.464       17.024        0.629      346.740       25.205      865.249
07/18/2013  10:07:00      -22.092        2.154       36.151       20.434       26.769       22.854      417.549      716.567      522.291        0.173        0.083       22.197       17.013        0.587      347.344       26.246      865.245
07/18/2013  10:08:00        2.722       29.491       58.473       27.420       35.225       25.119      751.838     1240.809      630.972        0.346        0.131       29.616       25.923        0.766      347.617       26.717      865.253
07/18/2013  10:09:00      -25.170       -4.496       18.770       33.607       29.747       26.049     1129.432      884.911      678.546        0.185        0.135       25.569       22.397        0.767      347.335       26.231      865.254
07/18/2013  10:10:00      -18.640      -21.004       12.964       33.791       22.610       21.597     1141.854      511.223      466.447        0.154        0.106       28.082       20.207        0.518      347.392       26.329      865.247
07/18/2013  10:11:00      -24.962       -1.738       15.535       24.874       32.947       18.265      618.730     1085.477      333.593        0.145        0.102       25.022       14.874        0.353      347.241       26.069      865.247
07/18/2013  10:12:00        3.109        2.067       26.183       32.926       25.646       37.465     1084.140      657.701     1403.618        0.192        0.157        3.733       24.548       43.235      347.513       26.539      865.233
07/18/2013  10:13:00       20.013      -43.416       36.636       47.628       56.600       43.878     2268.384     3203.545     1925.268        0.551        0.370       47.807       45.548        0.908      347.581       26.655      865.227
07/18/2013  10:14:00       55.937       82.847       94.623       80.488       70.428       48.007     6478.307     4960.045     2304.660        1.634        0.687       99.963       45.266        0.205      347.060       25.754      865.215
07/18/2013  10:15:00      110.385       96.058       74.904       60.029       46.771       47.902     3603.534     2187.497     2294.569        1.755        0.404      146.328       32.709        0.050      346.953       25.572      865.205
07/18/2013  10:16:00       88.473       65.564       28.350       69.053       82.003       49.924     4768.282     6724.561     2492.427        1.345        0.699      110.119       32.388        0.087      346.843       25.381      865.203
07/18/2013  10:17:00       53.845       -8.947        2.467       40.057       71.639       31.714     1604.546     5132.193     1005.759        0.536        0.387       54.584       26.845        0.242      346.947       25.563      865.191
07/18/2013  10:18:00       19.380        7.977       16.539       33.500       45.052       30.321     1122.277     2029.668      919.359        0.239        0.204       20.957       13.118        0.392      347.426       26.387      865.175
07/18/2013  10:19:00       57.672        8.340       26.960       48.634       37.466       35.929     2365.261     1403.702     1290.903        0.459        0.253       58.271       32.088        0.303      347.255       26.094      865.167
07/18/2013  10:20:00       24.684       -9.102       14.086       38.584       49.372       36.703     1488.763     2437.605     1347.124        0.308        0.264       26.309       25.227        0.919      347.183       25.968      865.163
07/18/2013  10:21:00       -9.362        3.796       51.827       19.723       41.748       31.735      389.006     1742.860     1007.117        0.296        0.157       10.102       32.136       10.120      348.144       27.628      865.148
07/18/2013  10:22:00      -11.741       20.732       58.104       17.336       29.263       25.499      300.535      856.299      650.219        0.288        0.090       23.825       16.243        0.465      348.089       27.531      865.151
07/18/2013  10:23:00       13.895        5.469       22.811       57.898       63.135       40.914     3352.195     3986.083     1673.990        0.488        0.451       14.933       29.782        3.978      347.622       26.726      865.152
07/18/2013  10:24:00        5.666        1.748       49.064       29.314       42.172       20.358      859.286     1778.472      414.446        0.275        0.153        5.929       13.302        5.033      348.117       27.580      865.152
07/18/2013  10:25:00       48.329      -13.439       15.048       41.121       54.340       34.669     1690.923     2952.828     1201.964        0.429        0.292       50.163       32.723        0.426      347.591       26.671      865.147
07/18/2013  10:26:00       21.623      -22.159       32.760       28.003       42.734       34.134      784.180     1826.232     1165.102        0.290        0.189       30.961       28.451        0.844      347.812       27.053      865.143
07/18/2013  10:27:00       32.911       12.092       38.145       32.227       42.157       29.178     1038.586     1777.244      851.340        0.318        0.183       35.062       19.679        0.315      347.576       26.647      865.138
07/18/2013  10:28:00        5.874        5.210        6.156       21.357       39.867       18.509      456.133     1589.382      342.581        0.124        0.119        7.851       18.626        5.628      347.254       26.091      865.114
07/18/2013  10:29:00       -7.425      -17.450       10.107       28.082       28.495       21.523      788.615      811.992      463.243        0.126        0.103       18.964       16.779        0.783      347.798       27.028      865.105
07/18/2013  10:30:00        4.094      -21.976       40.624       29.536       71.652       41.358      872.404     5134.048     1710.450        0.493        0.386       22.354       40.642        3.306      348.151       27.639      865.100
07/18/2013  10:31:00       77.985      -90.999       18.093       65.911       75.116       47.719     4344.285     5642.401     2277.106        1.347        0.613      119.844       37.909        0.100      347.689       26.840      865.089
07/18/2013  10:32:00       21.722       13.341       40.373       35.871       42.025       37.200     1286.716     1766.092     1383.811        0.336        0.222       25.492       32.354        1.611      347.715       26.885      865.096
07/18/2013  10:33:00       27.861       -6.377       37.443       38.147       32.766       30.064     1455.218     1073.625      903.844        0.283        0.172       28.582       25.181        0.776      348.112       27.571      865.092
07/18/2013  10:34:00       24.413       52.156       61.074       48.026       46.676       25.494     2306.535     2178.675      649.938        0.609        0.257       57.586       22.829        0.157      347.926       27.251      865.096
07/18/2013  10:35:00       60.613       84.776       65.265       43.189       37.370       35.235     1865.322     1396.518     1241.526        0.981        0.225      104.215       24.427        0.055      347.498       26.511      865.084
07/18/2013  10:36:00       71.251       84.084       18.385       49.340       29.102       50.564     2434.471      846.913     2556.743        0.916        0.292      110.213       27.812        0.064      347.404       26.348      865.085
07/18/2013  10:37:00       37.743       58.623       13.811       41.218       45.607       35.510     1698.898     2079.992     1260.979        0.504        0.252       69.722       24.584        0.124      348.005       27.386      865.067
07/18/2013  10:38:00      164.884       78.681       43.668       86.916       78.262       52.328     7554.471     6124.872     2738.197        2.585        0.821      182.695       43.280        0.056      347.744       26.933      865.060
07/18/2013  10:39:00       81.992       69.532       50.664       87.416       53.931       51.629     7641.639     2908.521     2665.563        1.367        0.661      107.505       41.425        0.148      347.726       26.905      865.043
07/18/2013  10:40:00       39.710       29.993       27.099       38.866       30.537       28.588     1510.599      932.517      817.270        0.323        0.163       49.764       12.560        0.064      347.623       26.727      865.042
07/18/2013  10:41:00       30.175       60.221        9.174       58.882       43.762       32.716     3467.062     1915.141     1070.347        0.554        0.323       67.358       30.566        0.206      347.798       27.029      865.018
07/18/2013  10:42:00       67.636       75.101        7.707       47.434       60.739       42.391     2249.944     3689.253     1796.958        0.900        0.387      101.068       35.448        0.123      347.737       26.924      865.012
07/18/2013  10:43:00       28.712      125.530        3.039       45.663       62.933       46.182     2085.131     3960.561     2132.780        1.238        0.409      128.771       42.389        0.108      348.016       27.404      865.004
07/18/2013  10:44:00       44.398      135.280        0.041       47.047       71.168       43.627     2213.421     5064.829     1903.351        1.472        0.459      142.379       42.087        0.087      347.927       27.251      865.012
07/18/2013  10:45:00       50.264       86.207       12.707       54.385       52.458       39.040     2957.713     2751.793     1524.120        0.868        0.362       99.791       33.813        0.115      347.841       27.103      865.012
07/18/2013  10:46:00       51.271       36.226        2.580       25.056       28.907       27.546      627.780      835.613      758.791        0.308        0.111       62.778        7.548        0.014      347.864       27.142      865.000
07/18/2013  10:47:00       10.385       12.773       14.695       23.930       20.774       17.666      572.648      431.540      312.100        0.090        0.066       16.462       15.413        0.877      348.366       28.012      864.996
07/18/2013  10:48:00        2.986       -2.899       28.452       34.708       47.007       28.315     1204.614     2209.659      801.759        0.252        0.211        4.161       16.323       15.387      348.781       28.729      864.979
07/18/2013  10:49:00        0.700       26.939       31.176       24.776       33.739       18.641      613.868     1138.316      347.482        0.190        0.105       26.948       15.183        0.317      348.951       29.023      864.988
07/18/2013  10:50:00       36.113       -7.658       38.846       55.603       50.123       37.539     3091.644     2512.352     1409.144        0.494        0.351       36.916       30.837        0.698      348.449       28.155      864.977
07/18/2013  10:51:00       28.908      -36.107       27.335       57.373       68.843       56.035     3291.621     4739.313     3139.976        0.703        0.559       46.253       56.698        1.503      348.621       28.451      864.975
07/18/2013  10:52:00       25.763      -78.056        5.695       48.803       69.597       42.507     2381.739     4843.778     1806.828        0.791        0.452       82.198       35.367        0.185      348.233       27.781      864.964
07/18/2013  10:53:00       -0.994      -43.334       14.895       32.169       48.911       36.814     1034.856     2392.315     1355.286        0.344        0.239       43.345       36.005        0.690      348.395       28.061      864.968
07/18/2013  10:54:00       10.005       23.548       46.828       31.938       31.183       20.968     1020.027      972.388      439.662        0.264        0.122       25.585       18.406        0.518      348.555       28.337      864.963
07/18/2013  10:55:00       28.594      -14.755       28.091       30.042       49.515       34.895      902.531     2451.732     1217.649        0.320        0.229       32.177       26.257        0.666      348.101       27.551      864.955
07/18/2013  10:56:00      172.193      100.465       41.252       39.613       37.189       44.727     1569.161     1383.012     2000.542        2.320        0.248      199.358       26.461        0.018      347.760       26.960      864.951
07/18/2013  10:57:00       88.084       66.934       34.505       66.911       46.370       30.472     4477.085     2150.150      928.517        1.049        0.378      110.630       13.830        0.016      348.358       27.996      864.929
07/18/2013  10:58:00       42.662      -59.227       17.300       48.341       52.235       39.795     2336.877     2728.463     1583.646        0.614        0.332       72.993       20.530        0.079      348.425       28.112      864.932
07/18/2013  10:59:00       22.199       12.217       10.935       38.285       51.379       36.795     1465.736     2639.798     1353.842        0.311        0.273       25.338       21.475        0.718      348.511       28.261      864.919
07/18/2013  11:00:00       36.595       22.504       38.819       42.390       29.238       26.556     1796.872      854.870      705.216        0.335        0.168       42.961       25.649        0.356      348.724       28.629      864.919
07/18/2013  11:01:00       87.970       31.615       24.731       71.005       48.388       34.399     5041.671     2341.375     1183.305        0.896        0.428       93.479       23.569        0.064      348.459       28.172      864.910
07/18/2013  11:02:00      124.072       77.191       41.680       69.809       56.136       46.123     4873.241     3151.278     2127.335        1.662        0.508      146.124       33.008        0.051      348.438       28.134      864.904
07/18/2013  11:03:00      108.187      130.545       -2.177       48.506       31.361       38.088     2352.842      983.522     1450.704        1.677        0.239      169.548       20.733        0.015      348.035       27.437      864.919
07/18/2013  11:04:00      -20.663       72.368        5.760       30.019       35.724       26.222      901.144     1276.227      687.568        0.428        0.143       75.261       21.762        0.084      348.403       28.073      864.910
07/18/2013  11:05:00      -25.180       18.857       34.031       23.377       17.584       19.081      546.462      309.185      364.069        0.168        0.061       31.458        7.066        0.050      349.060       29.212      864.908
07/18/2013  11:06:00       -6.215        3.835       13.858       45.733       22.640       24.652     2091.495      512.562      607.703        0.173        0.161        7.303       18.281        6.266      348.797       28.756      864.906
07/18/2013  11:07:00       53.397       63.271       71.135       74.769       65.070       41.224     5590.474     4234.092     1699.388        1.172        0.576       82.792       40.140        0.235      348.640       28.484      864.887
07/18/2013  11:08:00       17.339       33.784       83.108       43.090       65.347       36.428     1856.775     4270.284     1327.030        0.790        0.373       37.974       35.684        0.883      348.540       28.309      864.877
07/18/2013  11:09:00       25.873        4.094       12.857       33.753       42.509       48.723     1139.281     1807.046     2373.918        0.308        0.266       26.195       28.717        1.202      348.520       28.277      864.866
07/18/2013  11:10:00       92.159       58.379       17.220       67.513       47.269       37.345     4558.060     2234.319     1394.636        1.019        0.409      109.093       21.670        0.039      348.532       28.298      864.869
07/18/2013  11:11:00       77.081       46.149       -1.885       47.311       48.813       27.697     2238.314     2382.664      767.124        0.673        0.269       89.840       21.381        0.057      348.293       27.884      864.862
07/18/2013  11:12:00        7.407       17.320        9.723       19.253       26.856       23.774      370.663      721.255      565.217        0.105        0.083       18.837       14.682        0.608      348.944       29.010      864.853
07/18/2013  11:13:00       31.813       43.199       17.541       43.646       40.806       38.150     1904.937     1665.145     1455.452        0.410        0.251       53.649       31.251        0.339      349.157       29.378      864.831
07/18/2013  11:14:00       63.685       54.082       -6.967       50.489       40.930       38.142     2549.118     1675.249     1454.816        0.635        0.284       83.550       15.179        0.033      348.544       28.317      864.822
07/18/2013  11:15:00      108.656       84.335        3.576       65.757       53.715       37.276     4324.005     2885.339     1389.490        1.376        0.430      137.544       21.084        0.023      348.626       28.460      864.806
07/18/2013  11:16:00       48.078      -18.087        1.821       55.272       81.020       36.540     3054.994     6564.308     1335.153        0.680        0.548       51.368       30.034        0.342      348.310       27.912      864.794
07/18/2013  11:17:00       51.296       16.723       44.037       43.393       53.931       37.143     1882.977     2908.559     1379.631        0.551        0.309       53.953       30.555        0.321      348.293       27.884      864.784
07/18/2013  11:18:00        6.997       -3.829       -5.385       36.269       31.454       25.270     1315.421      989.374      638.550        0.152        0.147        7.976       17.698        4.924      348.672       28.539      864.770
07/18/2013  11:19:00      -28.531      -12.882       -6.336       35.383       58.747       20.112     1251.950     3451.254      404.488        0.306        0.255       31.304       17.809        0.324      348.455       28.162      864.754
07/18/2013  11:20:00       55.998     -115.570        9.692       56.291      121.096       48.975     3168.677    14664.305     2398.543        1.840        1.012      128.422       58.973        0.211      349.081       29.246      864.726
07/18/2013  11:21:00       17.204       -3.055       25.908       47.089       48.083       41.619     2217.385     2311.959     1732.163        0.362        0.313       17.473       32.759        3.515      349.162       29.390      864.726
07/18/2013  11:22:00       68.364       59.080       31.979       42.102       33.272       24.913     1772.615     1107.031      620.649        0.634        0.175       90.355       17.924        0.039      348.512       28.263      864.719
07/18/2013  11:23:00       -8.405       13.233       44.474       36.596       52.431       47.056     1339.247     2748.959     2214.274        0.426        0.315       15.676       31.485        4.034      349.100       29.282      864.714
07/18/2013  11:24:00       49.187      -52.492       21.489       45.508       42.667       33.388     2071.012     1820.503     1114.754        0.532        0.250       71.936       28.391        0.156      348.975       29.064      864.714
07/18/2013  11:25:00        0.747      -61.365      -18.267       51.944       54.509       34.588     2698.132     2971.202     1196.321        0.548        0.343       61.370       24.282        0.157      348.855       28.856      864.705
07/18/2013  11:26:00       15.563      -21.341       -3.182       32.307       56.731       28.914     1043.769     3218.359      835.996        0.290        0.255       26.413       12.293        0.217      349.192       29.440      864.695
07/18/2013  11:27:00        1.917      -64.495       -6.406       45.627       55.389       35.854     2081.849     3067.923     1285.481        0.532        0.322       64.524       26.504        0.169      349.114       29.304      864.681
07/18/2013  11:28:00       63.061      -54.521        6.735       67.425       76.515       50.972     4546.078     5854.528     2598.155        0.999        0.650       83.362       48.689        0.341      348.924       28.975      864.682
07/18/2013  11:29:00       24.513      -84.405        2.906       51.614       73.588       33.752     2664.044     5415.181     1139.166        0.847        0.461       87.892       28.614        0.106      348.759       28.690      864.659
07/18/2013  11:30:00      128.780     -148.108      -13.608       52.156       95.539       40.621     2720.245     9127.677     1650.045        2.610        0.675      196.266       41.657        0.045      348.906       28.941      864.649
07/18/2013  11:31:00       23.766      -81.950        8.284       37.551       32.582       30.968     1410.095     1061.585      959.002        0.539        0.172       85.327       23.270        0.074      348.569       28.361      864.655
07/18/2013  11:32:00       -6.670       13.862       33.372       41.158       38.551       27.634     1693.997     1486.145      763.612        0.265        0.197       15.384       21.905        2.028      349.127       29.329      864.642
07/18/2013  11:33:00      -46.998       11.409       10.559       26.759       38.494       25.319      716.022     1481.825      641.047        0.264        0.142       48.363       15.811        0.107      348.985       29.081      864.630
07/18/2013  11:34:00      -26.565      -51.099       12.008       45.544       38.499       26.539     2074.254     1482.141      704.334        0.386        0.213       57.592       22.647        0.155      348.954       29.028      864.629
07/18/2013  11:35:00       -7.243     -131.135      -14.244       54.902       62.091       26.729     3014.207     3855.286      714.424        1.252        0.379      131.335       19.968        0.023      348.922       28.972      864.607
07/18/2013  11:36:00       31.200       64.137      104.585       52.535       98.512       43.645     2759.890     9704.666     1904.885        1.519        0.718       71.323       35.333        0.245      349.078       29.242      864.597
07/18/2013  11:37:00       31.808       53.622       40.442       48.696       36.146       28.143     2371.316     1306.540      792.027        0.500        0.223       62.346       21.115        0.115      349.130       29.333      864.599
07/18/2013  11:38:00       46.267       43.157       55.129       51.156       54.342       34.704     2616.909     2953.039     1204.394        0.691        0.339       63.271       32.022        0.256      349.092       29.267      864.596
07/18/2013  11:39:00       43.718       20.514       27.375       55.546       39.404       37.308     3085.364     1552.636     1391.873        0.455        0.301       48.292       29.686        0.378      349.066       29.222      864.589
07/18/2013  11:40:00      -14.515       27.546        6.253       50.457       17.449       23.149     2545.938      304.479      535.897        0.220        0.169       31.136       25.577        0.675      348.981       29.075      864.565
07/18/2013  11:41:00       30.028       45.423        9.432       26.076       31.030       24.583      679.968      962.883      604.347        0.265        0.112       54.451       15.166        0.078      349.335       29.689      864.553
07/18/2013  11:42:00       34.510       -0.637       35.182       35.590       38.834       31.460     1266.656     1508.046      989.737        0.310        0.188       34.516       30.943        0.804      349.372       29.753      864.537
07/18/2013  11:43:00       37.274       23.011       33.593       36.095       48.364       33.200     1302.857     2339.093     1102.213        0.389        0.237       43.805       22.930        0.274      349.097       29.276      864.527
07/18/2013  11:44:00      -12.667       10.300       13.117       35.321       31.243       32.601     1247.574      976.148     1062.843        0.186        0.164       16.326       13.558        0.690      349.590       30.129      864.507
07/18/2013  11:45:00      127.491       37.482       32.809       92.805       91.118       49.685     8612.833     8302.466     2468.604        1.906        0.969      132.886       34.763        0.068      349.076       29.237      864.494
07/18/2013  11:46:00      148.563      121.052       40.735       86.702       72.433       51.934     7517.242     5246.516     2697.100        2.692        0.773      191.637       27.075        0.020      349.204       29.457      864.468
07/18/2013  11:47:00      149.545      102.253       26.465       89.536       70.512       51.930     8016.629     4971.955     2696.739        2.460        0.784      181.161       20.572        0.013      349.351       29.713      864.455
07/18/2013  11:48:00      126.848       55.993       72.751      110.921       79.399       53.090    12303.509     6304.238     2818.539        2.297        1.071      138.657       46.929        0.115      349.479       29.935      864.440
07/18/2013  11:49:00       72.335       -0.109       15.996      101.115       60.173       47.952    10224.188     3620.830     2299.423        1.081        0.807       72.335       41.269        0.326      349.105       29.288      864.445
07/18/2013  11:50:00      201.639      100.400       46.100       87.247       86.952       61.552     7612.058     7560.613     3788.634        3.591        0.948      225.251       30.955        0.019      349.167       29.394      864.432
07/18/2013  11:51:00      187.194      133.034       73.553      100.321       89.705       72.533    10064.345     8046.954     5261.046        4.076        1.169      229.651       53.894        0.055      349.386       29.771      864.422
07/18/2013  11:52:00      198.093      108.759       23.779       81.452       77.193       76.259     6634.432     5958.721     5815.362        3.502        0.920      225.986       41.595        0.034      349.291       29.607      864.407
07/18/2013  11:53:00      141.091      128.090       73.420      113.914       70.103       90.341    12976.299     4914.490     8161.457        3.387        1.303      190.561       63.565        0.111      349.329       29.675      864.412
07/18/2013  11:54:00       94.108       73.546       31.357       54.947       83.647       50.469     3019.127     6996.776     2547.153        1.390        0.628      119.438       45.705        0.146      349.073       29.233      864.419
07/18/2013  11:55:00       95.964      -33.574       44.525       53.072       43.409       33.147     2816.671     1884.331     1098.700        0.906        0.290      101.667       26.857        0.070      348.555       28.336      864.420
07/18/2013  11:56:00       46.210      -42.400       13.651       36.364       59.958       35.358     1322.358     3595.014     1250.186        0.514        0.308       62.714       24.840        0.157      348.948       29.018      864.408
07/18/2013  11:57:00       24.397       21.487       38.910       41.399       31.215       32.506     1713.868      974.380     1056.645        0.316        0.187       32.510       22.708        0.488      349.685       30.295      864.391
07/18/2013  11:58:00       66.255       64.765       26.256       55.972       48.510       37.440     3132.851     2353.247     1401.778        0.808        0.344       92.651       24.500        0.070      349.390       29.783      864.391
07/18/2013  11:59:00      -38.995       27.408       -5.434       43.635       32.658       28.325     1903.971     1066.553      802.314        0.304        0.189       47.664       24.958        0.274      349.216       29.482      864.365
07/18/2013  12:00:00       -9.526      134.933      -15.840       49.364       44.911       27.113     2436.796     2017.039      735.102        1.187        0.259      135.269       25.735        0.036      349.131       29.334      864.348
07/18/2013  12:01:00      -12.041       79.118      -13.336       34.931       37.415       28.105     1220.141     1399.874      789.878        0.500        0.170       80.029       23.756        0.088      349.298       29.624      864.341
07/18/2013  12:02:00      -73.990       57.470       -7.647       38.757       35.562       31.621     1502.124     1264.624      999.918        0.630        0.188       93.687       24.745        0.070      349.362       29.735      864.314
07/18/2013  12:03:00       27.346       52.520       17.923       60.769       54.821       37.612     3692.905     3005.342     1414.645        0.597        0.406       59.213       34.931        0.348      349.846       30.574      864.309
07/18/2013  12:04:00       18.403       37.876       40.416       57.361       45.995       35.386     3290.287     2115.558     1252.135        0.503        0.333       42.110       16.320        0.150      349.683       30.292      864.289
07/18/2013  12:05:00       20.554       37.604       28.577       32.715       41.806       28.942     1070.257     1747.712      837.625        0.315        0.183       42.855       19.342        0.204      350.040       30.911      864.269
07/18/2013  12:06:00       34.105       86.834       -1.447       43.161       64.521       38.228     1862.854     4162.988     1461.380        0.809        0.374       93.292       31.870        0.117      349.647       30.228      864.260
07/18/2013  12:07:00      -23.673      116.123       -4.085       27.958       56.104       30.573      781.674     3147.617      934.714        0.946        0.243      118.511       30.681        0.067      349.570       30.096      864.248
07/18/2013  12:08:00      -28.123       96.821        2.275       33.769       61.548       29.332     1140.316     3788.181      860.393        0.798        0.289      100.823       34.174        0.115      349.901       30.671      864.241
07/18/2013  12:09:00      -43.049      144.724       -7.330       30.031       51.355       38.213      901.837     2637.356     1460.208        1.392        0.250      150.991       25.666        0.029      349.570       30.095      864.230
07/18/2013  12:10:00      -24.276       88.710        6.075       24.689       46.346       32.527      609.525     2147.936     1058.005        0.615        0.191       91.972       25.286        0.076      349.953       30.762      864.214
07/18/2013  12:11:00       18.996       45.018       13.555       34.510       64.946       31.172     1190.908     4217.996      971.691        0.447        0.319       48.861       34.941        0.511      350.052       30.934      864.202
07/18/2013  12:12:00       58.043        5.483       10.214       30.454       24.498       22.655      927.465      600.157      513.254        0.277        0.102       58.301       11.748        0.041      349.820       30.530      864.178
07/18/2013  12:13:00       51.414       21.727       12.159       27.973       33.709       28.952      782.484     1136.273      838.220        0.301        0.138       55.816       21.591        0.150      349.471       29.923      864.159
07/18/2013  12:14:00       49.750      -42.842       11.903       23.775       31.792       22.754      565.269     1010.738      517.734        0.327        0.105       65.654       20.301        0.096      348.988       29.086      864.150
07/18/2013  12:15:00       10.778       17.444       50.162       19.437       38.973       23.632      377.805     1518.898      558.473        0.270        0.123       20.505       22.069        1.158      349.966       30.783      864.163
07/18/2013  12:16:00       21.339      -59.107       21.021       59.206       81.646       55.516     3505.387     6666.044     3082.082        0.882        0.663       62.841       47.096        0.562      349.541       30.046      864.154
07/18/2013  12:17:00      105.826     -113.996        3.940       84.346       82.517       52.950     7114.244     6808.992     2803.680        2.046        0.836      155.545       61.436        0.156      349.627       30.192      864.139
07/18/2013  12:18:00       73.939     -108.262       22.112       41.515       60.889       32.004     1723.504     3707.517     1024.262        1.206        0.323      131.102       31.151        0.056      349.551       30.061      864.140
07/18/2013  12:19:00        9.108      -57.200       40.442       32.752       64.573       44.060     1072.695     4169.707     1941.241        0.609        0.359       57.921       46.879        0.655      349.841       30.567      864.121
07/18/2013  12:20:00       61.202     -100.541       -1.391       60.247       93.418       49.340     3629.699     8726.915     2434.425        1.432        0.740      117.704       56.533        0.231      349.551       30.060      864.122
07/18/2013  12:21:00       43.495     -128.325      -12.394       51.318       56.624       37.427     2633.517     3206.296     1400.779        1.288        0.362      135.496       33.883        0.063      349.573       30.099      864.103
07/18/2013  12:22:00      -39.570      -38.794        3.720       44.760       38.769       25.893     2003.447     1503.073      670.453        0.363        0.209       55.414       21.678        0.153      350.162       31.123      864.095
07/18/2013  12:23:00       10.582      -52.375       16.584       30.889       51.790       33.700      954.147     2682.175     1135.718        0.395        0.239       53.433       31.358        0.344      349.973       30.795      864.082
07/18/2013  12:24:00       -2.886       -3.010       25.740       30.784       23.470       23.802      947.673      550.863      566.552        0.137        0.103        4.170       21.522       26.641      350.267       31.307      864.075
07/18/2013  12:25:00       -9.069      -20.510       16.533       47.172       37.022       25.329     2225.195     1370.648      641.544        0.251        0.212       22.426       23.657        1.113      350.019       30.876      864.068
07/18/2013  12:26:00      -31.887      -14.310       -1.705       22.685       17.081       19.552      514.613      291.762      382.290        0.121        0.059       34.950       11.273        0.104      349.957       30.765      864.046
07/18/2013  12:27:00       47.932      -49.856       17.051       51.035       51.421       38.013     2604.547     2644.139     1444.977        0.588        0.335       69.160       35.368        0.262      350.036       30.904      864.033
07/18/2013  12:28:00       45.702      -82.585       26.956       51.115       67.754       29.013     2612.772     4590.581      841.765        0.884        0.402       94.387       25.460        0.073      349.915       30.695      864.019
07/18/2013  12:29:00       22.321      -13.067       47.336       39.971       54.291       28.678     1597.641     2947.510      822.444        0.414        0.268       25.864       21.182        0.671      349.741       30.393      863.997
07/18/2013  12:30:00       37.168      -38.822       28.894       40.211       54.804       35.867     1616.919     3003.526     1286.454        0.481        0.295       53.746       37.430        0.485      349.643       30.223      863.986
07/18/2013  12:31:00       41.941      -50.080        5.784       30.997       34.641       23.151      960.783     1199.967      535.983        0.350        0.135       65.322       20.631        0.100      349.777       30.454      863.971
07/18/2013  12:32:00      -10.988       16.358       44.996       27.209       56.558       30.346      740.346     3198.824      920.860        0.364        0.243       19.706       22.197        1.269      350.150       31.103      863.948
07/18/2013  12:33:00       41.646       26.952       53.302       52.927       48.093       49.362     2801.298     2312.905     2436.566        0.642        0.378       49.606       37.732        0.579      349.690       30.303      863.923
07/18/2013  12:34:00        5.315       43.812       64.938       44.535       54.478       57.110     1983.328     2967.888     3261.504        0.719        0.411       44.133       43.795        0.985      350.048       30.924      863.909
07/18/2013  12:35:00       13.586       29.374       66.669       45.139       72.425       50.729     2037.561     5245.346     2573.454        0.767        0.493       32.364       46.429        2.058      349.796       30.489      863.907
07/18/2013  12:36:00       22.795      -56.004       30.214       45.730       62.752       50.062     2091.217     3937.848     2506.186        0.655        0.427       60.465       38.369        0.403      350.037       30.907      863.901
07/18/2013  12:37:00       88.310      -28.733       37.399       58.753       60.424       44.179     3451.901     3651.000     1951.768        0.954        0.453       92.867       42.467        0.209      349.824       30.536      863.889
07/18/2013  12:38:00       73.235      -69.146       14.645       64.203       56.992       42.176     4121.975     3248.092     1778.812        0.975        0.457      100.720       41.285        0.168      349.483       29.946      863.877
07/18/2013  12:39:00       36.757       16.363       62.856       49.916       82.090       47.221     2491.648     6738.734     2229.802        0.851        0.573       40.234       57.286        2.027      349.846       30.574      863.862
07/18/2013  12:40:00       26.145      -26.613       11.200       46.237       71.966       40.934     2137.840     5179.076     1675.627        0.525        0.450       37.307       29.217        0.613      349.816       30.522      863.861
07/18/2013  12:41:00       16.841       88.447       12.047       39.861       87.834       40.272     1588.879     7714.883     1621.828        0.959        0.546       90.037       47.834        0.282      350.388       31.516      863.858
07/18/2013  12:42:00      -36.324      164.774      -23.043       31.361       87.394       27.362      983.493     7637.647      748.687        1.918        0.468      168.731       29.512        0.031      349.879       30.630      863.841
07/18/2013  12:43:00      -62.442      109.159       -8.371       45.747       76.663       30.279     2092.811     5877.238      916.844        1.238        0.444      125.756       24.287        0.037      350.161       31.121      863.827
07/18/2013  12:44:00     -115.377       87.514      -14.658       50.318       38.603       31.861     2531.925     1490.181     1015.109        1.311        0.252      144.812       24.476        0.029      350.263       31.298      863.806
07/18/2013  12:45:00     -130.113      140.863      -27.291       61.338       68.880       41.982     3762.302     4744.444     1762.471        2.389        0.513      191.760       43.927        0.052      350.054       30.932      863.788
07/18/2013  12:46:00     -164.673      120.617      -31.084       43.833       59.979       36.272     1921.373     3597.516     1315.643        2.473        0.342      204.122       39.023        0.037      349.862       30.597      863.775
07/18/2013  12:47:00       57.611       66.488       42.391       60.076       48.849       52.014     3609.164     2386.229     2705.464        0.912        0.435       87.975       27.127        0.095      350.401       31.539      863.768
07/18/2013  12:48:00      -83.263      161.135      -29.304       46.909       53.469       40.930     2200.451     2858.960     1675.298        2.024        0.337      181.376       20.017        0.012      349.947       30.746      863.747
07/18/2013  12:49:00     -113.565       38.297      -15.105       39.049       32.851       27.011     1524.833     1079.162      729.611        0.896        0.167      119.848       23.154        0.037      349.896       30.661      863.727
07/18/2013  12:50:00      129.932       96.438       24.367       61.207       55.257       44.467     3746.334     3053.383     1977.286        1.777        0.439      161.811       24.935        0.024      350.137       31.078      863.720
07/18/2013  12:51:00      202.846      123.114       28.480       73.766       42.968       43.042     5441.375     1846.213     1852.587        3.313        0.457      237.284       20.842        0.008      350.092       30.997      863.695
07/18/2013  12:52:00       58.101       87.230       89.152       67.367       76.773       55.902     4538.377     5894.168     3125.033        1.624        0.678      104.808       46.387        0.196      349.997       30.836      863.688
07/18/2013  12:53:00       36.956       68.496       76.837       72.963       64.763       47.480     5323.590     4194.281     2254.336        1.186        0.589       77.830       47.167        0.367      349.752       30.410      863.675
07/18/2013  12:54:00        2.464       41.029      -16.467       44.694       36.119       33.821     1997.551     1304.558     1143.861        0.320        0.222       41.103       24.306        0.350      350.029       30.893      863.633
07/18/2013  12:55:00       86.691       62.125        0.162       64.137       32.419       37.066     4113.617     1051.024     1373.874        0.896        0.327      106.653       30.039        0.079      349.724       30.361      863.596
07/18/2013  12:56:00      223.564      138.473       31.242      115.735       85.141       71.713    13394.671     7249.026     5142.803        4.795        1.289      262.975       59.803        0.052      350.105       31.021      863.576
07/18/2013  12:57:00      155.819       82.900       32.607      120.821       80.871       51.045    14597.741     6540.129     2605.588        2.797        1.187      176.499       49.430        0.078      350.460       31.638      863.555
07/18/2013  12:58:00       63.154      130.708      107.740       92.110       74.082       67.204     8484.189     5488.076     4516.366        2.558        0.924      145.166       57.786        0.158      350.366       31.476      863.559
07/18/2013  12:59:00       90.946      140.567      140.373       92.503       69.386       56.987     8556.805     4814.443     3247.505        3.217        0.831      167.422       50.575        0.091      349.815       30.516      863.571
07/18/2013  13:00:00       74.997       32.893       40.678       59.002       67.188       50.109     3481.245     4514.189     2510.890        0.943        0.525       81.893       45.850        0.313      349.898       30.664      863.587
07/18/2013  13:01:00       -9.902       16.407       14.170       27.668       16.842       30.129      765.496      283.641      907.779        0.126        0.098       19.164       21.673        1.279      350.178       31.151      863.556
07/18/2013  13:02:00       42.686        8.551       20.694       29.747       18.305       24.391      884.872      335.084      594.898        0.207        0.091       43.534       11.767        0.073      349.598       30.145      863.546
07/18/2013  13:03:00       31.323       -9.028        5.414       26.310       20.120       21.534      692.224      404.812      463.726        0.133        0.078       32.598        8.388        0.066      349.792       30.482      863.548
07/18/2013  13:04:00       41.702        1.508       19.368       34.260       39.682       25.339     1173.781     1574.687      642.042        0.275        0.170       41.729       20.689        0.246      349.928       30.718      863.529
07/18/2013  13:05:00       -0.118      -22.309        1.167       32.750       30.382       24.060     1072.547      923.051      578.864        0.154        0.129       22.309       21.255        0.908      350.361       31.470      863.520
07/18/2013  13:06:00        0.518       28.740       31.696       25.339       22.702       17.192      642.071      515.396      295.579        0.164        0.073       28.744       10.671        0.138      350.217       31.220      863.511
07/18/2013  13:07:00       10.918       27.986       27.273       26.876       22.425       24.313      722.326      502.901      591.115        0.173        0.091       30.040       15.367        0.262      349.847       30.576      863.501
07/18/2013  13:08:00       16.141        5.274       21.417       39.599       49.936       33.145     1568.061     2493.646     1098.594        0.295        0.258       16.981       30.703        3.269      350.106       31.024      863.487
07/18/2013  13:09:00      106.276     -110.990       13.587       79.487      101.290       76.843     6318.132    10259.723     5904.771        2.314        1.124      153.666       74.251        0.233      350.611       31.901      863.454
07/18/2013  13:10:00       40.683      -31.009       34.867       45.853       76.082       48.835     2102.529     5788.423     2384.834        0.705        0.514       51.153       46.126        0.813      350.665       31.998      863.459
07/18/2013  13:11:00       82.691      -79.527       16.676       67.167       78.097       62.249     4511.409     6099.069     3874.916        1.396        0.724      114.727       52.161        0.207      350.412       31.558      863.454
07/18/2013  13:12:00       60.283     -152.995      -10.665       58.698       69.966       36.418     3445.453     4895.265     1326.248        1.841        0.483      164.443       34.960        0.045      350.246       31.266      863.457
07/18/2013  13:13:00        0.898      -78.115       14.209       53.719       43.321       34.724     2885.758     1876.749     1205.772        0.614        0.298       78.120       26.796        0.118      350.403       31.542      863.457
07/18/2013  13:14:00        5.711      -71.876       21.864       27.850       68.525       29.313      775.630     4695.695      859.276        0.600        0.317       72.102       31.082        0.186      350.559       31.814      863.438
07/18/2013  13:15:00       20.492       13.366       54.716       41.054       56.016       41.844     1685.421     3137.796     1750.916        0.508        0.329       24.466       42.723        3.049      350.701       32.060      863.428
07/18/2013  13:16:00       59.911       26.039       44.563       43.147       40.469       29.260     1861.702     1637.762      856.147        0.530        0.218       65.325       29.858        0.209      349.937       30.733      863.410
07/18/2013  13:17:00      170.633      107.269       66.774       92.065       55.261       56.791     8476.044     3053.799     3225.221        2.992        0.738      201.550       51.782        0.066      350.308       31.373      863.396
07/18/2013  13:18:00       71.836        7.648       24.050       60.333       71.286       35.937     3640.052     5081.655     1291.441        0.790        0.501       72.242       40.392        0.313      350.419       31.570      863.396
07/18/2013  13:19:00        7.210        8.056       33.940       17.803       32.765       25.646      316.939     1073.543      657.722        0.166        0.102       10.811       21.210        3.849      350.802       32.238      863.392
07/18/2013  13:20:00       39.003      -33.278        7.573       30.961       55.479       29.891      958.579     3077.967      893.480        0.381        0.247       51.270       38.501        0.564      350.332       31.419      863.374
07/18/2013  13:21:00       36.435      -60.799        4.535       52.095       28.146       21.829     2713.876      792.212      476.488        0.451        0.199       70.880       10.409        0.022      350.472       31.662      863.364
07/18/2013  13:22:00      -26.726       -1.214       16.363       38.992       23.616       23.928     1520.403      557.714      572.537        0.182        0.133       26.754       12.820        0.230      350.877       32.366      863.350
07/18/2013  13:23:00        9.982      -28.509       19.972       32.086       34.385       30.072     1029.523     1182.309      904.303        0.221        0.156       30.206       26.353        0.761      351.133       32.812      863.322
07/18/2013  13:24:00       29.425      -48.462       26.843       55.059       63.966       43.058     3031.479     4091.663     1854.001        0.645        0.449       56.696       42.308        0.557      351.212       32.951      863.294
07/18/2013  13:25:00       -4.005      -13.516       20.547       61.771       35.261       42.019     3815.703     1243.335     1765.576        0.372        0.341       14.097       35.912        6.490      351.462       33.387      863.275
07/18/2013  13:26:00      -14.600       -5.994       16.726       33.465       35.211       23.309     1119.904     1239.811      543.291        0.172        0.145       15.782       21.680        1.887      351.493       33.441      863.262
07/18/2013  13:27:00      -93.022     -110.891       -3.725       85.364       64.374       36.250     7286.976     4144.036     1314.095        1.685        0.637      144.741       11.524        0.006      350.750       32.143      863.256
07/18/2013  13:28:00     -109.978     -114.770       -0.889       91.602       73.215       43.018     8390.925     5360.402     1850.590        2.043        0.780      158.957       49.867        0.098      350.644       31.959      863.241
07/18/2013  13:29:00      -79.162      -85.453       10.588       65.659       36.214       34.137     4311.113     1311.475     1165.350        1.023        0.339      116.486       22.848        0.038      350.812       32.252      863.230
07/18/2013  13:30:00      -24.360      -42.686       20.287       47.515       85.203       37.820     2257.672     7259.536     1430.318        0.689        0.547       49.147       39.108        0.633      350.963       32.517      863.225
07/18/2013  13:31:00        0.522      -66.635       15.508       40.181       44.523       36.975     1614.537     1982.284     1367.149        0.482        0.248       66.637       23.108        0.120      350.795       32.225      863.209
07/18/2013  13:32:00      -85.863      -90.478        6.904       70.855       63.623       45.511     5020.477     4047.867     2071.291        1.337        0.557      124.734       41.214        0.109      350.919       32.439      863.204
07/18/2013  13:33:00      -72.517      -44.292       10.938       71.432       55.279       37.432     5102.499     3055.782     1401.144        0.845        0.478       84.974       31.402        0.137      351.009       32.598      863.186
07/18/2013  13:34:00      -71.926      -42.291       13.059       71.711       48.322       29.954     5142.451     2335.061      897.232        0.775        0.419       83.438       28.718        0.118      350.976       32.539      863.178
07/18/2013  13:35:00     -126.370      -92.418       -4.281       47.115       30.696       23.194     2219.869      942.247      537.966        1.411        0.185      156.558       23.541        0.023      350.603       31.890      863.171
07/18/2013  13:36:00      -46.438      -34.517       -1.266       31.994       41.058       16.108     1023.618     1685.753      259.471        0.316        0.148       57.861       10.602        0.034      350.821       32.270      863.174
07/18/2013  13:37:00        4.323      -74.175       25.750       32.283       42.623       18.440     1042.191     1816.684      340.048        0.469        0.160       74.301       13.544        0.033      350.885       32.380      863.166
07/18/2013  13:38:00      -15.287       -4.559       28.483       42.500       54.810       40.391     1806.221     3004.148     1631.438        0.375        0.322       15.952       42.012        6.936      350.745       32.136      863.167
07/18/2013  13:39:00      -24.856      -21.359       -2.212       28.559       23.798       26.357      815.591      566.328      694.687        0.158        0.104       32.772       23.413        0.510      351.161       32.863      863.165
07/18/2013  13:40:00       -0.143        6.870       36.446       14.616       15.305        9.979      213.613      234.248       99.577        0.096        0.027        6.872        8.181        1.417      351.652       33.719      863.147
07/18/2013  13:41:00       45.434        1.457       38.071       48.837       40.782       37.549     2385.080     1663.178     1409.938        0.449        0.273       45.458       33.239        0.535      350.282       31.333      863.142
07/18/2013  13:42:00      135.267      -24.052       67.302       88.791      106.192       75.228     7883.898    11276.814     5659.208        2.411        1.241      137.389       77.331        0.317      350.511       31.729      863.116
07/18/2013  13:43:00       62.794      -34.427       10.338       49.544       70.473       48.308     2454.578     4966.402     2333.654        0.749        0.488       71.612       47.130        0.433      350.745       32.136      863.116
07/18/2013  13:44:00       48.767      -37.530       37.361       56.345       84.801       44.783     3174.779     7191.158     2005.510        0.877        0.619       61.536       55.044        0.800      351.222       32.969      863.120
07/18/2013  13:45:00      -23.770       48.955       16.688       37.818       30.261       40.005     1430.175      915.741     1600.387        0.359        0.197       54.421       27.221        0.250      350.940       32.476      863.102
07/18/2013  13:46:00      -68.393      -89.776       -9.253       42.759       99.971       31.593     1828.333     9994.211      998.106        1.282        0.641      112.860       34.184        0.092      350.989       32.562      863.089
07/18/2013  13:47:00     -133.445      -86.191      -26.915       26.053       43.081       16.787      678.735     1855.948      281.806        1.439        0.141      158.860       12.341        0.006      350.574       31.838      863.072
07/18/2013  13:48:00     -151.653       -0.907      -23.764       21.447       26.652       12.922      459.981      710.333      166.974        1.245        0.067      151.655        7.375        0.002      350.561       31.814      863.042
07/18/2013  13:49:00      -97.707       -7.014      -12.140       34.301       21.685       16.435     1176.563      470.250      270.123        0.583        0.096       97.959       19.751        0.041      350.624       31.926      863.032
07/18/2013  13:50:00       32.217        9.221       18.234       43.456       24.617       27.233     1888.391      605.997      741.655        0.235        0.162       33.510       17.915        0.286      350.805       32.243      863.017
07/18/2013  13:51:00       19.895       13.627       11.887       17.637       23.399       19.259      311.080      547.510      370.906        0.098        0.061       24.114       12.747        0.279      350.682       32.029      863.012
07/18/2013  13:52:00        9.679      -36.909       24.419       44.819       50.863       22.361     2008.752     2587.094      499.999        0.357        0.255       38.157       21.050        0.304      350.643       31.960      863.004
07/18/2013  13:53:00      -34.585       12.034        8.645       35.506       30.351       28.277     1260.655      921.199      799.566        0.220        0.149       36.619       19.142        0.273      351.124       32.796      862.997
07/18/2013  13:54:00      -60.282       27.601       -1.730       25.619       19.527       20.705      656.356      381.285      428.682        0.293        0.073       66.300       15.454        0.054      351.108       32.769      862.985
07/18/2013  13:55:00      -60.821        2.620       15.446       33.152       26.422       26.496     1099.025      698.119      702.033        0.322        0.125       60.878       19.855        0.106      351.533       33.511      862.978
07/18/2013  13:56:00      -84.305      -34.227      -23.557       23.415       23.971       10.790      548.254      574.588      116.417        0.504        0.062       90.988        5.143        0.003      350.742       32.133      862.954
07/18/2013  13:57:00        4.698       17.372       13.998       55.938       39.521       28.328     3129.030     1561.877      802.449        0.301        0.275       17.996       24.407        1.839      350.698       32.055      862.948
07/18/2013  13:58:00       68.838      -30.746       50.263       69.856       89.901       76.996     4879.814     8082.273     5928.441        1.355        0.945       75.393       74.024        0.964      350.687       32.037      862.944
07/18/2013  13:59:00      -51.136     -115.182      -25.275       64.691       41.726       39.906     4184.950     1741.052     1592.502        1.202        0.376      126.023       38.002        0.091      350.850       32.320      862.956
07/18/2013  14:00:00       77.294       63.247       46.218       36.654       37.440       32.305     1343.521     1401.724     1043.593        0.795        0.189       99.873       10.136        0.010      350.624       31.927      862.941
07/18/2013  14:01:00       48.048       51.097       26.475       26.975       31.706       22.100      727.632     1005.243      488.416        0.392        0.111       70.139       13.421        0.037      350.992       32.567      862.897
07/18/2013  14:02:00       58.033        5.552       20.035       24.419       29.177       27.913      596.309      851.282      779.146        0.301        0.111       58.298        8.337        0.020      350.546       31.791      862.883
07/18/2013  14:03:00       62.497       10.983       26.686       63.500       37.130       34.129     4032.300     1378.600     1164.764        0.566        0.329       63.455       22.811        0.129      350.441       31.609      862.863
07/18/2013  14:04:00      122.831       11.302      -11.656       54.604       56.158       56.714     2981.553     3153.701     3216.442        1.235        0.468      123.350       41.564        0.114      350.581       31.852      862.869
07/18/2013  14:05:00      153.467       -6.306       53.906      102.736      107.147       70.157    10554.626    11480.580     4921.959        2.672        1.348      153.596       57.869        0.142      350.843       32.307      862.830
07/18/2013  14:06:00       66.025      -21.853       53.780       65.137      103.981       71.645     4242.782    10812.043     5132.963        1.395        1.009       69.547       79.912        1.320      351.098       32.752      862.873
07/18/2013  14:07:00       17.719        9.259       53.468       48.385       81.935       39.647     2341.097     6713.334     1571.854        0.694        0.531       19.992       52.063        6.782      351.274       33.059      862.867
07/18/2013  14:08:00        1.688      -13.321       19.232       25.253       33.164       17.072      637.727     1099.841      291.443        0.129        0.101       13.428       18.172        1.831      351.065       32.694      862.839
07/18/2013  14:09:00       77.715      -68.831       33.894       39.483       44.720       36.800     1558.944     1999.922     1354.217        0.842        0.246      103.814       25.319        0.059      351.252       33.020      862.826
07/18/2013  14:10:00       -8.146      -79.349        1.519       46.304       47.311       32.952     2144.067     2238.314     1085.844        0.592        0.273       79.766       28.220        0.125      351.548       33.536      862.811
07/18/2013  14:11:00       21.066      -29.648       16.105       36.885       35.504       22.226     1360.471     1260.535      494.001        0.235        0.156       36.371       21.486        0.349      350.965       32.521      862.797
07/18/2013  14:12:00       66.126       15.609       23.184       59.725       53.705       39.903     3567.093     2884.213     1592.277        0.660        0.402       67.943       20.318        0.089      350.533       31.769      862.804
07/18/2013  14:13:00      126.301       95.840       32.247      129.890      103.979       70.460    16871.540    10811.665     4964.671        2.941        1.632      158.548       28.480        0.032      351.121       32.790      862.802
07/18/2013  14:14:00      233.889      170.287       28.817       80.102       79.432       63.906     6416.310     6309.371     4083.957        5.067        0.840      289.312       37.781        0.017      351.295       33.091      862.787
07/18/2013  14:15:00      158.071      112.069       31.476       97.515       72.146       60.021     9509.260     5204.982     3602.537        2.842        0.916      193.768       45.616        0.055      351.496       33.443      862.775
07/18/2013  14:16:00      137.172      135.664       10.108       80.572       84.866       77.529     6491.802     7202.303     6010.743        2.851        0.985      192.927       56.516        0.086      351.389       33.258      862.773
07/18/2013  14:17:00       96.167       84.964       -2.893      111.063       48.390       44.858    12335.098     2341.629     2012.229        1.658        0.834      128.323       27.158        0.045      351.259       33.032      862.787
07/18/2013  14:18:00      -32.713      151.361      -23.481       56.566       65.607       28.908     3199.728     4304.277      835.674        1.643        0.417      154.855       20.094        0.017      351.310       33.119      862.766
07/18/2013  14:19:00      -23.110      224.992      -34.467       43.284       49.851       22.155     1873.501     2485.095      490.850        2.860        0.242      226.176       21.967        0.009      351.176       32.884      862.736
07/18/2013  14:20:00      -18.033      201.411      -22.552       50.924       61.475       24.913     2593.244     3779.128      620.650        2.420        0.350      202.217       25.349        0.016      351.330       33.153      862.732
07/18/2013  14:21:00       63.047      124.802       16.368       87.247       76.635       54.179     7612.122     5872.922     2935.347        1.812        0.821      139.823       42.919        0.094      351.572       33.576      862.728
07/18/2013  14:22:00      -28.138      125.002      -10.544       48.763       64.017       35.475     2377.820     4098.228     1258.452        1.213        0.387      128.129       37.089        0.084      351.518       33.484      862.708
07/18/2013  14:23:00       -0.351      160.490      -13.903       58.965      102.701       45.934     3476.829    10547.404     2109.931        2.104        0.807      160.491       47.410        0.087      351.533       33.507      862.702
07/18/2013  14:24:00        6.947      179.606       -9.227       57.207       73.689       51.625     3272.635     5430.070     2665.162        2.188        0.568      179.740       46.197        0.066      351.592       33.611      862.696
07/18/2013  14:25:00       16.880      200.848      -17.493       60.816       79.651       38.911     3698.598     6344.261     1514.070        2.624        0.578      201.556       29.378        0.021      351.540       33.520      862.696
07/18/2013  14:26:00       54.434      173.081      -26.501       55.872      109.015       49.156     3121.736    11884.182     2416.294        2.552        0.871      181.439       52.370        0.083      351.532       33.505      862.682
07/18/2013  14:27:00       28.022       93.637        0.423       43.169       66.885       34.047     1863.537     4473.565     1159.224        0.852        0.375       97.740       36.681        0.141      351.490       33.436      862.692
07/18/2013  14:28:00       44.523       83.450       -6.755       72.141       36.832       31.370     5204.368     1356.604      984.099        0.827        0.377       94.584       22.149        0.055      351.323       33.145      862.701
07/18/2013  14:29:00        0.849       -2.302      -29.074       16.164       33.009       12.902      261.290     1089.575      166.474        0.118        0.076        2.454       16.646       46.011      351.261       33.037      862.695
07/18/2013  14:30:00      -14.087      -33.347        1.303       17.413       32.701       19.469      303.219     1069.377      379.028        0.153        0.088       36.200       13.146        0.132      351.484       33.425      862.664
07/18/2013  14:31:00     -123.078      -70.954        8.511       80.166       46.128       22.861     6426.641     2127.820      522.628        1.466        0.454      142.066       27.931        0.039      351.346       33.184      862.624
07/18/2013  14:32:00     -132.645      -36.591       -5.756       70.764       53.839       37.027     5007.480     2898.646     1370.994        1.412        0.464      137.599       32.570        0.056      351.687       33.778      862.614
07/18/2013  14:33:00     -253.029       39.037      -20.146      100.784       60.143       41.505    10157.371     3617.155     1722.625        4.072        0.775      256.023       52.580        0.042      351.417       33.304      862.593
07/18/2013  14:34:00     -249.161       16.792      -32.522       96.115       69.980       43.795     9238.152     4897.167     1917.979        3.973        0.803      249.727       40.100        0.026      351.774       33.925      862.547
07/18/2013  14:35:00     -291.275      -89.818       -9.797      105.004      103.676       54.975    11025.929    10748.729     3022.283        5.890        1.240      304.809       53.603        0.031      351.676       33.756      862.517
07/18/2013  14:36:00     -319.985      -52.527      -10.044       87.394       63.958       41.358     7637.768     4090.591     1710.471        5.934        0.672      324.268       46.697        0.021      351.339       33.170      862.509
07/18/2013  14:37:00     -234.317      -65.930       -3.627      117.062       90.638       45.916    13703.479     8215.163     2108.250        4.164        1.201      243.416       57.766        0.056      351.637       33.689      862.492
07/18/2013  14:38:00     -144.130      -56.459        7.805       88.188       76.714       43.971     7777.049     5884.995     1933.488        1.981        0.780      154.793       41.545        0.072      351.611       33.644      862.470
07/18/2013  14:39:00      -82.708        9.232        7.706       90.423       76.387       46.842     8176.372     5834.981     2194.200        1.159        0.810       83.222       33.409        0.161      351.889       34.131      862.461
07/18/2013  14:40:00      -31.537       80.141        5.118       53.942       57.105       36.108     2909.694     3261.030     1303.797        0.746        0.374       86.123       20.564        0.057      351.782       33.945      862.460
07/18/2013  14:41:00      -38.639       73.419       -1.789       38.280       44.343       30.670     1465.342     1966.259      940.658        0.563        0.219       82.966       26.006        0.098      351.684       33.774      862.440
07/18/2013  14:42:00       -6.257      132.505       -1.614       44.828       86.029       28.773     2009.577     7400.991      827.902        1.392        0.512      132.652       31.772        0.057      351.607       33.638      862.420
07/18/2013  14:43:00      -16.691      188.513       -3.410       35.052       74.316       40.431     1228.618     5522.914     1634.648        2.211        0.419      189.251       42.349        0.050      351.589       33.605      862.402
07/18/2013  14:44:00      -12.419       85.883       16.446       38.475       48.327       37.322     1480.303     2335.486     1392.964        0.650        0.260       86.776       33.207        0.146      351.813       33.999      862.394
07/18/2013  14:45:00       35.387       63.272       13.964       38.604       34.351       34.536     1490.258     1180.017     1192.760        0.466        0.193       72.495       28.189        0.151      351.854       34.070      862.367
07/18/2013  14:46:00       43.853      141.127      -10.610       44.268       97.076       42.856     1959.669     9423.680     1836.673        1.758        0.661      147.783       53.162        0.129      351.679       33.763      862.350
07/18/2013  14:47:00       22.485      118.521       -9.933       45.034       77.613       38.607     2028.096     6023.708     1490.526        1.210        0.477      120.635       38.724        0.103      351.920       34.185      862.347
07/18/2013  14:48:00       33.447      101.282        2.002       77.169       51.816       45.707     5955.092     2684.893     2089.136        1.105        0.536      106.662       37.695        0.125      351.817       34.006      862.334
07/18/2013  14:49:00      144.374       75.119       15.578       93.697       88.828       44.039     8779.148     7890.343     1939.475        2.267        0.930      162.747       39.091        0.058      351.705       33.808      862.302
07/18/2013  14:50:00      123.971       81.319       27.844       65.932       55.299       42.161     4347.007     3057.975     1777.558        1.597        0.459      148.262       23.508        0.025      351.774       33.931      862.292
07/18/2013  14:51:00      134.057      106.781        9.617       78.478       51.256       45.004     6158.868     2627.127     2025.323        2.014        0.541      171.386       26.496        0.024      351.461       33.381      862.293
07/18/2013  14:52:00      -22.578       90.875        3.775       35.994       53.319       30.943     1295.601     2842.908      957.465        0.694        0.255       93.637       24.893        0.071      351.973       34.280      862.280
07/18/2013  14:53:00       35.896       35.157       16.396       58.043       52.378       30.294     3368.997     2743.490      917.699        0.491        0.352       50.245       21.964        0.191      351.743       33.878      862.271
07/18/2013  14:54:00       85.067       67.164       32.088       67.513       56.303       45.933     4558.027     3170.012     2109.813        1.131        0.492      108.386       24.650        0.052      351.697       33.796      862.259
07/18/2013  14:55:00      111.783       78.066       20.876      111.901       74.357       42.658    12521.815     5528.926     1819.735        1.944        0.994      136.345       27.960        0.042      351.794       33.964      862.236
07/18/2013  14:56:00      144.732       73.852       11.610       85.584       60.364       47.712     7324.707     3643.759     2276.404        1.989        0.662      162.486       14.717        0.008      351.341       33.174      862.221
07/18/2013  14:57:00      101.968       62.665       15.386       72.101       51.420       36.408     5198.492     2643.980     1325.563        1.186        0.458      119.685       19.694        0.027      351.632       33.682      862.206
07/18/2013  14:58:00      -46.354       25.170      -12.063       51.054       50.147       29.064     2606.481     2514.707      844.693        0.445        0.298       52.747       30.285        0.330      351.420       33.313      862.196
07/18/2013  14:59:00     -100.083       56.043      -10.129       38.826       28.882       24.381     1507.483      834.162      594.443        0.810        0.147      114.706       20.954        0.033      351.476       33.411      862.183
07/18/2013  15:00:00      -82.353       70.525      -20.114       36.622       35.065       22.344     1341.172     1229.535      499.238        0.761        0.153      108.424       17.990        0.028      351.653       33.721      862.173
07/18/2013  15:01:00      -43.976      162.828      -10.118       75.139       87.208       42.762     5645.831     7605.311     1828.594        2.181        0.754      168.662       31.090        0.034      351.987       34.300      862.142
07/18/2013  15:02:00       18.689      138.776      -11.847       66.386      106.739       46.643     4407.127    11393.286     2175.586        1.886        0.899      140.029       48.351        0.119      351.934       34.209      862.133
07/18/2013  15:03:00      -22.176      274.394      -20.362       58.782       87.854       35.820     3455.309     7718.322     1283.074        4.433        0.623      275.289       28.043        0.010      351.856       34.070      862.122
07/18/2013  15:04:00      -61.693      179.205      -19.189       59.335       98.181       40.113     3520.638     9639.448     1609.087        2.553        0.738      189.527       43.068        0.052      351.826       34.021      862.137
07/18/2013  15:05:00      -24.339      190.276      -14.396       63.488       97.087       45.322     4030.774     9425.867     2054.125        2.625        0.776      191.827       46.030        0.058      351.693       33.787      862.133
07/18/2013  15:06:00     -105.570       89.790      -18.577       61.012       56.336       37.591     3722.516     3173.757     1413.084        1.393        0.415      138.590       38.274        0.076      351.777       33.937      862.121
07/18/2013  15:07:00     -115.610       17.239      -16.266       79.043      115.871       41.138     6247.751    13426.006     1692.376        1.764        1.068      116.888       38.613        0.109      351.666       33.742      862.096
07/18/2013  15:08:00       -0.662       34.276       32.843       59.401       87.649       41.149     3528.459     7682.324     1693.247        0.758        0.645       34.283       48.874        2.032      351.939       34.218      862.076
07/18/2013  15:09:00     -235.079      -34.856      -20.933       84.781       78.800       43.434     7187.874     6209.447     1886.472        3.610        0.764      237.649       40.046        0.028      351.741       33.871      862.077
07/18/2013  15:10:00     -147.752       38.855        2.252      101.054       75.986       45.307    10211.946     5773.899     2052.748        2.069        0.902      152.776       42.481        0.077      351.978       34.285      862.064
07/18/2013  15:11:00      -74.849       58.324       -3.475       62.465       67.272       50.714     3901.889     4525.487     2571.910        1.001        0.550       94.889       44.984        0.225      351.948       34.235      862.065
07/18/2013  15:12:00     -123.543       57.684       -8.233       87.512      100.466       37.827     7658.371    10093.495     1430.914        1.892        0.959      136.347       31.060        0.052      352.059       34.428      862.064
07/18/2013  15:13:00      -70.239       10.355       24.434       93.576       40.994       35.729     8756.405     1680.500     1276.582        0.867        0.586       70.999       44.656        0.396      352.082       34.468      862.052
07/18/2013  15:14:00      -78.481       42.411       -8.103       38.283       98.127       40.014     1465.586     9628.981     1601.115        1.036        0.635       89.207       18.598        0.043      352.025       34.368      862.048
07/18/2013  15:15:00      -96.923      -14.324        2.994       93.180      113.066       54.048     8682.425    12783.911     2921.154        1.699        1.219       97.976       39.737        0.164      351.984       34.296      862.027
07/18/2013  15:16:00     -118.054      -40.624      -15.996       53.980       46.276       29.112     2913.886     2141.475      847.528        1.087        0.295      124.848       17.286        0.019      351.836       34.039      862.022
07/18/2013  15:17:00      -24.618       22.134       16.072       49.847       32.728       27.660     2484.750     1071.141      765.093        0.284        0.216       33.106       30.723        0.861      352.156       34.597      862.014
07/18/2013  15:18:00      -88.114       49.550        4.271       53.722       91.500       39.334     2886.105     8372.294     1547.181        1.152        0.640      101.090       43.524        0.185      352.097       34.494      862.013
07/18/2013  15:19:00     -116.868       36.567      -29.252       43.748       48.161       26.556     1913.885     2319.454      705.244        1.039        0.247      122.456       28.579        0.054      351.654       33.723      861.996
07/18/2013  15:20:00       -9.671       21.382       25.306       25.742       23.118       18.938      662.654      534.448      358.638        0.137        0.078       23.468       16.447        0.491      352.398       35.021      861.983
07/18/2013  15:21:00      -19.041       63.756       24.113       47.709       54.431       38.396     2276.159     2962.733     1474.215        0.586        0.336       66.538       30.410        0.209      352.180       34.640      861.977
07/18/2013  15:22:00      -73.552       41.728       17.841       61.294       37.739       32.520     3756.971     1424.214     1057.524        0.685        0.312       84.564       33.854        0.160      352.351       34.938      861.964
07/18/2013  15:23:00     -250.657      -15.180      -30.871       66.528       65.139       31.644     4425.914     4243.084     1001.337        3.684        0.484      251.116       25.071        0.010      351.735       33.860      861.961
07/18/2013  15:24:00     -224.859      -24.043      -21.343       85.068       78.804       40.289     7236.644     6210.119     1623.178        3.333        0.753      226.141       34.513        0.023      351.778       33.936      861.950
07/18/2013  15:25:00     -216.880       45.642      -32.314       66.645       46.306       31.448     4441.532     2144.232      988.964        2.887        0.379      221.630       31.110        0.020      351.838       34.040      861.955
07/18/2013  15:26:00     -165.150       48.306      -21.118       51.343       40.820       33.939     2636.108     1666.259     1151.880        1.775        0.273      172.070       25.351        0.022      351.764       33.912      861.955
07/18/2013  15:27:00       -8.473       69.911        0.614       36.744       43.618       29.360     1350.114     1902.511      862.010        0.454        0.206       70.423       24.307        0.119      351.865       34.089      861.936
07/18/2013  15:28:00       -5.842       74.768        0.704       45.926       53.830       30.448     2109.171     2897.640      927.097        0.578        0.297       74.996       31.864        0.181      351.860       34.082      861.922
07/18/2013  15:29:00       -2.420       50.365       18.773       29.571       43.900       29.620      874.421     1927.169      877.366        0.329        0.184       50.423       17.996        0.127      351.978       34.286      861.916
07/18/2013  15:30:00       33.741       29.085       23.332       35.991       32.190       28.386     1295.381     1036.191      805.760        0.283        0.157       44.547       20.945        0.221      351.810       33.994      861.903
07/18/2013  15:31:00       70.808       57.428        3.568       34.152       38.243       30.104     1166.390     1462.530      906.227        0.593        0.177       91.169       18.470        0.041      351.328       33.154      861.881
07/18/2013  15:32:00       65.230      -12.931       -9.745       27.088       26.975       26.999      733.778      727.654      728.929        0.335        0.110       66.499       18.656        0.079      350.399       31.536      861.871
07/18/2013  15:33:00        8.769        0.543       15.882       38.514       32.514       26.472     1483.300     1057.145      700.773        0.178        0.162        8.786       18.520        4.444      351.122       32.794      861.867
07/18/2013  15:34:00       17.025      -28.060        4.502       22.882       29.540       29.794      523.584      872.641      887.698        0.169        0.114       32.821       19.237        0.344      350.758       32.160      861.855
07/18/2013  15:35:00       32.137      -34.821       12.178       27.015       24.545       26.020      729.807      602.468      677.046        0.220        0.100       47.384       19.131        0.163      350.922       32.445      861.845
07/18/2013  15:36:00       -8.296       -2.283        3.307       26.882       23.698       20.674      722.646      561.583      427.394        0.090        0.086        8.604       11.281        1.719      351.576       33.587      861.835
07/18/2013  15:37:00      -52.320      -22.695       -2.813       28.344       36.226       18.632      803.374     1312.353      347.157        0.286        0.123       57.030       11.792        0.043      351.879       34.116      861.818
07/18/2013  15:38:00     -115.954      -14.294       -4.827       26.672       28.723       19.728      711.411      824.992      389.210        0.780        0.096      116.832        6.765        0.003      351.727       33.850      861.804
07/18/2013  15:39:00       -9.678      -41.986       24.010       57.491       41.155       25.978     3305.246     1693.721      674.849        0.405        0.284       43.086       27.907        0.420      351.738       33.869      861.782
07/18/2013  15:40:00        2.707      -94.872       18.484       61.727       60.543       39.654     3810.237     3665.410     1572.463        0.920        0.452       94.910       31.733        0.112      352.026       34.370      861.761
07/18/2013  15:41:00      -38.224      -40.360       29.076       76.643       63.093       34.745     5874.164     3980.672     1207.243        0.750        0.553       55.588       37.914        0.465      352.206       34.684      861.761
07/18/2013  15:42:00     -111.684      -73.753        6.804       99.323       63.359       41.726     9865.147     4014.313     1741.087        1.679        0.781      133.839       43.174        0.104      351.991       34.308      861.752
07/18/2013  15:43:00      -88.338      -96.482       14.852      140.814       65.207       52.794    19828.523     4252.006     2787.172        2.209        1.343      130.814       58.928        0.203      352.022       34.363      861.736
07/18/2013  15:44:00      -65.041     -133.398       19.120       89.400       78.430       47.682     7992.384     6151.188     2273.531        1.940        0.821      148.409       31.705        0.046      352.130       34.550      861.726
07/18/2013  15:45:00      -98.709     -122.058       -5.017       76.899       62.819       33.463     5913.488     3946.174     1119.778        1.782        0.549      156.976       21.586        0.019      352.107       34.510      861.729
07/18/2013  15:46:00      -50.421     -139.908       -8.367       61.659       90.194       43.345     3801.805     8134.926     1878.811        1.800        0.691      148.717       42.508        0.082      351.904       34.156      861.728
07/18/2013  15:47:00       -3.457        5.024       30.771       39.057       35.567       26.364     1525.461     1265.047      695.043        0.223        0.174        6.098       23.731       15.144      352.147       34.584      861.712
07/18/2013  15:48:00        0.760      -27.004       41.010       53.700       69.564       44.320     2883.714     4839.199     1964.299        0.605        0.484       27.014       26.601        0.970      351.851       34.066      861.670
07/18/2013  15:49:00      -18.574     -133.045       -9.074       82.757       94.323       54.587     6848.682     8896.898     2979.767        1.842        0.936      134.335       45.686        0.116      351.990       34.305      861.675
07/18/2013  15:50:00     -106.374     -106.003        4.220       85.774       45.029       51.376     7357.176     2027.571     2639.514        1.729        0.601      150.173       48.616        0.105      351.994       34.314      861.683
07/18/2013  15:51:00      -52.366      -46.087        2.727       70.143       57.887       39.326     4919.990     3350.904     1546.497        0.734        0.491       69.758       39.511        0.321      351.888       34.127      861.686
07/18/2013  15:52:00      -59.274      -45.216        4.924       33.145       33.731       28.521     1098.590     1137.753      813.449        0.432        0.152       74.552       16.021        0.046      351.800       33.976      861.668
07/18/2013  15:53:00        0.284      -50.187       24.872       42.407       48.905       27.208     1798.349     2391.726      740.278        0.403        0.247       50.188       19.862        0.157      352.082       34.469      861.650
07/18/2013  15:54:00        1.442      -13.923        7.848       25.690       25.870       22.311      659.986      669.268      497.771        0.104        0.091       13.997       22.190        2.513      351.661       33.734      861.640
07/18/2013  15:55:00      -70.648      -16.747       18.444       47.929       44.759       28.131     2297.169     2003.387      791.352        0.535        0.255       72.606       25.871        0.127      352.139       34.568      861.627
07/18/2013  15:56:00     -118.770      -42.423        6.190       50.362       50.998       24.188     2536.336     2600.815      585.049        1.083        0.286      126.120       24.811        0.039      351.737       33.866      861.611
07/18/2013  15:57:00     -155.856      -20.801       -3.374       42.639       39.345       25.945     1818.058     1548.041      673.132        1.439        0.202      157.238       21.398        0.019      351.951       34.239      861.592
07/18/2013  15:58:00      -78.123       16.422       -7.500       44.042       28.818       23.907     1939.715      830.449      571.567        0.488        0.167       79.830       15.681        0.039      352.037       34.391      861.590
07/18/2013  15:59:00      -68.839       12.791       -2.588       49.919       26.278       21.335     2491.910      690.551      455.183        0.427        0.182       70.017       25.365        0.131      352.057       34.427      861.587
07/18/2013  16:00:00      -59.765       42.377        5.633       38.965       25.642       26.548     1518.291      657.502      704.775        0.414        0.144       73.264       20.022        0.075      351.969       34.272      861.575
07/18/2013  16:01:00     -159.672       21.687       -7.093       49.037       45.128       23.351     2404.660     2036.554      545.258        1.550        0.249      161.138       24.188        0.023      351.803       33.980      861.562
07/18/2013  16:02:00     -134.886       24.765       -7.608       60.182       29.755       29.530     3621.821      885.341      871.994        1.212        0.269      137.141       30.887        0.051      351.879       34.115      861.538
07/18/2013  16:03:00       -5.814      150.888      -15.576       48.049       49.909       42.532     2308.706     2490.914     1808.961        1.482        0.330      151.000       33.774        0.050      351.908       34.165      861.513
07/18/2013  16:04:00      -34.763      113.971        4.064       76.947       89.685       44.688     5920.860     8043.438     1997.041        1.508        0.798      119.154       43.117        0.131      351.998       34.320      861.494
07/18/2013  16:05:00       -6.335       24.573       11.419       63.885       86.165       41.181     4081.324     7424.474     1695.843        0.699        0.660       25.377       29.401        1.342      352.219       34.708      861.492
07/18/2013  16:06:00       -7.120      -15.341       23.921       33.542       64.963       25.630     1125.035     4220.246      656.891        0.343        0.300       16.913       13.855        0.671      352.158       34.601      861.505
07/18/2013  16:07:00      -34.739      -61.881       10.115       47.688       47.086       28.369     2274.170     2217.072      804.813        0.522        0.265       70.966       21.071        0.088      351.874       34.106      861.491
07/18/2013  16:08:00       58.356      -71.202        7.855       82.448       62.747       51.282     6797.685     3937.211     2629.836        1.095        0.668       92.060       31.331        0.116      351.822       34.013      861.466
07/18/2013  16:09:00       28.754      -80.672       11.565       39.811       37.373       22.404     1584.892     1396.761      501.918        0.548        0.174       85.643       10.340        0.015      351.958       34.253      861.450
07/18/2013  16:10:00       -0.799      -34.718       29.515       44.258       58.997       31.314     1958.803     3480.598      980.559        0.425        0.321       34.727       35.132        1.023      352.171       34.624      861.439
07/18/2013  16:11:00        9.160      -21.477       21.008       40.200       51.212       32.863     1616.072     2622.700     1080.002        0.315        0.266       23.348       14.664        0.394      351.910       34.168      861.433
07/18/2013  16:12:00       53.376        7.519       27.332       49.165       41.525       25.986     2417.166     1724.302      675.257        0.423        0.241       53.903       16.955        0.099      351.303       33.111      861.422
07/18/2013  16:13:00       21.001      -16.499       30.756       24.596       29.685       25.065      604.956      881.178      628.252        0.189        0.106       26.707       18.592        0.485      351.724       33.843      861.420
07/18/2013  16:14:00      -11.689      -64.724       24.452       36.280       42.409       39.823     1316.254     1798.504     1585.859        0.481        0.235       65.771       22.837        0.121      352.153       34.593      861.402
07/18/2013  16:15:00       -8.776      -36.090       21.425       30.067       59.793       30.320      904.002     3575.256      919.302        0.362        0.270       37.142       28.045        0.570      351.738       33.867      861.381
07/18/2013  16:16:00       29.644      -62.978       11.305       64.482       76.139       48.698     4157.875     5797.208     2371.495        0.865        0.616       69.606       46.599        0.448      352.135       34.561      861.369
07/18/2013  16:17:00      138.792     -212.378      -60.890       77.621       87.538       40.828     6024.989     7662.830     1666.886        4.171        0.768      253.708       34.961        0.019      351.905       34.155      861.348
07/18/2013  16:18:00       -7.593      -59.258        5.654       57.793       92.240       54.509     3339.990     8508.215     2971.269        0.921        0.741       59.742       36.237        0.368      352.264       34.787      861.323
07/18/2013  16:19:00       27.167     -111.044        7.879       88.854       62.077       40.163     7894.955     3853.615     1613.031        1.324        0.668      114.319       37.657        0.109      352.002       34.328      861.333
07/18/2013  16:20:00       11.168      -31.962       16.991       59.743       55.854       35.402     3569.213     3119.622     1253.327        0.469        0.397       33.857       26.947        0.633      352.326       34.896      861.314
07/18/2013  16:21:00      -20.779      -27.855       -7.588       40.035       44.863       33.451     1602.801     2012.677     1118.996        0.300        0.237       34.752       21.020        0.366      352.170       34.622      861.297
07/18/2013  16:22:00       73.785     -114.045       -8.352       58.782       82.956       38.334     3455.282     6881.764     1469.492        1.516        0.590      135.832       35.993        0.070      351.941       34.222      861.282
07/18/2013  16:23:00       34.281     -100.891      -18.483       55.513       64.008       35.267     3081.722     4096.977     1243.745        1.006        0.421      106.556       25.949        0.059      351.622       33.665      861.262
07/18/2013  16:24:00       19.339       33.198       29.455       32.762       32.906       24.232     1073.373     1082.780      587.208        0.254        0.137       38.420       18.737        0.238      351.430       33.332      861.230
07/18/2013  16:25:00       46.817       17.569       29.825       26.479       43.844       28.007      701.124     1922.265      784.364        0.340        0.170       50.005       18.817        0.142      351.338       33.171      861.204
07/18/2013  16:26:00       50.409       11.115       14.791       38.435       65.311       30.667     1477.224     4265.517      940.491        0.478        0.334       51.620       31.601        0.375      351.255       33.026      861.181
07/18/2013  16:27:00       69.302        1.238       26.610       67.531       94.444       55.397     4560.400     8919.602     3068.844        1.103        0.827       69.313       58.945        0.723      351.728       33.850      861.145
07/18/2013  16:28:00       90.365     -138.016      -10.267       66.775       89.450       47.350     4458.860     8001.292     2242.000        2.101        0.735      164.967       46.706        0.080      352.260       34.778      861.119
07/18/2013  16:29:00      101.942     -183.326       -7.162       89.861       96.361       62.650     8075.060     9285.390     3924.981        3.266        1.064      209.763       68.949        0.108      352.250       34.759      861.111
07/18/2013  16:30:00       77.824      -84.544       -3.214       75.042      103.657       64.036     5631.362    10744.716     4100.572        1.684        1.024      114.910       60.715        0.279      352.180       34.638      861.110
07/18/2013  16:31:00       77.319     -100.093       -9.717       84.280       95.420       45.384     7103.040     9105.039     2059.673        1.718        0.913      126.479       61.628        0.237      352.185       34.646      861.103
07/18/2013  16:32:00       42.816      -79.292      -16.322       47.768       85.257       58.264     2281.771     7268.801     3394.648        1.066        0.647       90.114       55.432        0.378      352.240       34.744      861.092
07/18/2013  16:33:00      107.085     -139.777      -17.015       45.995       73.652       36.372     2115.572     5424.632     1322.909        2.008        0.443      176.082       30.239        0.029      352.162       34.607      861.089
07/18/2013  16:34:00       89.195     -160.652       -3.719       59.824      102.941       43.868     3578.898    10596.796     1924.361        2.494        0.805      183.752       44.419        0.058      352.189       34.653      861.079
07/18/2013  16:35:00       44.441      -44.311       53.073       50.343       91.466       48.417     2534.464     8366.035     2344.199        1.000        0.662       62.757       57.343        0.835      352.090       34.483      861.081
07/18/2013  16:36:00       75.455      -68.150       29.513       71.008       68.127       40.695     5042.143     4641.334     1656.082        1.127        0.567      101.675       42.641        0.176      351.741       33.872      861.065
07/18/2013  16:37:00      -28.463     -116.489       -8.528       69.570       52.899       38.827     4840.047     2798.304     1507.560        1.180        0.457      119.916       32.591        0.074      352.332       34.904      861.049
07/18/2013  16:38:00      -52.211      -64.061       26.869       81.060       71.209       41.136     6570.779     5070.652     1692.173        1.044        0.667       82.643       45.192        0.299      352.301       34.853      861.058
07/18/2013  16:39:00      -83.070      -22.353       11.521       45.159       40.702       24.618     2039.376     1656.681      606.035        0.592        0.215       86.025        8.155        0.009      352.421       35.062      861.056
07/18/2013  16:40:00      -28.956      -23.945       26.155       53.674       48.881       39.279     2880.883     2389.398     1542.824        0.445        0.341       37.574       39.143        1.085      352.468       35.145      861.050
07/18/2013  16:41:00       -3.634     -120.890       -4.921       44.325       57.617       37.111     1964.724     3319.698     1377.257        1.066        0.333      120.944       28.667        0.056      352.245       34.752      861.039
07/18/2013  16:42:00      -27.137     -129.984      -10.064       54.296       65.929       53.645     2948.043     4346.656     2877.804        1.395        0.509      132.787       41.512        0.098      352.159       34.602      861.043
07/18/2013  16:43:00       23.465     -159.450        5.402      103.429       74.317       50.324    10697.582     5522.983     2532.511        2.237        0.938      161.167       37.317        0.054      352.183       34.643      861.040
07/18/2013  16:44:00     -155.135     -113.148        1.646      104.299       69.195       46.942    10878.277     4787.982     2203.526        2.737        0.893      192.014       57.203        0.089      352.303       34.852      861.051
07/18/2013  16:45:00       24.174      -69.686        3.531       74.576       53.317       31.575     5561.537     2842.684      996.969        0.743        0.470       73.760       29.579        0.161      351.983       34.293      861.051
07/18/2013  16:46:00       17.530       -7.517       18.117       34.602       23.473       18.738     1197.326      551.002      351.128        0.140        0.105       19.074        5.743        0.091      351.827       34.023      861.028
07/18/2013  16:47:00       -1.696     -100.711       -0.425       49.791       66.648       37.941     2479.103     4441.905     1439.543        0.925        0.418      100.725       40.300        0.160      351.860       34.082      861.021
07/18/2013  16:48:00      -11.622      -34.702       10.692       49.496       44.665       26.926     2449.854     1994.969      725.012        0.331        0.258       36.596       22.203        0.368      352.171       34.625      861.022
07/18/2013  16:49:00      -18.914       12.110       21.085       32.882       29.575       32.363     1081.225      874.693     1047.376        0.198        0.150       22.459       30.205        1.809      351.816       34.005      861.019
07/18/2013  16:50:00     -100.416      -44.376        3.388      120.460       62.701       40.509    14510.593     3931.441     1641.012        1.607        1.004      109.785       20.011        0.033      352.105       34.509      861.029
07/18/2013  16:51:00     -186.360      -59.008       -4.426       88.394       87.605       33.559     7813.455     7674.672     1126.176        2.742        0.831      195.479       31.819        0.026      352.226       34.719      861.028
07/18/2013  16:52:00     -192.868      -44.336       -6.150       81.530       55.818       32.636     6647.154     3115.697     1065.101        2.501        0.541      197.898       39.808        0.040      352.111       34.516      861.028
07/18/2013  16:53:00     -160.008      -19.973       -7.447       69.944       64.787       29.536     4892.168     4197.308      872.400        1.801        0.498      161.250       33.659        0.044      352.113       34.522      861.027
07/18/2013  16:54:00      -94.916       16.487        5.725       60.838       42.846       30.672     3701.248     1835.775      940.802        0.789        0.324       96.338       29.106        0.091      352.306       34.860      861.011
07/18/2013  16:55:00      -38.737       49.007        9.356       47.030       44.925       35.755     2211.798     2018.251     1278.439        0.475        0.275       62.467       35.326        0.320      352.340       34.920      861.008
07/18/2013  16:56:00       -1.304       71.231       20.860       36.619       73.940       40.600     1340.955     5467.069     1648.362        0.698        0.423       71.243       43.163        0.367      352.256       34.773      860.984
07/18/2013  16:57:00       10.413      173.694      -20.093       41.364       75.005       43.474     1710.940     5625.771     1889.996        1.995        0.461      174.005       42.715        0.060      352.053       34.416      860.975
07/18/2013  16:58:00      -69.240      128.394      -16.709       49.366       68.568       32.194     2436.981     4701.626     1036.485        1.487        0.409      145.874       26.137        0.032      352.152       34.589      860.975
07/18/2013  16:59:00      -67.017      122.861      -21.682       29.449       85.468       28.840      867.272     7304.807      831.739        1.453        0.450      139.950       29.286        0.044      352.115       34.523      860.957
07/18/2013  17:00:00      -34.183       81.120      -11.299       53.523       52.800       26.015     2864.659     2787.858      676.757        0.710        0.316       88.028       19.604        0.050      352.101       34.501      860.944
07/18/2013  17:01:00       70.362       59.952       -7.116       22.711       22.893       16.561      515.811      524.067      274.266        0.495        0.066       92.439       14.241        0.024      351.992       34.309      860.929
07/18/2013  17:02:00       59.553       36.292        8.164       72.738       38.072       34.531     5290.779     1449.454     1192.374        0.643        0.397       69.740       17.267        0.061      351.226       32.976      860.915
07/18/2013  17:03:00      -55.208       63.504      -10.413       52.207       46.958       36.010     2725.592     2205.010     1296.749        0.671        0.311       84.147       38.644        0.211      352.264       34.786      860.899
07/18/2013  17:04:00      -36.814      109.077      -13.309       28.308       48.207       24.373      801.342     2323.948      594.053        0.857        0.186      115.122       24.107        0.044      352.071       34.449      860.895
07/18/2013  17:05:00      -23.541       71.008       -0.918       37.448       43.328       23.255     1402.345     1877.289      540.809        0.471        0.191       74.809       21.166        0.080      352.259       34.778      860.877
07/18/2013  17:06:00      -17.133      143.293      -26.546       33.306       49.328       17.279     1109.301     2433.289      298.558        1.269        0.192      144.314       22.799        0.025      352.012       34.347      860.868
07/18/2013  17:07:00      -48.578      105.451      -23.305       27.865       24.713       17.024      776.441      610.727      289.809        0.785        0.084      116.102       13.959        0.014      352.039       34.394      860.850
07/18/2013  17:08:00      -26.558      180.797      -29.577       31.831       37.251       18.521     1013.240     1387.647      343.012        1.851        0.137      182.737       16.068        0.008      352.026       34.369      860.842
07/18/2013  17:09:00      -51.042      100.987      -20.808       38.075       34.890       21.831     1449.730     1217.313      476.607        0.819        0.157      113.154       22.437        0.039      352.079       34.464      860.829
07/18/2013  17:10:00      -42.419       43.985        0.475       25.954       32.845       20.486      673.614     1078.772      419.658        0.295        0.109       61.107       13.958        0.052      352.190       34.657      860.819
07/18/2013  17:11:00      -33.505       59.283      -10.005       27.061       43.990       21.313      732.286     1935.159      454.246        0.393        0.156       68.096       22.537        0.110      352.111       34.519      860.806
07/18/2013  17:12:00      -23.370      174.070      -24.399       30.309       42.227       21.718      918.666     1783.134      471.669        1.731        0.159      175.632        9.389        0.003      352.074       34.454      860.806
07/18/2013  17:13:00       -9.588       57.041        1.375       38.620       37.778       28.549     1491.527     1427.196      815.074        0.354        0.187       57.842       23.929        0.171      352.227       34.722      860.797
07/18/2013  17:14:00        1.123       12.728       -7.199       39.042       46.444       25.188     1524.294     2157.019      634.442        0.226        0.216       12.777        4.583        0.129      351.674       33.756      860.788
07/18/2013  17:15:00       23.426       -7.014       -4.305       47.563       43.433       28.026     2262.237     1886.463      785.457        0.277        0.247       24.454       23.015        0.886      351.601       33.630      860.786
07/18/2013  17:16:00      108.935       51.362        0.168       88.660       69.225       42.669     7860.594     4792.125     1820.649        1.449        0.724      120.436       31.022        0.066      351.738       33.867      860.773
07/18/2013  17:17:00      161.213       97.818       -4.084       75.558       67.761       44.310     5708.964     4591.589     1963.385        2.392        0.613      188.569       12.828        0.005      352.059       34.426      860.765
07/18/2013  17:18:00       85.117       42.846        9.501       55.381       35.981       30.303     3067.035     1294.623      918.270        0.722        0.264       95.293       30.480        0.102      351.972       34.277      860.769
07/18/2013  17:19:00       -7.322      122.174       -9.462       54.065       78.196       27.544     2923.005     6114.692      758.670        1.243        0.490      122.393       28.990        0.056      351.820       34.010      860.750
07/18/2013  17:20:00      -20.993      130.484      -18.010       29.122       49.943       22.559      848.098     2494.316      508.896        1.082        0.193      132.162       23.815        0.032      352.256       34.773      860.740
07/18/2013  17:21:00      -26.414      146.003      -21.221       29.121       36.211       18.872      848.030     1311.266      356.167        1.249        0.126      148.373        7.635        0.003      352.302       34.853      860.733
07/18/2013  17:22:00      -16.371       70.546       -0.230       36.134       36.730       21.054     1305.667     1349.114      443.265        0.417        0.155       72.421       18.014        0.062      352.352       34.942      860.725
07/18/2013  17:23:00      -12.681       39.840        8.039       33.775       72.202       32.771     1140.763     5213.110     1073.971        0.462        0.371       41.809       37.850        0.820      352.363       34.960      860.717
07/18/2013  17:24:00       27.047      -39.199       19.851       36.988       38.331       33.532     1368.107     1469.255     1124.393        0.331        0.198       47.625       17.429        0.134      351.923       34.192      860.717
07/18/2013  17:25:00       23.454       -5.055       17.389       22.650       27.131       25.487      513.017      736.073      649.587        0.139        0.095       23.993       15.797        0.433      351.792       33.962      860.719
07/18/2013  17:26:00       10.773       11.345       16.476       30.051       39.072       26.474      903.043     1526.651      700.897        0.182        0.157       15.644        6.677        0.182      352.048       34.411      860.712
07/18/2013  17:27:00       30.098       15.351       -5.483       40.698       29.353       19.955     1656.287      861.604      398.197        0.204        0.146       33.786       14.805        0.192      351.918       34.183      860.708
07/18/2013  17:28:00      -18.576      -35.692       -0.264       59.229       41.481       19.025     3508.044     1720.676      361.955        0.360        0.280       40.236       11.263        0.078      352.481       35.167      860.698
07/18/2013  17:29:00      -47.353       10.760       16.978       41.486       44.199       31.069     1721.102     1953.550      965.313        0.364        0.232       48.560       25.836        0.283      352.412       35.046      860.691
07/18/2013  17:30:00      -29.890      -19.654       -5.256       39.193       31.913       25.566     1536.081     1018.433      653.617        0.226        0.160       35.773       23.524        0.432      352.260       34.780      860.686
07/18/2013  17:31:00      -89.046       -6.677       -7.681       46.776       41.759       24.522     2188.033     1743.847      601.335        0.628        0.227       89.296       21.065        0.056      352.515       35.225      860.681
07/18/2013  17:32:00      -11.452       21.013        7.523      102.028       47.692       28.156    10409.674     2274.516      792.772        0.705        0.674       23.931       24.223        1.025      352.173       34.629      860.678
07/18/2013  17:33:00      -10.725       37.222        3.781       37.770       35.914       20.158     1426.606     1289.802      406.340        0.232        0.156       38.736       14.861        0.147      352.070       34.448      860.664
07/18/2013  17:34:00      -80.884       56.973        6.417       84.166       40.696       32.870     7083.933     1656.195     1080.412        0.982        0.491       98.935       39.997        0.163      352.397       35.021      860.655
07/18/2013  17:35:00     -153.847      -13.557      -14.001       56.140       57.594       37.459     3151.720     3317.111     1403.185        1.596        0.394      154.444       33.574        0.047      352.551       35.287      860.649
07/18/2013  17:36:00     -133.921      -79.875        5.073       63.516       54.502       38.031     4034.307     2970.480     1446.369        1.639        0.423      155.932       29.158        0.035      352.407       35.036      860.630
07/18/2013  17:37:00      -75.399       22.111       -1.793       36.969       41.684       22.604     1366.727     1737.518      510.929        0.490        0.181       78.575       17.997        0.052      352.538       35.265      860.634
07/18/2013  17:38:00      -15.897      -83.155        9.548       56.937       61.873       25.292     3241.855     3828.251      639.663        0.748        0.385       84.661       18.368        0.047      352.434       35.085      860.628
07/18/2013  17:39:00     -145.548      -39.487      -13.157       41.593       38.104       19.953     1729.948     1451.925      398.142        1.325        0.179      150.809       19.269        0.016      352.355       34.946      860.632
07/18/2013  17:40:00     -100.345      -10.051       -2.357       53.682       34.702       28.233     2881.810     1204.257      797.101        0.753        0.244      100.847       25.788        0.065      352.386       35.002      860.628
07/18/2013  17:41:00      -25.797      -25.324        5.182       47.812       30.031       27.236     2286.007      901.832      741.815        0.263        0.196       36.149       20.731        0.329      352.062       34.435      860.619
07/18/2013  17:42:00      -65.856      -41.868        2.786       58.272       39.920       31.038     3395.664     1593.578      963.365        0.602        0.298       78.038       29.602        0.144      352.301       34.851      860.620
07/18/2013  17:43:00     -124.418        9.324       -2.678       63.049       52.051       28.333     3975.132     2709.285      802.770        1.153        0.374      124.767       29.091        0.054      352.518       35.230      860.607
07/18/2013  17:44:00     -111.582       -5.552       -9.467       49.094       56.403       34.244     2410.259     3181.290     1172.620        0.967        0.338      111.720       30.873        0.076      352.642       35.448      860.595
07/18/2013  17:45:00     -160.474      -87.177       -6.504       61.203       41.432       30.109     3745.773     1716.627      906.566        1.988        0.318      182.625       26.851        0.022      352.391       35.008      860.573
07/18/2013  17:46:00     -187.708      -75.939      -17.879       73.337       54.987       29.744     5378.291     3023.619      884.682        2.530        0.464      202.487       25.914        0.016      352.454       35.116      860.565
07/18/2013  17:47:00      -96.078      -23.494       -5.818       68.076       52.324       35.558     4634.371     2737.800     1264.387        0.922        0.432       98.909       30.835        0.097      352.560       35.305      860.555
07/18/2013  17:48:00       -1.828       19.524       21.036       42.062       28.304       32.002     1769.205      801.137     1024.120        0.221        0.180       19.610       19.015        0.940      351.541       33.524      860.555
07/18/2013  17:49:00      -61.450       55.803       10.981       56.917       44.268       27.802     3239.576     1959.677      772.925        0.649        0.299       83.007       31.053        0.140      351.979       34.290      860.561
07/18/2013  17:50:00      -52.790      165.111      -19.323       64.660       70.410       40.424     4180.868     4957.611     1634.114        2.059        0.539      173.344       40.404        0.054      352.289       34.830      860.563
07/18/2013  17:51:00       89.361      106.563        8.596       88.890       65.710       61.848     7901.431     4317.827     3825.127        1.773        0.802      139.072       40.749        0.086      352.222       34.712      860.560
07/18/2013  17:52:00      129.587      119.321        5.366       72.975       49.037       47.250     5325.322     2404.582     2232.589        2.051        0.498      176.154       32.027        0.033      352.070       34.445      860.560
07/18/2013  17:53:00       73.427       75.629       -0.352       48.731       41.963       31.860     2374.691     1760.907     1015.055        0.813        0.258      105.410       26.934        0.065      352.173       34.628      860.556
07/18/2013  17:54:00       52.428      124.582        0.380       41.281       56.439       42.015     1704.120     3185.319     1765.256        1.246        0.333      135.164       41.355        0.094      352.167       34.618      860.539
07/18/2013  17:55:00       16.623      112.240      -13.482       39.511       62.753       33.025     1561.145     3937.993     1090.681        0.982        0.329      113.464       37.672        0.110      352.229       34.725      860.531
07/18/2013  17:56:00        7.054       72.873       -7.774       27.263       61.114       25.325      743.285     3734.893      641.345        0.527        0.256       73.214       33.500        0.209      352.226       34.722      860.523
07/18/2013  17:57:00       25.726       99.249       -2.844       40.087       76.141       34.959     1606.994     5797.411     1222.156        0.957        0.431      102.529       39.894        0.151      352.351       34.939      860.519
07/18/2013  17:58:00      150.239      195.411       -1.070      107.248      123.391       70.207    11502.240    15225.434     4929.083        4.620        1.583      246.489       69.416        0.079      352.189       34.653      860.507
07/18/2013  17:59:00      -26.300      261.530      -37.301       66.884       89.297       37.941     4473.473     7973.869     1439.491        4.218        0.694      262.849       46.054        0.031      352.195       34.661      860.505
07/18/2013  18:00:00       71.159       83.681       10.476       81.856       85.042       59.974     6700.377     7232.213     3596.915        1.485        0.876      109.846       45.560        0.172      352.264       34.785      860.502
07/18/2013  18:01:00      164.413      134.610       21.007      110.688       74.495       54.364    12251.919     5549.538     2955.483        3.317        1.038      212.489       36.176        0.029      352.197       34.666      860.491
07/18/2013  18:02:00      226.931      130.913       32.877       79.871       60.215       58.352     6379.307     3625.803     3404.912        4.156        0.671      261.985       45.906        0.031      352.235       34.731      860.483
07/18/2013  18:03:00      156.082       88.812       29.081       70.267       47.848       43.811     4937.427     2289.414     1919.391        2.112        0.457      179.580       35.287        0.039      352.107       34.511      860.501
07/18/2013  18:04:00       32.890       70.837       -6.955       51.829       47.309       36.754     2686.279     2238.188     1350.886        0.621        0.314       78.100       32.093        0.169      352.186       34.651      860.518
07/18/2013  18:05:00      -35.024       85.686       -5.322       34.313       73.528       23.110     1177.364     5406.383      534.057        0.786        0.356       92.568       30.156        0.106      352.256       34.773      860.522
07/18/2013  18:06:00      -52.207      184.991      -31.044       31.275       43.213       20.658      978.122     1867.375      426.733        2.059        0.164      192.216       20.292        0.011      352.153       34.588      860.532
07/18/2013  18:07:00      -55.773      131.303      -13.149       47.523       59.041       28.951     2258.482     3485.898      838.161        1.355        0.329      142.657       29.223        0.042      352.201       34.675      860.536
07/18/2013  18:08:00      -26.353      133.567      -16.275       39.861       73.336       27.083     1588.931     5378.134      733.467        1.325        0.385      136.142       36.219        0.071      352.291       34.833      860.543
07/18/2013  18:09:00     -125.535      229.496      -32.739       65.120       60.838       37.239     4240.601     3701.319     1386.763        3.941        0.466      261.586       38.292        0.021      352.121       34.531      860.554
07/18/2013  18:10:00      -44.431      150.450      -24.688       49.158       57.361       23.304     2416.510     3290.263      543.099        1.573        0.312      156.873       20.422        0.017      352.114       34.522      860.546
07/18/2013  18:11:00      -87.322       64.193      -17.161       90.745       69.215       36.473     8234.673     4790.660     1330.272        1.320        0.718      108.378       31.414        0.084      352.118       34.530      860.527
07/18/2013  18:12:00     -133.465       -7.289      -20.249       58.357       40.256       26.541     3405.559     1620.539      704.424        1.200        0.287      133.664       21.351        0.026      352.249       34.760      860.515
07/18/2013  18:13:00     -118.239      -27.381        4.081       42.322       35.254       24.787     1791.154     1242.850      614.375        0.920        0.182      121.368       20.432        0.028      352.332       34.907      860.513
07/18/2013  18:14:00       -3.126       50.035        1.217       23.926       36.026       21.337      572.433     1297.885      455.281        0.242        0.116       50.133       16.095        0.103      351.749       33.888      860.516
07/18/2013  18:15:00     -109.800      106.948      -13.258       63.806       53.681       27.204     4071.238     2881.683      740.057        1.568        0.385      153.277       28.612        0.035      352.041       34.397      860.533
07/18/2013  18:16:00      -59.351       20.405       18.446       79.684       50.098       33.413     6349.516     2509.824     1116.444        0.713        0.499       62.761       44.621        0.505      352.087       34.477      860.521
07/18/2013  18:17:00      -30.701       -3.080        9.250       77.152       37.931       19.782     5952.399     1438.779      391.335        0.441        0.389       30.855       22.482        0.531      351.975       34.283      860.518
07/18/2013  18:18:00     -107.424       19.589      -11.684       50.377       36.887       25.711     2537.884     1360.676      661.033        0.831        0.228      109.196       20.329        0.035      352.252       34.764      860.512
07/18/2013  18:19:00      -57.285      -17.213       -1.237       57.778       27.573       33.327     3338.350      760.296     1110.710        0.439        0.260       59.815       27.119        0.206      352.423       35.063      860.501
07/18/2013  18:20:00        7.006      -15.796       37.730       31.625       58.336       23.342     1000.149     3403.045      544.835        0.333        0.247       17.280       21.898        1.606      351.959       34.255      860.504
07/18/2013  18:21:00      -14.697       79.628        6.307       25.330       59.186       31.044      641.607     3503.023      963.724        0.585        0.255       80.973       39.122        0.233      351.598       33.623      860.515
07/18/2013  18:22:00      -30.930       86.432       -3.927       41.202       33.183       28.381     1697.584     1101.125      805.480        0.602        0.180       91.799       13.905        0.023      352.148       34.585      860.519
07/18/2013  18:23:00      -39.041       43.969      -14.303       38.437       49.392       20.576     1477.440     2439.606      423.382        0.400        0.217       58.801        6.810        0.013      352.347       34.933      860.525
07/18/2013  18:24:00      -64.217       -7.421        4.467       27.071       27.246       19.142      732.858      742.371      366.405        0.302        0.092       64.645       13.632        0.044      352.562       35.309      860.529
07/18/2013  18:25:00      -81.075       15.674        3.026       23.958       30.923       17.356      573.975      956.202      301.220        0.433        0.092       82.576        8.616        0.011      352.541       35.271      860.534
07/18/2013  18:26:00      -78.662       28.189        1.874       23.372       23.238       20.944      546.260      540.023      438.645        0.426        0.076       83.560       11.500        0.019      352.485       35.174      860.548
07/18/2013  18:27:00     -119.536        7.838       -7.994       60.395       52.511       28.341     3647.591     2757.435      803.235        1.081        0.360      119.793       32.839        0.075      352.450       35.112      860.592
07/18/2013  18:28:00     -327.841      -79.794      -18.278      132.604      134.387       61.755    17583.892    18059.766     3813.671        7.681        1.973      337.412       57.464        0.029      352.330       34.897      860.629
07/18/2013  18:29:00     -271.014       -2.495      -10.027      164.947      190.035       78.741    27207.395    36113.379     6200.096        7.152        3.476      271.025       72.293        0.071      352.231       34.726      860.626
07/18/2013  18:30:00     -207.382      -13.067      -41.583      116.125      119.866       48.590    13484.907    14367.784     2360.993        3.755        1.511      207.793       23.520        0.013      352.343       34.922      860.629
07/18/2013  18:31:00     -570.054       -3.844      -71.819      139.431       87.759       64.546    19441.063     7701.562     4166.197       18.072        1.565      570.067       69.092        0.015      352.156       34.592      860.636
07/18/2013  18:32:00     -320.334      -87.434      -16.810      123.875       92.004       61.183    15344.992     8464.740     3743.403        6.904        1.378      332.052       67.677        0.042      352.273       34.796      860.643
07/18/2013  18:33:00     -277.913      -61.665      -19.054       73.174       59.414       41.361     5354.391     3530.044     1710.758        4.600        0.530      284.672       21.039        0.005      352.270       34.792      860.661
07/18/2013  18:34:00     -118.571      -39.830       -0.690       98.566       53.777       41.187     9715.182     2891.941     1696.332        1.497        0.715      125.082       45.405        0.132      352.320       34.883      860.658
07/18/2013  18:35:00      -57.008        5.195        7.530       93.189       69.321       44.940     8684.280     4805.402     2019.636        0.942        0.775       57.244       42.612        0.554      352.284       34.821      860.659
07/18/2013  18:36:00      -43.239        0.430        4.987       53.268       51.692       33.538     2837.476     2672.084     1124.801        0.426        0.332       43.241       28.588        0.437      352.347       34.932      860.660
07/18/2013  18:37:00     -104.996      -38.168       -0.340       62.715       52.020       33.173     3933.216     2706.066     1100.458        1.011        0.387      111.719       31.106        0.078      352.201       34.677      860.639
07/18/2013  18:38:00       -2.272        3.060        6.116       47.753       75.520       33.808     2280.335     5703.309     1142.990        0.459        0.456        3.811       18.849       24.466      352.052       34.417      860.620
07/18/2013  18:39:00      -61.403      -51.544       -1.196       99.778       72.340       43.399     9955.642     5233.100     1883.461        1.175        0.854       80.169       43.484        0.294      352.057       34.424      860.609
07/18/2013  18:40:00     -194.172      -56.445       -7.601       89.028       68.981       43.856     7925.904     4758.441     1923.342        2.777        0.730      202.209       28.820        0.020      352.223       34.712      860.616
07/18/2013  18:41:00     -226.332      -79.563        2.802      124.513       98.868       59.250    15503.374     9774.937     3510.560        4.317        1.439      239.909       70.599        0.087      352.244       34.748      860.643
07/18/2013  18:42:00     -289.030      -70.163      -15.732      119.792      113.243       54.769    14350.222    12823.933     2999.648        5.944        1.509      297.424       59.910        0.041      352.208       34.685      860.641
07/18/2013  18:43:00     -239.237      -35.758      -21.437       79.510       84.296       41.629     6321.847     7105.739     1733.004        3.706        0.758      241.895       33.170        0.019      352.265       34.785      860.648
07/18/2013  18:44:00     -205.784      -73.052      -24.672       85.356       95.300       44.690     7285.660     9082.037     1997.221        3.332        0.918      218.366       36.400        0.028      352.274       34.800      860.670
07/18/2013  18:45:00     -284.687      -38.958      -17.527       81.645       76.894       44.545     6665.853     5912.687     1984.272        4.871        0.728      287.340       44.097        0.024      352.218       34.702      860.681
07/18/2013  18:46:00     -238.778      -24.609      -11.662      110.588      123.278       65.416    12229.738    15197.385     4279.228        4.473        1.585      240.043       64.514        0.072      352.184       34.642      860.677
07/18/2013  18:47:00     -395.322      -41.302      -23.808      205.914      133.251       75.367    42400.624    17755.905     5680.193       11.218        3.292      397.473       92.380        0.054      352.049       34.405      860.653
07/18/2013  18:48:00     -256.575     -120.969      -27.603      170.424      117.298       83.794    29044.194    13758.704     7021.474        6.552        2.491      283.662       77.967        0.076      352.154       34.590      860.660
07/18/2013  18:49:00     -373.311     -104.120      -23.371      170.001      155.952       65.302    28900.210    24321.006     4264.379       10.411        2.874      387.559       75.958        0.038      352.023       34.361      860.673
07/18/2013  18:50:00     -315.844       53.145      -26.046      177.901      104.768       64.622    31648.757    10976.413     4176.015        7.502        2.340      320.284       66.345        0.043      352.100       34.496      860.669
07/18/2013  18:51:00     -441.677       -4.173      -33.660      163.392      106.942       66.966    26696.964    11436.690     4484.474       11.941        2.131      441.696       74.571        0.029      352.064       34.431      860.681
07/18/2013  18:52:00     -271.103      -77.875       -3.327      168.419      123.895       72.290    28364.815    15350.004     5225.828        6.425        2.447      282.066       73.312        0.068      352.078       34.458      860.712
07/18/2013  18:53:00     -218.489      -49.185        6.768      169.200      105.418       74.727    28628.641    11112.954     5584.156        4.776        2.266      223.957       88.727        0.157      352.025       34.366      860.707
07/18/2013  18:54:00     -407.989     -105.889       -5.380      155.838      125.727       67.607    24285.467    15807.277     4570.753       11.117        2.233      421.506       70.445        0.028      351.953       34.239      860.686
07/18/2013  18:55:00     -537.714       -4.196      -46.236      126.234      143.455       64.760    15934.992    20579.439     4193.837       16.599        2.035      537.731       48.201        0.008      351.907       34.157      860.686
07/18/2013  18:56:00     -372.266      -39.676      -21.083      176.016      119.982       67.241    30981.775    14395.587     4521.377        9.524        2.495      374.374       89.167        0.057      351.859       34.073      860.702
07/18/2013  18:57:00     -262.650        0.562        8.288      161.563      114.490       62.587    26102.650    13107.892     3917.146        5.608        2.156      262.650       65.895        0.063      351.946       34.227      860.710
07/18/2013  18:58:00     -556.979      -26.723      -39.879      204.925      196.390       79.545    41994.248    38569.009     6327.464       19.969        4.345      557.620       88.837        0.025      351.821       34.008      860.696
07/18/2013  18:59:00     -339.213      -82.640      -10.104      157.942      147.379       81.307    24945.566    21720.589     6610.839        8.763        2.664      349.135       78.335        0.050      351.803       33.975      860.683
07/18/2013  19:00:00     -406.129      -43.948      -10.367      151.609      124.935       65.877    22985.258    15608.635     4339.834       10.495        2.147      408.500       82.472        0.041      351.779       33.935      860.699
07/18/2013  19:01:00     -253.885      -62.025       10.650      158.310      114.695       70.378    25062.088    13155.033     4953.037        5.579        2.159      261.352       77.356        0.088      351.774       33.927      860.741
07/18/2013  19:02:00     -422.552     -166.981      -26.417      127.054      123.734       73.162    16142.794    15310.191     5352.617       12.196        1.840      454.349       60.370        0.018      351.726       33.844      860.745
07/18/2013  19:03:00     -343.786      -54.106      -22.112      136.105      100.775       60.565    18524.524    10155.573     3668.079        7.697        1.617      348.018       62.247        0.032      351.767       33.914      860.772
07/18/2013  19:04:00     -266.183     -108.791       -6.137      171.774       84.215       53.655    29506.303     7092.173     2878.824        6.109        1.974      287.557       67.969        0.056      351.743       33.873      860.773
07/18/2013  19:05:00     -413.432      -89.523      -18.071      191.630      146.963       87.086    36722.132    21598.215     7583.996       12.257        3.295      423.013       91.390        0.047      351.684       33.770      860.801
07/18/2013  19:06:00     -323.655     -110.634      -14.368      207.315      150.007       72.812    42979.570    22502.052     5301.574        9.398        3.539      342.042       92.209        0.073      351.636       33.688      860.836
07/18/2013  19:07:00     -172.991     -158.840       -9.325      135.668      126.236       73.874    18405.895    15935.484     5457.297        4.751        1.990      234.853       74.209        0.100      351.667       33.741      860.843
07/18/2013  19:08:00     -221.771      -20.842       -6.005       92.204       75.183       52.518     8501.562     5652.492     2758.099        3.328        0.846      222.748       42.438        0.036      351.712       33.819      860.845
07/18/2013  19:09:00     -272.812      -84.516       -1.762      108.054      117.170       63.563    11675.628    13728.917     4040.230        5.550        1.472      285.603       55.328        0.038      351.651       33.713      860.859
07/18/2013  19:10:00     -182.474     -108.265        7.624      136.472      109.762       72.991    18624.497    12047.735     5327.736        4.053        1.800      212.175       78.998        0.139      351.626       33.669      860.877
07/18/2013  19:11:00     -467.268     -276.437      -12.846      239.063      183.142       98.812    57151.142    33540.999     9763.782       19.767        5.023      542.915      109.512        0.041      351.570       33.572      860.849
07/18/2013  19:12:00     -377.090     -176.279       -0.230      184.531      153.316       81.254    34051.765    23505.701     6602.290       11.870        3.208      416.258       73.594        0.031      351.540       33.520      860.876
07/18/2013  19:13:00     -253.646     -152.825       -3.431      124.759      121.214       61.241    15564.783    14692.889     3750.454        6.085        1.700      296.128       62.980        0.045      351.573       33.576      860.911
07/18/2013  19:14:00     -184.953     -129.245        8.178      147.025      108.317       64.307    21616.497    11732.518     4135.346        4.422        1.874      225.637       79.732        0.125      351.549       33.536      860.929
07/18/2013  19:15:00     -273.153     -101.721      -12.632      118.416       92.660       54.015    14022.374     8585.788     2917.646        5.532        1.276      291.479       49.904        0.029      351.568       33.567      860.945
07/18/2013  19:16:00     -261.913     -129.274       -2.401      143.314      147.826       73.350    20538.876    21852.553     5380.290        6.653        2.389      292.079       78.946        0.073      351.531       33.504      860.937
07/18/2013  19:17:00     -399.870     -136.295      -20.543      223.456      151.419       66.156    49932.445    22927.756     4376.631       12.805        3.862      422.459       69.185        0.027      351.542       33.523      860.947
07/18/2013  19:18:00     -376.974      -61.551       -9.295      180.541      162.907       71.058    32595.058    26538.541     5049.191       10.507        3.209      381.966       74.804        0.038      351.535       33.511      860.953
07/18/2013  19:19:00     -275.888      -52.988      -19.647      129.084      107.592       67.099    16662.605    11576.047     4502.256        5.602        1.637      280.931       65.920        0.055      351.523       33.491      860.963
07/18/2013  19:20:00     -405.633      -64.558      -25.117      215.030      117.977       79.476    46237.694    13918.665     6316.397       11.789        3.324      410.738       96.926        0.056      351.492       33.436      860.941
07/18/2013  19:21:00     -294.765      -53.572       -5.728      192.730      104.001       82.957    37144.984    10816.134     6881.896        7.231        2.742      299.594      103.374        0.119      351.484       33.423      860.951
07/18/2013  19:22:00     -390.560     -101.995      -18.652      144.968       90.334       55.890    21015.855     8160.166     3123.708        9.779        1.615      403.658       65.500        0.026      351.497       33.445      860.967
07/18/2013  19:23:00     -227.379      -87.984       -6.216      104.581       91.443       50.292    10937.218     8361.786     2529.271        4.065        1.091      243.808       50.643        0.043      351.457       33.374      860.976
07/18/2013  19:24:00     -236.189     -103.323       -4.097       80.977       61.615       42.574     6557.293     3796.386     1812.567        3.932        0.608      257.801       38.825        0.023      351.472       33.398      860.983
07/18/2013  19:25:00     -227.993      -71.747      -10.563      102.586      114.071       44.274    10523.935    13012.279     1960.159        4.136        1.275      239.016       41.955        0.031      351.460       33.382      860.979
07/18/2013  19:26:00     -238.640      -55.907        8.828      117.006       79.091       50.828    13690.319     6255.379     2583.533        4.134        1.126      245.102       55.883        0.052      351.409       33.292      860.982
07/18/2013  19:27:00     -188.756      -45.578        5.917      133.747      112.379       66.309    17888.198    12628.957     4396.892        3.632        1.746      194.181       77.170        0.158      351.393       33.264      860.985
07/18/2013  19:28:00     -174.972      -63.675       -3.276      115.357       81.666       52.052    13307.300     6669.297     2709.448        2.868        1.134      186.198       52.608        0.080      351.407       33.288      860.984
07/18/2013  19:29:00     -206.070      -32.136      -19.142      149.931       91.597       69.275    22479.316     8390.040     4799.035        3.976        1.783      208.560       58.215        0.078      351.355       33.197      860.974
07/18/2013  19:30:00     -190.682      -27.318       14.731      143.725       82.031       45.040    20657.002     6729.135     2028.612        3.336        1.471      192.629       55.673        0.084      351.299       33.100      860.990
07/18/2013  19:31:00     -144.996      -91.619        2.741      137.777      112.971       67.246    18982.416    12762.347     4522.040        3.284        1.813      171.516       76.711        0.200      351.274       33.056      860.997
07/18/2013  19:32:00     -213.835     -103.623        2.751      161.467      137.242       73.930    26071.624    18835.468     5465.686        5.341        2.519      237.620       79.577        0.112      351.265       33.040      861.000
07/18/2013  19:33:00     -380.123      -67.360      -37.599      135.657      137.429       70.580    18402.722    18886.609     4981.468        9.635        2.114      386.045       71.860        0.035      351.318       33.131      861.019
07/18/2013  19:34:00     -330.401      -71.125      -15.666      171.023      123.025       61.012    29248.762    15135.028     3722.403        8.128        2.405      337.970       81.451        0.058      351.296       33.093      861.020
07/18/2013  19:35:00     -363.117      -62.327      -16.699      183.321       91.421       53.423    33606.715     8357.880     2854.048        9.041        2.241      368.427       70.192        0.036      351.280       33.067      861.038
07/18/2013  19:36:00     -384.861      -37.064      -19.414      146.528      136.705       73.142    21470.495    18688.305     5349.737        9.768        2.275      386.642       76.546        0.039      351.268       33.043      861.020
07/18/2013  19:37:00     -338.269      -93.106      -14.993      127.072      102.846       59.029    16147.332    10577.371     3484.447        7.676        1.510      350.849       58.143        0.027      351.276       33.059      861.008
07/18/2013  19:38:00     -334.758     -109.563       -9.549      128.404       87.342       54.929    16487.509     7628.632     3017.249        7.564        1.357      352.231       41.021        0.014      351.252       33.016      861.029
07/18/2013  19:39:00     -320.302     -106.642       -6.152      129.901       97.422       57.326    16874.225     9491.105     3286.266        7.182        1.483      337.589       57.955        0.029      351.224       32.967      861.052
07/18/2013  19:40:00     -292.194      -77.652       -1.711      132.311       89.919       45.448    17506.309     8085.352     2065.480        5.953        1.383      302.336       54.388        0.032      351.180       32.891      861.052
07/18/2013  19:41:00     -246.043     -119.821       -9.616       71.237       57.328       45.213     5074.682     3286.491     2044.182        4.269        0.520      273.668       38.380        0.020      351.154       32.844      861.092
07/18/2013  19:42:00     -346.300      -80.604      -23.862      144.091      106.300       62.685    20762.148    11299.772     3929.423        8.148        1.800      355.557       64.747        0.033      351.139       32.819      861.098
07/18/2013  19:43:00     -258.220      -67.945       -9.504      127.251      120.714       53.075    16192.819    14571.830     2816.930        5.248        1.679      267.009       58.093        0.047      351.131       32.804      861.090
07/18/2013  19:44:00     -237.905      -29.912      -11.501      126.567       83.683       53.859    16019.102     7002.788     2900.844        4.177        1.296      239.778       57.879        0.058      351.115       32.777      861.111
07/18/2013  19:45:00      -85.873      -16.621       19.041       61.042       66.940       40.247     3726.121     4480.949     1619.799        0.892        0.491       87.467       30.387        0.121      351.057       32.680      861.114
07/18/2013  19:46:00     -276.176     -151.654       -1.484      190.896      105.912       64.451    36441.092    11217.376     4153.927        7.553        2.591      315.074       80.215        0.065      351.058       32.677      861.137
07/18/2013  19:47:00     -189.887     -101.964        0.893      140.737      135.532       74.864    19806.808    18368.926     5604.693        4.511        2.189      215.532       78.261        0.132      351.059       32.682      861.119
07/18/2013  19:48:00     -181.763     -112.715        2.964      172.523      101.484       74.695    29764.044    10299.066     5579.322        4.569        2.282      213.875       90.217        0.178      351.029       32.629      861.125
07/18/2013  19:49:00     -178.980      -36.466       -6.658       61.742       60.818       32.904     3812.033     3698.817     1082.650        2.100        0.430      182.658       26.618        0.021      351.078       32.714      861.139
07/18/2013  19:50:00     -276.381     -103.091      -10.020      159.254      142.373       77.009    25361.940    20270.176     5930.394        6.933        2.578      294.982       85.114        0.083      351.010       32.595      861.142
07/18/2013  19:51:00     -426.076      -74.611      -33.475      170.722      111.750       61.602    29145.832    12487.997     3794.820       11.682        2.271      432.559       66.644        0.024      351.015       32.602      861.154
07/18/2013  19:52:00     -320.181      -32.869      -20.694      160.370      136.269       58.931    25718.636    18569.207     3472.816        7.588        2.388      321.863       47.528        0.022      350.982       32.545      861.167
07/18/2013  19:53:00     -344.175      -68.207      -15.450      115.598      107.738       56.625    13362.973    11607.492     3206.386        7.576        1.409      350.869       57.903        0.027      350.961       32.511      861.196
07/18/2013  19:54:00     -236.102     -108.943      -12.965      147.477      127.417       73.563    21749.506    16235.156     5411.473        5.558        2.170      260.024       85.891        0.109      350.926       32.451      861.214
07/18/2013  19:55:00     -258.172        8.752      -12.251      125.151       95.203       53.040    15662.872     9063.525     2813.241        4.720        1.377      258.320       54.948        0.045      350.894       32.395      861.266
07/18/2013  19:56:00     -122.810        2.782       -0.317       70.767       80.617       44.858     5007.955     6499.118     2012.248        1.430        0.676      122.842       34.063        0.077      350.800       32.234      861.306
07/18/2013  19:57:00     -219.604      -22.508      -25.710      100.736       62.758       43.094    10147.680     3938.576     1857.113        3.267        0.797      220.754       23.333        0.011      350.754       32.150      861.318
07/18/2013  19:58:00     -218.537        3.283      -13.625       85.740       75.746       49.853     7351.362     5737.516     2485.294        3.176        0.779      218.562       44.663        0.042      350.650       31.968      861.335
07/18/2013  19:59:00     -177.461       69.334      -17.405       86.155       97.406       58.723     7422.682     9487.869     3448.415        2.848        1.018      190.525       55.951        0.086      350.604       31.888      861.321
07/18/2013  20:00:00     -246.274      -37.992        4.074      156.478      100.997       67.624    24485.455    10200.482     4573.023        5.068        1.963      249.187       73.275        0.086      350.641       31.954      861.315
07/18/2013  20:01:00     -276.238      -15.829      -29.237       83.366       81.291       51.584     6949.811     6608.156     2660.881        4.681        0.811      276.691       35.386        0.016      350.709       32.072      861.316
07/18/2013  20:02:00     -249.971       87.273      -37.474      112.220      104.177       52.518    12593.399    10852.751     2758.109        4.885        1.310      264.768       61.692        0.054      350.688       32.034      861.331
07/18/2013  20:03:00     -229.498      -60.552      -26.013       92.156      100.067       55.950     8492.790    10013.386     3130.409        3.932        1.082      237.352       50.911        0.046      350.715       32.082      861.331
07/18/2013  20:04:00     -213.954      -40.665      -10.779       61.046       52.883       32.252     3726.561     2796.566     1040.210        2.755        0.378      217.784       16.348        0.006      350.671       32.006      861.329
07/18/2013  20:05:00     -170.646      -98.297       -1.017       85.497       57.909       36.682     7309.674     3353.506     1345.570        2.539        0.600      196.933       38.556        0.038      350.627       31.928      861.343
07/18/2013  20:06:00     -159.219      -54.918      -16.235       88.689       58.145       38.089     7865.761     3380.863     1450.777        2.066        0.635      168.424       37.582        0.050      350.599       31.880      861.343
07/18/2013  20:07:00     -238.300      -38.509      -14.927       93.465       70.388       42.984     8735.668     4954.448     1847.645        3.701        0.777      241.391       48.177        0.040      350.536       31.770      861.352
07/18/2013  20:08:00     -222.281      -31.782      -16.674       79.552       82.230       45.704     6328.562     6761.720     2088.850        3.294        0.759      224.542       47.464        0.045      350.530       31.759      861.372
07/18/2013  20:09:00     -243.400       11.890      -18.758       91.949       95.766       39.747     8454.591     9171.213     1579.799        3.947        0.960      243.691       33.101        0.018      350.520       31.743      861.371
07/18/2013  20:10:00     -224.093      -14.044      -11.502       77.492       78.983       33.646     6004.958     6238.276     1132.067        3.196        0.669      224.533       34.592        0.024      350.495       31.697      861.385
07/18/2013  20:11:00     -151.070      -29.155       -4.008       65.081       51.773       31.181     4235.517     2680.396      972.268        1.579        0.394      153.858       23.885        0.024      350.444       31.612      861.394
07/18/2013  20:12:00     -169.091        2.225       -4.237       44.380       65.795       36.678     1969.595     4329.009     1345.250        1.813        0.382      169.105       33.630        0.040      350.401       31.537      861.401
07/18/2013  20:13:00     -290.800      -10.039      -20.787       81.689       79.518       36.226     6673.039     6323.110     1312.289        4.970        0.715      290.973       40.227        0.019      350.456       31.631      861.424
07/18/2013  20:14:00     -193.495      -19.261      -11.560       78.806       78.261       41.680     6210.346     6124.737     1737.258        2.601        0.704      194.451       38.905        0.040      350.404       31.540      861.447
07/18/2013  20:15:00     -219.451      -28.008       -1.859      124.403       74.196       52.047    15476.074     5505.079     2708.869        3.631        1.185      221.231       60.808        0.076      350.412       31.555      861.470
07/18/2013  20:16:00      -91.992       -6.585      -15.974       58.200       71.667       33.617     3387.235     5136.090     1130.124        0.921        0.483       92.227       21.517        0.054      350.339       31.429      861.482
07/18/2013  20:17:00     -185.315       -0.754       -6.661      129.807       67.179       44.510    16849.931     4512.982     1981.100        2.886        1.167      185.317       52.006        0.079      350.355       31.457      861.508
07/18/2013  20:18:00     -350.771      -38.960      -33.586      107.547       76.355       46.531    11566.257     5830.127     2165.088        7.262        0.978      352.928       44.811        0.016      350.400       31.533      861.524
07/18/2013  20:19:00     -214.062      -76.338       -8.442      100.463       79.126       43.659    10092.820     6260.926     1906.065        3.499        0.913      227.266       36.920        0.026      350.401       31.536      861.534
07/18/2013  20:20:00     -167.547      -46.525      -13.810       40.917       49.917       34.614     1674.213     2491.747     1198.121        1.789        0.268      173.887       20.430        0.014      350.380       31.502      861.546
07/18/2013  20:21:00      -86.023      -43.492       11.213       70.171       58.020       28.207     4923.937     3366.297      795.619        0.925        0.454       96.392       33.252        0.119      350.245       31.267      861.558
07/18/2013  20:22:00      -80.482      -45.609       10.086       43.988       46.848       27.850     1934.947     2194.757      775.631        0.678        0.245       92.506       25.757        0.078      350.236       31.252      861.576
07/18/2013  20:23:00     -125.169      -13.737       -1.966       91.763       45.541       40.973     8420.483     2073.975     1678.825        1.401        0.609      125.921       49.348        0.154      350.220       31.224      861.582
07/18/2013  20:24:00     -150.113       -1.093      -23.016       66.152       88.586       25.656     4376.148     7847.441      658.222        1.797        0.644      150.117       27.957        0.035      350.184       31.159      861.602
07/18/2013  20:25:00      -90.800        3.357      -22.166       59.114       55.816       38.559     3494.416     3115.394     1486.830        0.842        0.405       90.862       37.609        0.171      350.190       31.172      861.602
07/18/2013  20:26:00     -123.106       -0.754       -7.963       85.004       72.133       35.607     7225.596     5203.147     1267.844        1.446        0.685      123.109       43.219        0.123      350.070       30.962      861.622
07/18/2013  20:27:00     -129.582       28.730      -14.579       69.286       56.667       35.607     4800.496     3211.172     1267.841        1.355        0.464      132.729       34.731        0.068      350.092       31.000      861.642
07/18/2013  20:28:00     -169.030      -38.727      -18.492      115.682       68.575       45.253    13382.420     4702.582     2047.837        2.527        1.007      173.409       39.345        0.051      350.120       31.047      861.664
07/18/2013  20:29:00     -198.739      -12.740      -17.748       68.995       68.956       40.855     4760.370     4754.936     1669.101        2.558        0.559      199.147       36.880        0.034      350.134       31.072      861.677
07/18/2013  20:30:00     -205.082      -41.297       -2.836      135.379       81.358       46.539    18327.389     6619.099     2165.861        3.544        1.356      209.198       50.175        0.058      350.157       31.112      861.674
07/18/2013  20:31:00      -58.731       30.484       -7.145       46.181       46.891       27.591     2132.664     2198.794      761.280        0.476        0.255       66.170       27.255        0.170      349.979       30.804      861.682
07/18/2013  20:32:00      -37.062      -22.366       -2.376       58.656       30.821       28.881     3440.471      949.916      834.120        0.355        0.261       43.287       15.502        0.128      349.977       30.801      861.701
07/18/2013  20:33:00     -133.546      -40.576        7.003       76.338       62.296       37.521     5827.457     3880.774     1407.829        1.532        0.556      139.574       37.591        0.073      349.892       30.652      861.709
07/18/2013  20:34:00     -119.092      -30.365      -12.320       60.120       82.102       40.737     3614.418     6740.748     1659.483        1.363        0.601      122.902       26.686        0.047      349.972       30.793      861.719
07/18/2013  20:35:00     -149.104      -40.916      -20.870       97.898       70.048       45.056     9584.008     4906.751     2030.076        2.043        0.826      154.617       39.599        0.066      349.927       30.713      861.709
07/18/2013  20:36:00     -171.212       15.824      -22.607       76.438       72.035       34.135     5842.840     5189.044     1165.182        2.113        0.610      171.942       29.464        0.029      349.981       30.806      861.723
07/18/2013  20:37:00     -162.096       43.332      -13.044       97.534       53.239       42.072     9512.912     2834.444     1770.045        2.122        0.706      167.788       42.726        0.065      349.996       30.830      861.735
07/18/2013  20:38:00     -233.973        0.406      -16.972       90.716      103.470       56.897     8229.375    10706.040     3237.267        3.860        1.109      233.973       49.134        0.044      349.935       30.725      861.747
07/18/2013  20:39:00     -304.564      -55.134      -21.199       68.461      109.756       44.383     4686.862    12046.398     1969.855        5.747        0.935      309.514       39.975        0.017      349.902       30.667      861.779
07/18/2013  20:40:00     -318.628      -56.290      -19.474      136.871      105.970       63.304    18733.737    11229.739     4007.353        6.951        1.699      323.562       63.333        0.038      349.971       30.788      861.767
07/18/2013  20:41:00     -203.346      -67.885        3.190      120.254       82.723       54.230    14460.909     6843.123     2940.905        3.510        1.212      214.378       58.982        0.076      349.911       30.683      861.785
07/18/2013  20:42:00     -267.257      -98.953      -10.394      122.762       88.894       52.768    15070.573     7902.055     2784.470        5.354        1.288      284.987       55.194        0.038      349.959       30.767      861.786
07/18/2013  20:43:00     -257.233      -44.802      -20.276       64.056       83.552       32.711     4103.116     6980.956     1070.015        4.037        0.608      261.106       25.998        0.010      349.953       30.755      861.783
07/18/2013  20:44:00     -273.928      -69.010      -13.622       77.217       83.199       43.740     5962.426     6922.011     1913.178        4.739        0.740      282.487       38.400        0.018      349.926       30.709      861.781
07/18/2013  20:45:00     -337.808      -66.127      -27.529       79.997      132.006       52.871     6399.545    17425.696     2795.304        7.293        1.331      344.219       43.878        0.016      349.972       30.790      861.769
07/18/2013  20:46:00      -84.516        7.647        1.558       63.567       40.177       33.988     4040.824     1614.184     1155.207        0.701        0.341       84.861       24.820        0.086      349.885       30.643      861.762
07/18/2013  20:47:00     -211.632      -44.622      -17.587       84.075       46.255       33.154     7068.625     2139.552     1099.156        2.870        0.515      216.285       26.519        0.015      349.862       30.599      861.762
07/18/2013  20:48:00     -337.867       10.440      -27.124      129.906       79.713       56.661    16875.662     6354.146     3210.500        7.071        1.322      338.028       51.083        0.023      349.886       30.641      861.795
07/18/2013  20:49:00     -173.651       15.960      -22.770       71.528       95.559       49.225     5116.231     9131.572     2423.124        2.380        0.834      174.383       36.589        0.044      349.817       30.523      861.802
07/18/2013  20:50:00     -118.940       -5.841      -10.409       79.865       63.722       41.171     6378.378     4060.532     1695.065        1.321        0.607      119.083       41.052        0.119      349.747       30.402      861.778
07/18/2013  20:51:00     -179.865      -50.038        7.961      154.888       86.336       61.949    23990.294     7453.852     3837.635        3.509        1.764      186.695       76.173        0.166      349.660       30.248      861.799
07/18/2013  20:52:00     -201.268      -62.281      -23.176       75.397       72.659       41.424     5684.646     5279.314     1715.960        2.880        0.634      210.684       21.296        0.010      349.762       30.426      861.804
07/18/2013  20:53:00     -306.705      -49.186      -30.923       90.341       77.470       46.716     8161.450     6001.642     2182.396        5.689        0.817      310.624       36.732        0.014      349.781       30.457      861.797
07/18/2013  20:54:00     -228.942      -41.122       -4.007      116.651       85.625       49.214    13607.549     7331.606     2422.026        3.874        1.168      232.606       54.586        0.055      349.704       30.324      861.814
07/18/2013  20:55:00     -349.914      -69.093      -28.520      116.697       89.227       50.085    13618.193     7961.410     2508.467        7.605        1.204      356.670       52.313        0.022      349.843       30.565      861.798
07/18/2013  20:56:00     -229.552      -93.012        8.420      101.962       87.344       49.447    10396.247     7628.924     2444.979        4.094        1.024      247.680       44.190        0.032      349.750       30.405      861.783
07/18/2013  20:57:00     -276.879      -76.323        1.041      129.299       90.615       60.588    16718.246     8211.149     3670.878        5.554        1.430      287.206       68.742        0.057      349.716       30.345      861.795
07/18/2013  20:58:00     -273.001      -12.589      -25.384       60.444       81.391       39.044     3653.513     6624.520     1524.453        4.357        0.590      273.291       31.303        0.013      349.772       30.441      861.818
07/18/2013  20:59:00     -269.180      -27.908       -4.331      149.489      103.551       52.870    22346.903    10722.833     2795.270        5.455        1.793      270.622       55.896        0.043      349.729       30.367      861.815
07/18/2013  21:00:00     -234.816      -28.154      -19.266      107.480       70.787       48.779    11552.005     5010.781     2379.360        3.762        0.947      236.498       50.454        0.046      349.673       30.269      861.813
07/18/2013  21:01:00     -346.010      -67.248      -21.937      145.135       93.154       65.838    21064.259     8677.728     4334.657        7.939        1.704      352.484       78.522        0.050      349.703       30.320      861.821
07/18/2013  21:02:00     -311.188     -109.728        4.668      170.696      119.434       75.404    29137.128    14264.366     5685.773        7.898        2.454      329.967       88.857        0.073      349.663       30.252      861.832
07/18/2013  21:03:00     -376.131      -20.105      -32.740      107.165      115.533       52.709    11484.351    13347.877     2778.192        8.528        1.381      376.668       41.986        0.012      349.742       30.387      861.841
07/18/2013  21:04:00     -247.863      -72.351      -18.466      155.781      108.113       64.091    24267.567    11688.350     4107.618        5.353        2.003      258.207       75.856        0.086      349.661       30.249      861.838
07/18/2013  21:05:00     -187.062      -84.242       -2.923      123.433       97.111       54.522    15235.667     9430.491     2972.620        3.486        1.382      205.156       49.933        0.059      349.585       30.118      861.830
07/18/2013  21:06:00     -227.040      -47.159       -5.617      108.293      114.494       63.169    11727.285    13108.764     3990.321        4.131        1.441      231.886       51.163        0.049      349.641       30.214      861.851
07/18/2013  21:07:00     -338.891      -38.697       -9.708      151.214      115.445       70.125    22865.802    13327.613     4917.562        7.877        2.056      341.093       79.600        0.054      349.620       30.178      861.853
07/18/2013  21:08:00     -329.026      -63.146       -8.153      164.669       95.055       72.574    27115.931     9035.515     5267.043        7.686        2.071      335.030       80.738        0.058      349.623       30.184      861.854
07/18/2013  21:09:00     -320.764     -123.632      -21.524      184.260       94.222       57.486    33951.891     8877.851     3304.694        8.238        2.307      343.765       58.143        0.029      349.647       30.225      861.866
07/18/2013  21:10:00     -210.631      -29.863        3.095      109.597      110.263       68.141    12011.555    12157.868     4643.221        3.703        1.441      212.737       62.494        0.086      349.569       30.091      861.859
07/18/2013  21:11:00     -378.843      -30.777      -12.525      167.368      122.726       72.676    28011.926    15061.701     5281.828        9.648        2.418      380.091       76.044        0.040      349.567       30.086      861.863
07/18/2013  21:12:00     -273.413      -77.978        1.758      143.393      137.915       77.416    20561.468    19020.676     5993.193        6.320        2.279      284.316       72.446        0.065      349.548       30.053      861.853
07/18/2013  21:13:00     -152.444      -69.172        6.375      123.322      103.847       53.261    15208.390    10784.269     2836.787        2.844        1.441      167.403       64.660        0.149      349.496       29.965      861.861
07/18/2013  21:14:00     -246.325      -83.985       -8.376      123.546      120.784       61.107    15263.592    14588.831     3734.025        5.069        1.679      260.249       65.474        0.063      349.492       29.957      861.871
07/18/2013  21:15:00     -446.086     -129.980      -17.034      141.682      110.767       51.778    20073.772    12269.339     2680.990       12.559        1.751      464.636       41.557        0.008      349.527       30.016      861.862
07/18/2013  21:16:00     -321.850     -151.221      -13.196      116.690       97.613       53.518    13616.463     9528.283     2864.126        7.631        1.300      355.606       53.284        0.022      349.464       29.907      861.893
07/18/2013  21:17:00     -385.158      -52.584      -14.108      167.604      114.829       59.873    28091.056    13185.774     3584.728        9.808        2.243      388.731       73.654        0.036      349.475       29.926      861.906
07/18/2013  21:18:00     -464.291     -154.007      -21.721      163.643      103.127       71.621    26779.039    10635.255     5129.506       14.114        2.127      489.167       84.804        0.030      349.499       29.966      861.910
07/18/2013  21:19:00     -317.676     -128.287      -13.962      136.271      114.593       65.077    18569.833    13131.581     4235.014        7.675        1.797      342.602       69.967        0.042      349.437       29.860      861.915
07/18/2013  21:20:00     -236.954      -76.782      -10.962      141.317       99.560       57.706    19970.577     9912.238     3329.942        4.768        1.661      249.083       73.118        0.086      349.385       29.770      861.924
07/18/2013  21:21:00     -284.712      -35.849      -35.365      152.739       81.443       55.913    23329.321     6632.921     3126.256        5.834        1.654      286.960       57.962        0.041      349.382       29.764      861.930
07/18/2013  21:22:00     -204.672      -68.776       -9.717      134.621       94.656       54.194    18122.803     8959.776     2936.995        3.836        1.501      215.918       63.841        0.087      349.400       29.798      861.922
07/18/2013  21:23:00     -343.405      -75.758      -10.846      110.983       95.918       62.026    12317.306     9200.339     3847.173        7.457        1.268      351.662       60.316        0.029      349.379       29.759      861.935
07/18/2013  21:24:00     -250.200      -93.573       -7.476      162.081       73.762       45.477    26270.160     5440.801     2068.152        5.259        1.689      267.126       60.583        0.051      349.317       29.652      861.941
07/18/2013  21:25:00     -393.486      -90.417      -19.156      116.201       87.426       56.103    13502.587     7643.332     3147.529        9.383        1.215      403.740       60.406        0.022      349.372       29.748      861.955
07/18/2013  21:26:00     -256.935      -54.208       -8.347      117.357       65.919       42.029    13772.736     4345.356     1766.447        4.445        0.994      262.591       52.015        0.039      349.330       29.675      861.949
07/18/2013  21:27:00     -301.552      -77.456      -21.025       90.443       81.693       43.993     8179.945     6673.737     1935.348        5.708        0.839      311.340       35.634        0.013      349.314       29.647      861.966
07/18/2013  21:28:00     -297.871      -47.525      -26.385      108.541       87.517       51.109    11781.141     7659.222     2612.167        5.686        1.103      301.639       52.319        0.030      349.315       29.649      861.977
07/18/2013  21:29:00     -357.884       -9.632      -28.133      138.899       98.186       46.507    19293.007     9640.448     2162.862        8.002        1.555      358.013       55.911        0.024      349.305       29.631      861.974
07/18/2013  21:30:00     -325.056      -11.787      -35.791      119.259       80.494       41.085    14222.812     6479.295     1688.013        6.473        1.120      325.270       52.134        0.026      349.397       29.792      861.987
07/18/2013  21:31:00     -181.005      -53.307       -3.497      115.226       91.639       50.865    13277.016     8397.782     2587.292        2.993        1.213      188.691       61.325        0.106      349.312       29.646      861.993
07/18/2013  21:32:00     -124.050      -18.051      -12.169       81.397       93.227       50.903     6625.408     8691.212     2591.118        1.688        0.895      125.356       47.520        0.144      349.232       29.506      861.998
07/18/2013  21:33:00     -130.621       -5.245      -17.101       74.484       94.481       43.829     5547.885     8926.734     1920.966        1.689        0.820      130.726       27.333        0.044      349.131       29.331      862.023
07/18/2013  21:34:00     -216.934      -57.613       -2.824      109.451       67.953       47.074    11979.415     4617.629     2215.994        3.460        0.941      224.454       48.508        0.047      349.100       29.275      862.037
07/18/2013  21:35:00     -246.533      -51.739      -18.536       83.121       55.607       42.789     6909.113     3092.186     1830.923        3.781        0.592      251.904       36.483        0.021      349.126       29.322      862.055
07/18/2013  21:36:00     -197.575      -51.779      -26.951       46.247       48.612       30.673     2138.816     2363.164      940.849        2.394        0.272      204.247       22.800        0.012      349.097       29.273      862.071
07/18/2013  21:37:00     -237.030      -28.800      -22.432       62.700       77.446       43.542     3931.271     5997.891     1895.922        3.467        0.591      238.773       29.890        0.016      349.110       29.294      862.100
07/18/2013  21:38:00     -163.570      -17.776      -22.445       72.144       44.649       35.158     5204.794     1993.506     1236.093        1.800        0.422      164.533       19.990        0.015      348.997       29.100      862.114
07/18/2013  21:39:00     -297.986      -94.803      -39.801       99.451       55.495       51.631     9890.419     3079.720     2665.796        5.750        0.782      312.704       42.628        0.019      349.014       29.128      862.103
07/18/2013  21:40:00     -252.730      -34.675      -19.185       91.733       82.558       45.667     8415.027     6815.826     2085.475        4.138        0.866      255.098       42.235        0.027      349.019       29.136      862.094
07/18/2013  21:41:00     -362.703      -80.721       -8.911       98.211       88.245       55.762     9645.360     7787.126     3109.375        7.934        1.027      371.577       56.985        0.024      349.125       29.320      862.103
07/18/2013  21:42:00     -242.187      -38.288      -14.632      118.367      106.663       47.251    14010.701    11377.070     2232.653        4.397        1.381      245.194       56.171        0.052      349.058       29.204      862.116
07/18/2013  21:43:00     -187.913     -103.816       -9.184       53.451       66.159       35.430     2856.998     4376.993     1255.295        2.733        0.424      214.684       24.070        0.013      349.037       29.167      862.140
07/18/2013  21:44:00     -141.024      -40.078      -17.320       65.940       53.530       35.965     4348.067     2865.440     1293.489        1.515        0.425      146.608       22.948        0.024      348.963       29.044      862.152
07/18/2013  21:45:00     -228.606      -48.663      -12.091      121.506       62.149       42.085    14763.623     3862.509     1771.165        3.758        1.020      233.728       54.091        0.054      348.922       28.969      862.176
07/18/2013  21:46:00     -263.457      -15.828      -23.323       91.064       78.777       52.670     8292.643     6205.858     2774.152        4.373        0.864      263.932       47.634        0.033      349.116       29.305      862.160
07/18/2013  21:47:00     -149.989      -34.006       -9.062       86.805       90.601       42.960     7535.049     8208.532     1845.578        2.066        0.879      153.796       35.767        0.054      348.983       29.076      862.190
07/18/2013  21:48:00     -202.687      -65.392      -10.985      115.603       84.292       42.928    13364.062     7105.064     1842.778        3.389        1.116      212.975       56.593        0.071      348.952       29.020      862.180
07/18/2013  21:49:00     -246.592      -38.450        3.371      138.309       82.611       62.092    19129.480     6824.647     3855.395        4.605        1.490      249.572       66.408        0.071      348.922       28.970      862.163
07/18/2013  21:50:00     -466.891     -106.784      -16.495      176.889      140.100       79.855    31289.702    19627.905     6376.876       14.347        2.865      478.947       80.709        0.028      349.114       29.301      862.154
07/18/2013  21:51:00     -353.204      -47.590      -18.885      167.368       95.511       65.137    28011.919     9122.367     4242.836        8.437        2.069      356.396       77.479        0.047      349.046       29.184      862.141
07/18/2013  21:52:00     -200.635      -71.600       -1.677      119.287      108.889       52.173    14229.312    11856.787     2722.003        3.709        1.440      213.028       52.510        0.061      349.017       29.134      862.135
07/18/2013  21:53:00     -269.878      -73.280       -4.471      133.143      140.253       61.593    17726.956    19670.772     3793.679        5.970        2.060      279.650       70.837        0.064      349.021       29.140      862.148
07/18/2013  21:54:00     -283.575       46.381      -14.543      115.102      114.604       58.673    13248.459    13134.037     3442.477        5.630        1.491      287.343       45.211        0.025      348.967       29.046      862.145
07/18/2013  21:55:00     -309.531      -37.635      -18.097      130.572      105.401       59.813    17048.937    11109.430     3577.562        6.464        1.587      311.811       58.434        0.035      349.016       29.131      862.150
07/18/2013  21:56:00     -285.632      -40.715        4.289      153.422      130.440       67.608    23538.180    17014.634     4570.868        6.418        2.256      288.519       67.239        0.054      348.985       29.078      862.136
07/18/2013  21:57:00     -326.481        4.909      -17.346      126.629      105.387       58.454    16034.994    11106.370     3416.913        6.873        1.528      326.518       62.692        0.037      348.961       29.037      862.157
07/18/2013  21:58:00     -312.072      -61.281       -3.716      130.092       86.372       59.586    16923.922     7460.049     3550.477        6.454        1.397      318.032       68.226        0.046      348.930       28.984      862.163
07/18/2013  21:59:00     -263.004      -15.451       -6.915      171.544      106.007       63.288    29427.294    11237.549     4005.414        5.705        2.234      263.457       78.282        0.088      348.941       29.001      862.162
07/18/2013  22:00:00     -140.225      -71.760       -0.420      124.818       72.776       48.105    15579.431     5296.324     2314.126        2.400        1.159      157.520       41.710        0.070      348.905       28.940      862.141
07/18/2013  22:01:00     -320.536      -81.002       -4.970      159.417      102.467       60.794    25413.822    10499.399     3695.883        7.446        1.980      330.612       71.524        0.047      348.927       28.977      862.168
07/18/2013  22:02:00     -185.419      -33.553       -6.385       97.586       80.419       47.086     9523.048     6467.146     2217.117        2.687        0.910      188.430       50.645        0.072      348.881       28.897      862.144
07/18/2013  22:03:00     -275.886       -5.736      -15.602      134.435      111.750       55.251    18072.695    12487.986     3052.717        5.499        1.681      275.946       71.285        0.067      348.874       28.884      862.149
07/18/2013  22:04:00     -263.363      -68.505      -17.970       90.052       80.438       48.372     8109.444     6470.219     2339.860        4.564        0.846      272.126       39.551        0.021      348.896       28.923      862.152
07/18/2013  22:05:00     -253.444        7.328      -24.378       85.534       73.249       44.313     7316.100     5365.418     1963.657        3.976        0.732      253.550       42.834        0.029      348.894       28.918      862.195
07/18/2013  22:06:00     -244.091      -94.538      -12.379      148.672      110.622       63.934    22103.322    12237.213     4087.561        5.354        1.921      261.759       71.551        0.075      348.856       28.853      862.201
07/18/2013  22:07:00     -274.935      -40.459       -9.285      145.887       86.371       54.285    21283.099     7459.918     2946.890        5.449        1.584      277.896       67.311        0.059      348.824       28.799      862.194
07/18/2013  22:08:00     -248.256      -46.453      -12.426      105.517      103.459       58.575    11133.842    10703.757     3430.995        4.460        1.263      252.565       55.101        0.048      348.810       28.774      862.182
07/18/2013  22:09:00     -265.402      -86.266       -7.376       91.058       85.255       58.214     8291.596     7268.344     3388.823        4.844        0.947      279.070       52.339        0.035      348.789       28.738      862.204
07/18/2013  22:10:00     -340.341     -125.162      -12.000      103.452      114.558       65.073    10702.250    13123.454     4234.550        7.985        1.403      362.626       71.309        0.039      348.858       28.857      862.219
07/18/2013  22:11:00     -335.427       40.311      -26.558       88.204       79.912       46.536     7779.988     6385.908     2165.590        6.558        0.817      337.841       40.016        0.014      348.803       28.760      862.225
07/18/2013  22:12:00     -258.982      -19.089      -19.390      100.752       81.800       48.085    10150.968     6691.305     2312.122        4.348        0.958      259.685       51.572        0.039      348.778       28.719      862.235
07/18/2013  22:13:00     -265.646      -82.225      -12.131      112.462       86.802       47.744    12647.731     7534.509     2279.536        4.996        1.123      278.081       51.966        0.035      348.749       28.670      862.240
07/18/2013  22:14:00     -351.631      -62.450      -32.373       80.306       84.973       57.005     6449.019     7220.400     3249.575        7.275        0.846      357.134       51.724        0.021      348.732       28.641      862.257
07/18/2013  22:15:00     -253.295      -12.343      -19.159      109.277       69.498       53.699    11941.452     4829.990     2883.615        4.216        0.983      253.595       57.069        0.051      348.685       28.559      862.278
07/18/2013  22:16:00     -200.512      -91.155       -5.997      135.668       81.177       50.598    18405.919     6589.716     2560.140        3.805        1.378      220.259       64.722        0.086      348.659       28.515      862.276
07/18/2013  22:17:00     -256.780     -107.356       -1.229      105.790       69.622       52.191    11191.450     4847.238     2723.849        4.811        0.938      278.319       55.126        0.039      348.669       28.531      862.279
07/18/2013  22:18:00     -202.678      -75.762        5.147      105.878       83.817       48.546    11210.177     7025.371     2356.678        3.371        1.030      216.375       61.166        0.080      348.674       28.540      862.277
07/18/2013  22:19:00     -276.837      -52.937       -7.510       98.606       92.247       49.587     9723.220     8509.577     2458.823        5.009        1.035      281.853       54.166        0.037      348.670       28.532      862.285
07/18/2013  22:20:00     -236.806      -66.697       -3.505      117.490       68.817       48.173    13803.942     4735.730     2320.649        4.069        1.043      246.019       51.467        0.044      348.612       28.431      862.289
07/18/2013  22:21:00     -172.877      -61.324      -15.733       91.012       65.753       44.507     8283.199     4323.505     1980.914        2.424        0.729      183.431       39.404        0.046      348.616       28.441      862.298
07/18/2013  22:22:00     -193.587      -83.578       -8.074       99.178       64.262       39.830     9836.181     4129.587     1586.434        3.004        0.778      210.858       46.423        0.048      348.585       28.386      862.308
07/18/2013  22:23:00     -214.738      -93.744      -14.089       76.499       71.407       41.368     5852.075     5098.922     1711.337        3.388        0.633      234.308       37.267        0.025      348.581       28.378      862.318
07/18/2013  22:24:00     -253.924      -28.163       -9.680       84.900       67.969       42.674     7208.088     4619.719     1821.031        3.950        0.682      255.481       43.109        0.028      348.628       28.459      862.334
07/18/2013  22:25:00     -151.695      -50.393      -15.941       70.851       54.438       32.031     5019.891     2963.515     1025.963        1.741        0.450      159.846       38.825        0.059      348.624       28.455      862.359
07/18/2013  22:26:00     -205.788      -18.337      -20.502       41.333       62.980       33.089     1708.436     3966.426     1094.881        2.494        0.338      206.603       30.790        0.022      348.607       28.423      862.383
07/18/2013  22:27:00     -155.819       15.607       -4.005       64.164       41.471       36.186     4117.062     1719.839     1309.456        1.584        0.357      156.598       33.137        0.045      348.557       28.338      862.403
07/18/2013  22:28:00     -193.921      -21.496      -15.388       91.500       49.666       34.645     8372.205     2466.754     1200.298        2.517        0.602      195.109       42.285        0.047      348.622       28.451      862.419
07/18/2013  22:29:00      -96.323      -26.983        3.780       93.188       53.916       40.092     8684.019     2906.956     1607.404        1.161        0.660      100.031       35.356        0.125      348.643       28.488      862.423
07/18/2013  22:30:00     -182.683      -70.776      -20.046       67.747       92.247       40.367     4589.617     8509.528     1629.523        2.675        0.736      195.914       33.261        0.029      348.603       28.416      862.432
07/18/2013  22:31:00     -166.047       35.434      -12.840       63.197       38.167       22.442     3993.829     1456.754      503.632        1.747        0.298      169.786       13.918        0.007      348.668       28.531      862.453
07/18/2013  22:32:00      -76.627       19.951      -10.711       24.714       34.617       16.481      610.789     1198.340      271.614        0.423        0.104       79.182        5.686        0.005      348.566       28.356      862.454
07/18/2013  22:33:00     -103.004       24.828       -6.139       51.340       35.018       19.142     2635.820     1226.279      366.435        0.775        0.211      105.954       17.336        0.027      348.570       28.362      862.474
07/18/2013  22:34:00      -56.652       22.959       -9.644       31.490       21.393       14.980      991.632      457.658      224.405        0.275        0.084       61.127       15.677        0.066      348.468       28.188      862.461
07/18/2013  22:35:00      -99.768      -15.884       -2.471       30.202       37.745       19.945      912.185     1424.656      397.803        0.647        0.137      101.024       12.340        0.015      348.570       28.364      862.471
07/18/2013  22:36:00     -118.250       -8.872      -13.743       52.982       31.172       19.341     2807.043      971.702      374.092        0.920        0.208      118.582       24.118        0.041      348.477       28.201      862.484
07/18/2013  22:37:00     -201.734      -35.221       -6.757       74.864       90.919       39.921     5604.688     8266.335     1593.699        2.872        0.773      204.786       35.550        0.030      348.574       28.366      862.494
07/18/2013  22:38:00     -109.056        5.236      -12.354       59.294       48.938       27.119     3515.745     2394.891      735.437        0.936        0.332      109.182       32.867        0.091      348.470       28.191      862.520
07/18/2013  22:39:00     -143.582       10.092       -4.609       57.423       62.243       34.422     3297.349     3874.158     1184.842        1.455        0.418      143.936       34.335        0.057      348.477       28.200      862.539
07/18/2013  22:40:00     -199.114      -27.147       -8.099       72.874       63.199       39.781     5310.685     3994.159     1582.490        2.567        0.544      200.956       34.792        0.030      348.464       28.176      862.547
07/18/2013  22:41:00     -144.761      -34.762       -8.522       60.758       43.649       34.634     3691.480     1905.278     1199.516        1.452        0.340      148.877       38.394        0.067      348.498       28.237      862.551
07/18/2013  22:42:00      -70.201      -20.865        2.100       58.954       27.190       26.678     3475.600      739.301      711.705        0.515        0.246       73.237       28.574        0.152      348.278       27.858      862.555
07/18/2013  22:43:00     -135.131       -6.422      -11.366       57.295       32.549       22.981     3282.748     1059.419      528.130        1.165        0.244      135.284       24.019        0.032      348.435       28.129      862.573
07/18/2013  22:44:00      -64.035       -1.174        1.430       44.719       37.933       17.745     1999.793     1438.891      314.873        0.393        0.188       64.045       23.648        0.136      348.297       27.892      862.581
07/18/2013  22:45:00      -97.178        7.396       -5.472       35.626       46.593       28.183     1269.219     2170.899      794.279        0.688        0.212       97.459       20.960        0.046      348.343       27.970      862.589
07/18/2013  22:46:00      -95.285       76.844      -22.051       43.651       27.715       21.758     1905.448      768.117      473.411        0.931        0.157      122.410       20.036        0.027      348.337       27.961      862.587
07/18/2013  22:47:00      -71.398       40.782       -8.741       32.503       27.226       16.853     1056.453      741.234      284.035        0.446        0.104       82.224       15.024        0.033      348.354       27.989      862.590
07/18/2013  22:48:00      -61.385       42.732      -12.561       19.343       23.785       15.823      374.138      565.704      250.383        0.347        0.060       74.794       13.056        0.030      348.351       27.983      862.594
07/18/2013  22:49:00      -17.883       56.887       -5.811       21.587       15.488       16.860      466.002      239.875      284.265        0.229        0.050       59.631        9.251        0.024      348.279       27.860      862.602
07/18/2013  22:50:00      -52.991       84.410      -14.070       29.379       16.330       10.527      863.125      266.672      110.818        0.569        0.062       99.665        9.022        0.008      348.111       27.571      862.617
07/18/2013  22:51:00      -96.956      117.054      -12.828       52.253       54.777       22.635     2730.382     3000.488      512.325        1.475        0.312      151.993       14.933        0.010      348.406       28.077      862.617
07/18/2013  22:52:00      -69.271       30.545       -3.545       46.954       47.762       27.228     2204.690     2281.252      741.377        0.548        0.261       75.707       26.185        0.120      348.230       27.774      862.606
07/18/2013  22:53:00      -37.704       22.087       -0.481       30.142       36.354       21.681      908.565     1321.601      470.063        0.230        0.135       43.697       17.751        0.165      347.992       27.362      862.607
07/18/2013  22:54:00      -77.260       94.799      -18.964       29.722       38.295       16.652      883.386     1466.522      277.305        0.897        0.131      122.294       17.667        0.021      348.245       27.800      862.623
07/18/2013  22:55:00      -36.756      121.389      -20.998       35.013       24.765       15.736     1225.929      613.284      247.606        0.931        0.104      126.831       13.367        0.011      348.163       27.660      862.643
07/18/2013  22:56:00      -26.543      129.269      -20.903       14.089       22.710       11.022      198.494      515.728      121.495        0.934        0.042      131.966        6.865        0.003      348.246       27.802      862.648
07/18/2013  22:57:00      -62.704      112.607      -18.769       40.316       36.041       26.053     1625.396     1298.988      678.738        1.028        0.180      128.888       21.673        0.028      348.129       27.600      862.647
07/18/2013  22:58:00     -100.299      107.411      -23.010       54.131       33.342       21.730     2930.142     1111.676      472.173        1.332        0.226      146.959       26.777        0.033      348.194       27.711      862.647
07/18/2013  22:59:00      -26.459       76.145       -1.940       31.784       33.299       20.397     1010.232     1108.792      416.056        0.452        0.127       80.611       20.169        0.063      348.091       27.534      862.631
07/18/2013  23:00:00      -64.945       41.571      -11.631       34.447       29.986       13.248     1186.604      899.153      175.503        0.417        0.113       77.111       18.753        0.059      348.091       27.534      862.644
07/18/2013  23:01:00      -83.427        0.825      -10.462       29.498       34.385       20.484      870.157     1182.361      419.589        0.477        0.124       83.431       14.676        0.031      347.998       27.373      862.643
07/18/2013  23:02:00     -107.611      -18.107        0.633       43.570       51.204       27.625     1898.321     2621.882      763.166        0.859        0.264      109.123       24.903        0.052      348.026       27.422      862.636
07/18/2013  23:03:00     -115.790       -9.405      -15.934       40.380       38.091       19.310     1630.525     1450.946      372.884        0.860        0.173      116.172       17.120        0.022      348.126       27.592      862.633
07/18/2013  23:04:00      -84.694      -16.600      -10.701       22.124       46.290       20.385      489.451     2142.731      415.544        0.530        0.152       86.305        8.993        0.011      348.016       27.404      862.630
07/18/2013  23:05:00      -45.622       10.747      -10.042       18.600       24.127       14.570      345.972      582.107      212.286        0.172        0.057       46.871        8.332        0.032      348.001       27.379      862.632
07/18/2013  23:06:00      -64.610       -5.741       -8.952       29.530       35.533       14.861      871.994     1262.576      220.842        0.332        0.118       64.864        9.325        0.021      347.961       27.308      862.621
07/18/2013  23:07:00      -74.867      -15.431      -10.309       29.492       73.514       27.465      869.750     5404.276      754.308        0.649        0.351       76.441       20.156        0.070      348.071       27.499      862.629
07/18/2013  23:08:00     -120.975      134.861      -19.449       60.537       72.940       34.474     3664.677     5320.240     1188.463        2.169        0.509      181.170       41.981        0.054      348.222       27.760      862.662
07/18/2013  23:09:00      -97.855       72.434      -12.764       60.857       39.464       24.000     3703.527     1557.393      575.991        1.041        0.292      121.747       24.981        0.042      348.241       27.795      862.666
07/18/2013  23:10:00      -73.313       83.300      -11.178       32.526       30.304       14.182     1057.942      918.350      201.123        0.731        0.109      110.967       11.463        0.011      348.257       27.821      862.653
07/18/2013  23:11:00      -44.772        5.756       -7.321       12.855       36.076       10.901      165.262     1301.503      118.827        0.184        0.079       45.140        6.707        0.022      348.224       27.764      862.654
07/18/2013  23:12:00      -50.661       -8.061       -2.444       22.544       15.226       11.935      508.231      231.844      142.434        0.176        0.044       51.299        7.926        0.024      348.252       27.813      862.662
07/18/2013  23:13:00      -53.068      -45.195       -7.298       29.576       17.606       14.055      874.735      309.976      197.548        0.315        0.069       69.705        9.984        0.021      347.993       27.365      862.654
07/18/2013  23:14:00      -49.361      -27.483       -0.939       46.786       18.951       18.091     2188.974      359.139      327.287        0.303        0.144       56.496       12.963        0.053      348.059       27.479      862.665
07/18/2013  23:15:00     -103.525       13.442      -11.165       38.427       25.518       13.903     1476.628      651.160      193.306        0.667        0.116      104.394       15.534        0.022      347.899       27.203      862.688
07/18/2013  23:16:00     -108.305        7.585      -12.188       38.771       49.212       24.166     1503.215     2421.824      583.984        0.822        0.225      108.570       19.628        0.033      348.364       28.005      862.695
07/18/2013  23:17:00      -85.025      -42.054        5.674       59.038       42.229       23.675     3485.447     1783.324      560.491        0.743        0.291       94.857       28.076        0.088      347.947       27.286      862.698
07/18/2013  23:18:00     -156.202      -43.331       -1.485       78.094       51.042       31.218     6098.749     2605.270      974.560        1.798        0.484      162.100       34.859        0.046      348.011       27.395      862.689
07/18/2013  23:19:00     -161.461      -78.579       -5.157       73.788       50.186       40.583     5444.632     2518.606     1646.995        2.094        0.481      179.567       33.526        0.035      348.222       27.759      862.677
07/18/2013  23:20:00     -118.094      -35.490       -1.508       61.442       46.084       27.336     3775.108     2123.693      747.274        1.093        0.332      123.312       26.909        0.048      348.160       27.653      862.702
07/18/2013  23:21:00     -137.635      -45.062      -13.604      116.191       67.299       41.074    13500.345     4529.138     1687.066        2.043        0.986      144.825       40.968        0.080      348.279       27.857      862.728
07/18/2013  23:22:00     -115.960      -32.044       -9.236       48.059       46.008       23.845     2309.680     2116.729      568.587        0.978        0.250      120.306       18.515        0.024      348.165       27.662      862.743
07/18/2013  23:23:00      -67.483       52.268      -11.800       41.823       37.753       24.568     1749.196     1425.254      603.582        0.560        0.189       85.358       25.078        0.086      347.848       27.116      862.747
07/18/2013  23:24:00      -70.046       32.750       -4.813       41.694       61.850       27.609     1738.382     3825.386      762.254        0.616        0.316       77.324       30.040        0.151      348.001       27.379      862.759
07/18/2013  23:25:00      -72.888        4.402        0.220       42.830       29.814       26.074     1834.380      888.860      679.850        0.437        0.170       73.021       20.650        0.080      347.966       27.318      862.774
07/18/2013  23:26:00      -87.626       42.010      -12.032       49.690       42.028       19.842     2469.083     1766.331      393.704        0.711        0.231       97.176       21.294        0.048      348.099       27.548      862.762
07/18/2013  23:27:00     -115.883       38.941       -6.749       87.490       45.569       37.488     7654.457     2076.571     1405.369        1.306        0.557      122.251       43.651        0.127      348.093       27.536      862.757
07/18/2013  23:28:00     -119.990      -22.683      -14.573       51.829       53.298       34.858     2686.213     2840.694     1215.050        1.093        0.337      122.115       22.253        0.033      348.128       27.598      862.772
07/18/2013  23:29:00     -123.007      -16.349      -10.716       59.148       44.025       29.122     3498.438     1938.219      848.095        1.090        0.314      124.089       31.352        0.064      348.024       27.418      862.788
07/18/2013  23:30:00      -99.789       34.287       -9.949       48.562       41.942       26.358     2358.246     1759.120      694.730        0.802        0.241      105.515       15.959        0.023      348.064       27.488      862.799
07/18/2013  23:31:00      -38.268       44.561       -0.112       28.370       37.560       17.021      804.875     1410.747      289.710        0.298        0.125       58.738       20.385        0.120      347.790       27.014      862.805
07/18/2013  23:32:00      -93.390       -0.790       -5.512       34.884       59.563       25.646     1216.916     3547.715      657.734        0.709        0.271       93.393       17.592        0.035      347.897       27.199      862.837
07/18/2013  23:33:00      -33.214       16.517       -0.193       23.972       38.732       17.120      574.667     1500.207      293.081        0.187        0.118       37.095       13.839        0.139      347.844       27.106      862.824
07/18/2013  23:34:00      -25.164       24.219        4.130       16.487       24.866       15.418      271.820      618.310      237.726        0.118        0.056       34.925       13.495        0.149      347.791       27.016      862.808
07/18/2013  23:35:00      -55.505       37.013      -12.352       31.855       17.463       14.192     1014.766      304.948      201.411        0.306        0.076       66.714       10.328        0.024      347.825       27.073      862.812
07/18/2013  23:36:00      -49.264       59.226      -10.098       34.175       17.932       16.878     1167.925      321.573      284.861        0.391        0.089       77.037       16.512        0.046      347.819       27.065      862.817
07/18/2013  23:37:00      -49.468       68.248       -4.756       19.877       37.799       15.709      395.097     1428.771      246.776        0.460        0.104       84.290       13.602        0.026      347.775       26.988      862.811
07/18/2013  23:38:00      -60.475       31.171       -7.766       21.616       21.498       12.563      467.263      462.143      157.832        0.289        0.054       68.035        9.714        0.020      347.833       27.089      862.824
07/18/2013  23:39:00      -46.101       49.269       -9.872       32.663       31.561       14.655     1066.900      996.113      214.780        0.346        0.114       67.473        9.619        0.020      347.769       26.978      862.849
07/18/2013  23:40:00      -33.403       -9.830        0.049       22.410       23.790       13.898      502.202      565.985      193.147        0.124        0.063       34.819       13.415        0.148      347.727       26.905      862.855
07/18/2013  23:41:00      -49.995      -27.771       -2.278       47.231       30.710       17.301     2230.753      943.084      299.336        0.337        0.174       57.190       17.310        0.092      347.823       27.069      862.856
07/18/2013  23:42:00      -28.600       27.106        4.711       28.380       28.548       20.439      805.447      815.007      417.772        0.181        0.102       39.404       18.413        0.218      347.682       26.828      862.868
07/18/2013  23:43:00      -16.543        6.851        1.397       18.172       15.079        9.242      330.224      227.372       85.420        0.048        0.032       17.905       10.078        0.317      347.579       26.652      862.876
07/18/2013  23:44:00       -5.902      -27.400        2.707       19.534        9.502        7.130      381.583       90.280       50.841        0.066        0.026       28.028        5.267        0.035      347.765       26.972      862.878
07/18/2013  23:45:00        0.699      -69.800       -3.425       27.075       22.133       12.475      733.052      489.880      155.623        0.313        0.069       69.803       15.895        0.052      347.814       27.057      862.867
07/18/2013  23:46:00      -17.478      -31.505        6.772       34.639       30.502       12.768     1199.847      930.349      163.032        0.182        0.115       36.029       20.268        0.316      347.832       27.086      862.866
07/18/2013  23:47:00        0.545      -78.044       -3.307       23.408       22.105       11.091      547.916      488.647      123.006        0.363        0.058       78.046       10.068        0.017      347.838       27.097      862.869
07/18/2013  23:48:00       -3.270        6.901       -2.484       13.570       41.056       10.829      184.142     1685.562      117.273        0.103        0.099        7.636       16.628        4.742      347.624       26.728      862.892
07/18/2013  23:49:00      -14.491       38.839       -2.275       14.618       26.275       13.442      213.694      690.375      180.693        0.140        0.054       41.454       12.072        0.085      347.622       26.725      862.892
07/18/2013  23:50:00        3.283      -11.740       -2.078       11.167       12.505       14.978      124.700      156.379      224.353        0.033        0.025       12.191       10.658        0.764      347.657       26.782      862.873
07/18/2013  23:51:00      -11.732      -43.837       -1.612       30.833       24.590       18.189      950.682      604.644      330.854        0.197        0.094       45.379       11.689        0.066      347.621       26.722      862.874
07/18/2013  23:52:00      -82.457      -42.204       -4.754       23.037       23.957        9.356      530.718      573.937       87.527        0.490        0.060       92.631        8.543        0.009      347.402       26.344      862.889
07/18/2013  23:53:00      -53.645      -31.019       -2.879       14.527       20.386       10.572      211.032      415.586      111.762        0.229        0.037       61.967        9.300        0.023      347.507       26.526      862.885
07/18/2013  23:54:00      -97.544      -30.873        2.882       44.158       34.218       18.188     1949.900     1170.885      330.796        0.696        0.173      102.313       18.134        0.031      347.671       26.808      862.880
07/18/2013  23:55:00     -156.161      -38.947       -2.365       55.000       38.543       22.512     3024.959     1485.597      506.810        1.546        0.251      160.945       25.705        0.026      347.617       26.714      862.885
07/18/2013  23:56:00     -104.523      -36.695        1.048       45.941       32.645       23.638     2110.560     1065.693      558.753        0.800        0.187      110.777       24.177        0.048      347.468       26.459      862.886
07/18/2013  23:57:00     -125.856      -54.463       -4.424       39.036       24.425       18.298     1523.771      596.584      334.800        1.064        0.123      137.135       11.132        0.007      347.459       26.443      862.884
07/18/2013  23:58:00      -53.640      -17.159        1.188       43.807       21.475       19.704     1919.077      461.190      388.231        0.297        0.138       56.317       20.459        0.132      347.322       26.207      862.873
07/18/2013  23:59:00      -26.181      -33.168        0.931       59.219       25.237       24.337     3506.915      636.915      592.304        0.326        0.237       42.255       26.432        0.391      347.345       26.247      862.860
